Wetterdaten: Mittwoch, 25.09.2024
Datum Zeit Temp. I. Temp. A. Feuchte I. Feuchte A. Luftdruck Regen Wind Richtung Richtung Sonnenschein Solar Taupunkt Windchill Windböen
25.09.2024 00:00 22,1 °C 15,1 °C 58 % 83 % 1004,5 hPa 0,0 l/m² 11,9 km/h (2 Bft) S-SW 194 ° 0 min 0 W/m² 12,2 °C 12,4 °C 17,7 km/h (3 Bft)
25.09.2024 00:02 22,1 °C 15,1 °C 58 % 83 % 1004,4 hPa 0,0 l/m² 14,6 km/h (3 Bft) S-SW 197 ° 0 min 0 W/m² 12,2 °C 11,4 °C 17,7 km/h (3 Bft)
25.09.2024 00:03 22,1 °C 15,1 °C 58 % 83 % 1004,4 hPa 0,0 l/m² 13,1 km/h (3 Bft) S-SW 212 ° 0 min 0 W/m² 12,2 °C 12,0 °C 14,5 km/h (3 Bft)
25.09.2024 00:05 22,2 °C 15,1 °C 58 % 83 % 1004,4 hPa 0,0 l/m² 13,5 km/h (3 Bft) S-SW 205 ° 0 min 0 W/m² 12,2 °C 11,8 °C 17,7 km/h (3 Bft)
25.09.2024 00:06 22,1 °C 15,1 °C 58 % 83 % 1004,5 hPa 0,0 l/m² 13,8 km/h (3 Bft) SW 221 ° 0 min 0 W/m² 12,2 °C 11,7 °C 17,7 km/h (3 Bft)
25.09.2024 00:08 22,1 °C 15,1 °C 58 % 83 % 1004,4 hPa 0,0 l/m² 13,0 km/h (3 Bft) S-SW 193 ° 0 min 0 W/m² 12,2 °C 12,0 °C 16,1 km/h (3 Bft)
25.09.2024 00:10 22,2 °C 15,1 °C 58 % 84 % 1004,4 hPa 0,0 l/m² 13,5 km/h (3 Bft) S-SW 196 ° 0 min 0 W/m² 12,4 °C 11,8 °C 17,7 km/h (3 Bft)
25.09.2024 00:11 22,1 °C 15,1 °C 58 % 84 % 1004,4 hPa 0,0 l/m² 12,5 km/h (2 Bft) S-SW 213 ° 0 min 0 W/m² 12,4 °C 12,2 °C 14,5 km/h (3 Bft)
25.09.2024 00:12 22,1 °C 15,1 °C 58 % 84 % 1004,4 hPa 0,0 l/m² 13,0 km/h (3 Bft) S-SW 196 ° 0 min 0 W/m² 12,4 °C 12,0 °C 17,7 km/h (3 Bft)
25.09.2024 00:13 22,1 °C 15,1 °C 58 % 84 % 1004,4 hPa 0,0 l/m² 11,9 km/h (2 Bft) S-SW 200 ° 0 min 0 W/m² 12,4 °C 12,4 °C 14,5 km/h (3 Bft)
25.09.2024 00:15 22,2 °C 15,1 °C 58 % 84 % 1004,5 hPa 0,0 l/m² 12,4 km/h (2 Bft) S-SW 206 ° 0 min 0 W/m² 12,4 °C 12,2 °C 19,3 km/h (3 Bft)
25.09.2024 00:17 22,1 °C 15,1 °C 58 % 84 % 1004,4 hPa 0,0 l/m² 11,1 km/h (2 Bft) S-SW 198 ° 0 min 0 W/m² 12,4 °C 12,8 °C 14,5 km/h (3 Bft)
25.09.2024 00:19 22,1 °C 15,1 °C 58 % 84 % 1004,4 hPa 0,0 l/m² 10,0 km/h (2 Bft) S-SW 194 ° 0 min 0 W/m² 12,4 °C 13,2 °C 14,5 km/h (3 Bft)
25.09.2024 00:20 22,1 °C 15,1 °C 58 % 84 % 1004,4 hPa 0,0 l/m² 10,8 km/h (2 Bft) S 188 ° 0 min 0 W/m² 12,4 °C 12,9 °C 14,5 km/h (3 Bft)
25.09.2024 00:22 22,1 °C 15,1 °C 58 % 84 % 1004,4 hPa 0,0 l/m² 10,2 km/h (2 Bft) S 176 ° 0 min 0 W/m² 12,4 °C 13,1 °C 14,5 km/h (3 Bft)
25.09.2024 00:23 22,1 °C 15,1 °C 58 % 84 % 1004,4 hPa 0,0 l/m² 7,3 km/h (2 Bft) S-SW 194 ° 0 min 0 W/m² 12,4 °C 14,6 °C 9,7 km/h (2 Bft)
25.09.2024 00:25 22,1 °C 15,1 °C 58 % 84 % 1004,3 hPa 0,0 l/m² 9,5 km/h (2 Bft) S 184 ° 0 min 0 W/m² 12,4 °C 13,5 °C 12,9 km/h (3 Bft)
25.09.2024 00:27 22,1 °C 15,1 °C 58 % 84 % 1004,3 hPa 0,0 l/m² 10,1 km/h (2 Bft) S-SW 196 ° 0 min 0 W/m² 12,4 °C 13,2 °C 14,5 km/h (3 Bft)
25.09.2024 00:29 22,1 °C 15,0 °C 58 % 84 % 1004,3 hPa 0,0 l/m² 8,9 km/h (2 Bft) S-SW 205 ° 0 min 0 W/m² 12,3 °C 13,6 °C 11,3 km/h (2 Bft)
25.09.2024 00:30 22,1 °C 15,0 °C 58 % 84 % 1004,3 hPa 0,0 l/m² 7,9 km/h (2 Bft) S 178 ° 0 min 0 W/m² 12,3 °C 14,2 °C 12,9 km/h (3 Bft)
25.09.2024 00:32 22,1 °C 15,0 °C 58 % 84 % 1004,4 hPa 0,0 l/m² 8,9 km/h (2 Bft) S-SW 202 ° 0 min 0 W/m² 12,3 °C 13,6 °C 12,9 km/h (3 Bft)
25.09.2024 00:33 22,1 °C 15,0 °C 58 % 84 % 1004,4 hPa 0,0 l/m² 8,9 km/h (2 Bft) S-SW 193 ° 0 min 0 W/m² 12,3 °C 13,6 °C 14,5 km/h (3 Bft)
25.09.2024 00:35 22,1 °C 15,0 °C 58 % 84 % 1004,4 hPa 0,0 l/m² 8,3 km/h (2 Bft) S-SW 207 ° 0 min 0 W/m² 12,3 °C 13,9 °C 11,3 km/h (2 Bft)
25.09.2024 00:37 22,1 °C 15,0 °C 58 % 84 % 1004,3 hPa 0,0 l/m² 8,6 km/h (2 Bft) S 184 ° 0 min 0 W/m² 12,3 °C 13,8 °C 16,1 km/h (3 Bft)
25.09.2024 00:39 22,1 °C 15,0 °C 58 % 84 % 1004,3 hPa 0,0 l/m² 9,2 km/h (2 Bft) S 179 ° 0 min 0 W/m² 12,3 °C 13,5 °C 12,9 km/h (3 Bft)
25.09.2024 00:41 22,1 °C 14,9 °C 58 % 84 % 1004,3 hPa 0,0 l/m² 9,1 km/h (2 Bft) S 189 ° 0 min 0 W/m² 12,2 °C 13,4 °C 12,9 km/h (3 Bft)
25.09.2024 00:42 22,1 °C 14,9 °C 58 % 84 % 1004,3 hPa 0,0 l/m² 6,9 km/h (2 Bft) S 188 ° 0 min 0 W/m² 12,2 °C 14,6 °C 8,0 km/h (2 Bft)
25.09.2024 00:43 22,1 °C 15,0 °C 58 % 84 % 1004,3 hPa 0,0 l/m² 8,5 km/h (2 Bft) S 179 ° 0 min 0 W/m² 12,3 °C 13,8 °C 11,3 km/h (2 Bft)
25.09.2024 00:46 22,1 °C 14,9 °C 58 % 85 % 1004,3 hPa 0,0 l/m² 8,4 km/h (2 Bft) S 182 ° 0 min 0 W/m² 12,4 °C 13,8 °C 11,3 km/h (2 Bft)
25.09.2024 00:47 22,1 °C 14,9 °C 58 % 85 % 1004,4 hPa 0,0 l/m² 8,9 km/h (2 Bft) S 179 ° 0 min 0 W/m² 12,4 °C 13,5 °C 11,3 km/h (2 Bft)
25.09.2024 00:49 22,1 °C 14,9 °C 58 % 85 % 1004,3 hPa 0,0 l/m² 7,7 km/h (2 Bft) S 179 ° 0 min 0 W/m² 12,4 °C 14,2 °C 14,5 km/h (3 Bft)
25.09.2024 00:51 22,1 °C 14,9 °C 59 % 85 % 1004,3 hPa 0,0 l/m² 6,0 km/h (2 Bft) S 184 ° 0 min 0 W/m² 12,4 °C 14,9 °C 9,7 km/h (2 Bft)
25.09.2024 00:52 22,1 °C 14,9 °C 59 % 85 % 1004,4 hPa 0,0 l/m² 7,1 km/h (2 Bft) S 184 ° 0 min 0 W/m² 12,4 °C 14,5 °C 8,0 km/h (2 Bft)
25.09.2024 00:53 22,1 °C 14,9 °C 59 % 85 % 1004,4 hPa 0,0 l/m² 7,1 km/h (2 Bft) S 173 ° 0 min 0 W/m² 12,4 °C 14,5 °C 9,7 km/h (2 Bft)
25.09.2024 00:54 22,1 °C 14,9 °C 59 % 85 % 1004,4 hPa 0,0 l/m² 5,8 km/h (2 Bft) S 180 ° 0 min 0 W/m² 12,4 °C 14,9 °C 8,0 km/h (2 Bft)
25.09.2024 00:55 22,1 °C 14,9 °C 59 % 85 % 1004,3 hPa 0,0 l/m² 8,0 km/h (2 Bft) S 180 ° 0 min 0 W/m² 12,4 °C 14,0 °C 9,7 km/h (2 Bft)
25.09.2024 00:57 22,1 °C 14,9 °C 59 % 85 % 1004,3 hPa 0,0 l/m² 4,7 km/h (1 Bft) S 180 ° 0 min 0 W/m² 12,4 °C 14,9 °C 6,4 km/h (2 Bft)
25.09.2024 00:59 22,1 °C 14,9 °C 59 % 86 % 1004,3 hPa 0,0 l/m² 5,2 km/h (1 Bft) S-SO 163 ° 0 min 0 W/m² 12,6 °C 14,9 °C 8,0 km/h (2 Bft)
25.09.2024 01:00 22,1 °C 14,9 °C 59 % 86 % 1004,3 hPa 0,0 l/m² 7,6 km/h (2 Bft) S 175 ° 0 min 0 W/m² 12,6 °C 14,2 °C 9,7 km/h (2 Bft)
25.09.2024 01:02 22,1 °C 14,9 °C 59 % 86 % 1004,3 hPa 0,0 l/m² 5,9 km/h (2 Bft) S-SO 164 ° 0 min 0 W/m² 12,6 °C 14,9 °C 8,0 km/h (2 Bft)
25.09.2024 01:03 22,1 °C 14,9 °C 59 % 86 % 1004,3 hPa 0,0 l/m² 7,7 km/h (2 Bft) S 182 ° 0 min 0 W/m² 12,6 °C 14,2 °C 11,3 km/h (2 Bft)
25.09.2024 01:05 22,1 °C 14,9 °C 59 % 86 % 1004,3 hPa 0,0 l/m² 7,8 km/h (2 Bft) S 171 ° 0 min 0 W/m² 12,6 °C 14,1 °C 11,3 km/h (2 Bft)
25.09.2024 01:07 22,1 °C 14,9 °C 59 % 86 % 1004,4 hPa 0,0 l/m² 5,1 km/h (1 Bft) S-SO 166 ° 0 min 0 W/m² 12,6 °C 14,9 °C 9,7 km/h (2 Bft)
25.09.2024 01:09 22,1 °C 14,9 °C 59 % 86 % 1004,3 hPa 0,0 l/m² 7,0 km/h (2 Bft) S 170 ° 0 min 0 W/m² 12,6 °C 14,6 °C 11,3 km/h (2 Bft)
25.09.2024 01:10 22,1 °C 14,9 °C 59 % 86 % 1004,4 hPa 0,0 l/m² 7,9 km/h (2 Bft) S 173 ° 0 min 0 W/m² 12,6 °C 14,1 °C 9,7 km/h (2 Bft)
25.09.2024 01:12 22,1 °C 14,9 °C 59 % 86 % 1004,4 hPa 0,0 l/m² 7,3 km/h (2 Bft) S 177 ° 0 min 0 W/m² 12,6 °C 14,4 °C 9,7 km/h (2 Bft)
25.09.2024 01:13 22,1 °C 14,9 °C 59 % 86 % 1004,4 hPa 0,0 l/m² 7,0 km/h (2 Bft) S 189 ° 0 min 0 W/m² 12,6 °C 14,6 °C 11,3 km/h (2 Bft)
25.09.2024 01:15 22,1 °C 14,9 °C 59 % 86 % 1004,5 hPa 0,0 l/m² 7,3 km/h (2 Bft) S-SO 167 ° 0 min 0 W/m² 12,6 °C 14,4 °C 9,7 km/h (2 Bft)
25.09.2024 01:17 22,1 °C 14,9 °C 59 % 86 % 1004,4 hPa 0,0 l/m² 4,3 km/h (1 Bft) S 178 ° 0 min 0 W/m² 12,6 °C 14,9 °C 8,0 km/h (2 Bft)
25.09.2024 01:19 22,1 °C 14,9 °C 59 % 86 % 1004,4 hPa 0,0 l/m² 6,1 km/h (2 Bft) S 184 ° 0 min 0 W/m² 12,6 °C 14,9 °C 9,7 km/h (2 Bft)
25.09.2024 01:21 22,1 °C 14,9 °C 59 % 86 % 1004,4 hPa 0,0 l/m² 5,4 km/h (2 Bft) S 173 ° 0 min 0 W/m² 12,6 °C 14,9 °C 8,0 km/h (2 Bft)
25.09.2024 01:22 22,1 °C 14,9 °C 59 % 86 % 1004,4 hPa 0,0 l/m² 5,6 km/h (2 Bft) S 169 ° 0 min 0 W/m² 12,6 °C 14,9 °C 9,7 km/h (2 Bft)
25.09.2024 01:23 22,1 °C 14,9 °C 59 % 86 % 1004,4 hPa 0,0 l/m² 7,8 km/h (2 Bft) S 180 ° 0 min 0 W/m² 12,6 °C 14,1 °C 11,3 km/h (2 Bft)
25.09.2024 01:25 22,1 °C 14,9 °C 59 % 86 % 1004,3 hPa 0,0 l/m² 6,8 km/h (2 Bft) S 169 ° 0 min 0 W/m² 12,6 °C 14,7 °C 8,0 km/h (2 Bft)
25.09.2024 01:27 22,1 °C 14,9 °C 59 % 86 % 1004,4 hPa 0,0 l/m² 5,9 km/h (2 Bft) S 174 ° 0 min 0 W/m² 12,6 °C 14,9 °C 8,0 km/h (2 Bft)
25.09.2024 01:29 22,1 °C 14,9 °C 59 % 86 % 1004,3 hPa 0,0 l/m² 5,6 km/h (2 Bft) S 176 ° 0 min 0 W/m² 12,6 °C 14,9 °C 9,7 km/h (2 Bft)
25.09.2024 01:31 22,1 °C 14,9 °C 59 % 86 % 1004,4 hPa 0,0 l/m² 5,4 km/h (2 Bft) S 186 ° 0 min 0 W/m² 12,6 °C 14,9 °C 9,7 km/h (2 Bft)
25.09.2024 01:32 22,1 °C 14,9 °C 59 % 86 % 1004,4 hPa 0,0 l/m² 8,0 km/h (2 Bft) S-SO 163 ° 0 min 0 W/m² 12,6 °C 14,0 °C 11,3 km/h (2 Bft)
25.09.2024 01:33 22,1 °C 14,9 °C 59 % 86 % 1004,4 hPa 0,0 l/m² 9,2 km/h (2 Bft) S 176 ° 0 min 0 W/m² 12,6 °C 13,4 °C 12,9 km/h (3 Bft)
25.09.2024 01:35 22,1 °C 14,9 °C 59 % 86 % 1004,3 hPa 0,0 l/m² 6,7 km/h (2 Bft) S 188 ° 0 min 0 W/m² 12,6 °C 14,7 °C 11,3 km/h (2 Bft)
25.09.2024 01:37 22,1 °C 15,0 °C 59 % 86 % 1004,3 hPa 0,0 l/m² 6,8 km/h (2 Bft) S 182 ° 0 min 0 W/m² 12,7 °C 14,8 °C 9,7 km/h (2 Bft)
25.09.2024 01:39 22,1 °C 15,0 °C 59 % 86 % 1004,4 hPa 0,0 l/m² 8,3 km/h (2 Bft) S 180 ° 0 min 0 W/m² 12,7 °C 13,9 °C 12,9 km/h (3 Bft)
25.09.2024 01:41 22,1 °C 15,0 °C 59 % 86 % 1004,4 hPa 0,0 l/m² 7,5 km/h (2 Bft) S 191 ° 0 min 0 W/m² 12,7 °C 14,4 °C 9,7 km/h (2 Bft)
25.09.2024 01:42 22,1 °C 15,0 °C 59 % 86 % 1004,3 hPa 0,0 l/m² 9,5 km/h (2 Bft) S 183 ° 0 min 0 W/m² 12,7 °C 13,3 °C 11,3 km/h (2 Bft)
25.09.2024 01:43 22,1 °C 15,0 °C 59 % 86 % 1004,4 hPa 0,0 l/m² 7,1 km/h (2 Bft) S-SW 202 ° 0 min 0 W/m² 12,7 °C 14,6 °C 9,7 km/h (2 Bft)
25.09.2024 01:45 22,1 °C 15,1 °C 59 % 86 % 1004,4 hPa 0,0 l/m² 6,4 km/h (2 Bft) S 190 ° 0 min 0 W/m² 12,8 °C 15,1 °C 9,7 km/h (2 Bft)
25.09.2024 01:47 22,1 °C 15,1 °C 59 % 86 % 1004,4 hPa 0,0 l/m² 9,0 km/h (2 Bft) S 190 ° 0 min 0 W/m² 12,8 °C 13,7 °C 11,3 km/h (2 Bft)
25.09.2024 01:49 22,1 °C 15,1 °C 59 % 86 % 1004,4 hPa 0,0 l/m² 9,4 km/h (2 Bft) S-SW 192 ° 0 min 0 W/m² 12,8 °C 13,5 °C 14,5 km/h (3 Bft)
25.09.2024 01:51 22,1 °C 15,1 °C 59 % 85 % 1004,4 hPa 0,0 l/m² 11,8 km/h (2 Bft) S 191 ° 0 min 0 W/m² 12,6 °C 12,5 °C 17,7 km/h (3 Bft)
25.09.2024 01:52 22,1 °C 15,1 °C 59 % 85 % 1004,4 hPa 0,0 l/m² 9,1 km/h (2 Bft) S-SW 194 ° 0 min 0 W/m² 12,6 °C 13,6 °C 11,3 km/h (2 Bft)
25.09.2024 01:53 22,1 °C 15,2 °C 59 % 86 % 1004,4 hPa 0,0 l/m² 9,3 km/h (2 Bft) S-SW 208 ° 0 min 0 W/m² 12,9 °C 13,7 °C 11,3 km/h (2 Bft)
25.09.2024 01:55 22,1 °C 15,1 °C 59 % 85 % 1004,4 hPa 0,0 l/m² 11,2 km/h (2 Bft) S-SW 196 ° 0 min 0 W/m² 12,6 °C 12,7 °C 14,5 km/h (3 Bft)
25.09.2024 01:57 22,1 °C 15,2 °C 59 % 85 % 1004,4 hPa 0,0 l/m² 11,1 km/h (2 Bft) S 189 ° 0 min 0 W/m² 12,7 °C 12,9 °C 14,5 km/h (3 Bft)
25.09.2024 01:59 22,1 °C 15,2 °C 59 % 85 % 1004,4 hPa 0,0 l/m² 9,6 km/h (2 Bft) S-SW 207 ° 0 min 0 W/m² 12,7 °C 13,5 °C 12,9 km/h (3 Bft)
25.09.2024 02:01 22,1 °C 15,2 °C 59 % 85 % 1004,4 hPa 0,0 l/m² 11,5 km/h (2 Bft) S-SW 201 ° 0 min 0 W/m² 12,7 °C 12,7 °C 16,1 km/h (3 Bft)
25.09.2024 02:02 22,1 °C 15,2 °C 59 % 85 % 1004,4 hPa 0,0 l/m² 14,7 km/h (3 Bft) S-SW 204 ° 0 min 0 W/m² 12,7 °C 11,5 °C 17,7 km/h (3 Bft)
25.09.2024 02:03 22,1 °C 15,2 °C 59 % 85 % 1004,4 hPa 0,0 l/m² 13,0 km/h (3 Bft) S-SW 205 ° 0 min 0 W/m² 12,7 °C 12,1 °C 16,1 km/h (3 Bft)
25.09.2024 02:05 22,1 °C 15,2 °C 59 % 85 % 1004,4 hPa 0,0 l/m² 12,3 km/h (2 Bft) SW 225 ° 0 min 0 W/m² 12,7 °C 12,4 °C 16,1 km/h (3 Bft)
25.09.2024 02:07 22,1 °C 15,3 °C 59 % 85 % 1004,4 hPa 0,0 l/m² 11,8 km/h (2 Bft) S-SW 209 ° 0 min 0 W/m² 12,8 °C 12,7 °C 16,1 km/h (3 Bft)
25.09.2024 02:09 22,1 °C 15,3 °C 59 % 85 % 1004,5 hPa 0,0 l/m² 10,8 km/h (2 Bft) SW 216 ° 0 min 0 W/m² 12,8 °C 13,1 °C 17,7 km/h (3 Bft)
25.09.2024 02:11 22,1 °C 15,3 °C 59 % 85 % 1004,5 hPa 0,0 l/m² 14,9 km/h (3 Bft) S-SW 211 ° 0 min 0 W/m² 12,8 °C 11,6 °C 19,3 km/h (3 Bft)
25.09.2024 02:12 22,1 °C 15,3 °C 59 % 85 % 1004,5 hPa 0,0 l/m² 13,0 km/h (3 Bft) S-SW 206 ° 0 min 0 W/m² 12,8 °C 12,2 °C 16,1 km/h (3 Bft)
25.09.2024 02:13 22,1 °C 15,3 °C 59 % 85 % 1004,5 hPa 0,0 l/m² 9,1 km/h (2 Bft) S-SW 212 ° 0 min 0 W/m² 12,8 °C 13,9 °C 11,3 km/h (2 Bft)
25.09.2024 02:15 22,1 °C 15,3 °C 59 % 85 % 1004,5 hPa 0,0 l/m² 12,0 km/h (2 Bft) SW 219 ° 0 min 0 W/m² 12,8 °C 12,6 °C 16,1 km/h (3 Bft)
25.09.2024 02:17 22,1 °C 15,3 °C 59 % 85 % 1004,5 hPa 0,0 l/m² 13,2 km/h (3 Bft) S-SW 209 ° 0 min 0 W/m² 12,8 °C 12,2 °C 19,3 km/h (3 Bft)
25.09.2024 02:19 22,1 °C 15,4 °C 59 % 85 % 1004,6 hPa 0,0 l/m² 12,0 km/h (2 Bft) S-SW 198 ° 0 min 0 W/m² 12,9 °C 12,7 °C 16,1 km/h (3 Bft)
25.09.2024 02:21 22,1 °C 15,4 °C 59 % 85 % 1004,5 hPa 0,0 l/m² 14,0 km/h (3 Bft) SW 215 ° 0 min 0 W/m² 12,9 °C 12,0 °C 19,3 km/h (3 Bft)
25.09.2024 02:22 22,1 °C 15,3 °C 59 % 85 % 1004,4 hPa 0,0 l/m² 16,5 km/h (3 Bft) S-SW 211 ° 0 min 0 W/m² 12,8 °C 11,1 °C 19,3 km/h (3 Bft)
25.09.2024 02:23 22,1 °C 15,4 °C 59 % 85 % 1004,4 hPa 0,0 l/m² 13,9 km/h (3 Bft) S-SW 204 ° 0 min 0 W/m² 12,9 °C 12,0 °C 16,1 km/h (3 Bft)
25.09.2024 02:25 22,1 °C 15,4 °C 59 % 85 % 1004,4 hPa 0,0 l/m² 16,3 km/h (3 Bft) S-SW 211 ° 0 min 0 W/m² 12,9 °C 11,3 °C 24,1 km/h (4 Bft)
25.09.2024 02:27 22,1 °C 15,4 °C 59 % 85 % 1004,4 hPa 0,0 l/m² 15,2 km/h (3 Bft) SW 220 ° 0 min 0 W/m² 12,9 °C 11,6 °C 20,9 km/h (4 Bft)
25.09.2024 02:29 22,1 °C 15,4 °C 59 % 85 % 1004,5 hPa 0,0 l/m² 13,7 km/h (3 Bft) SW 224 ° 0 min 0 W/m² 12,9 °C 12,1 °C 17,7 km/h (3 Bft)
25.09.2024 02:31 22,1 °C 15,4 °C 59 % 85 % 1004,4 hPa 0,0 l/m² 12,5 km/h (2 Bft) S-SW 213 ° 0 min 0 W/m² 12,9 °C 12,5 °C 17,7 km/h (3 Bft)
25.09.2024 02:32 22,1 °C 15,4 °C 59 % 85 % 1004,5 hPa 0,0 l/m² 10,3 km/h (2 Bft) SW 222 ° 0 min 0 W/m² 12,9 °C 13,4 °C 12,9 km/h (3 Bft)
25.09.2024 02:33 22,1 °C 15,4 °C 59 % 85 % 1004,5 hPa 0,0 l/m² 12,8 km/h (3 Bft) S-SW 213 ° 0 min 0 W/m² 12,9 °C 12,4 °C 16,1 km/h (3 Bft)
25.09.2024 02:35 22,1 °C 15,4 °C 59 % 85 % 1004,5 hPa 0,0 l/m² 15,8 km/h (3 Bft) SW 216 ° 0 min 0 W/m² 12,9 °C 11,4 °C 27,4 km/h (5 Bft)
25.09.2024 02:37 22,1 °C 15,4 °C 59 % 85 % 1004,5 hPa 0,0 l/m² 16,2 km/h (3 Bft) S-SW 211 ° 0 min 0 W/m² 12,9 °C 11,3 °C 19,3 km/h (3 Bft)
25.09.2024 02:39 22,1 °C 15,4 °C 59 % 85 % 1004,5 hPa 0,0 l/m² 14,0 km/h (3 Bft) SW 214 ° 0 min 0 W/m² 12,9 °C 12,0 °C 24,1 km/h (4 Bft)
25.09.2024 02:41 22,1 °C 15,4 °C 59 % 85 % 1004,5 hPa 0,0 l/m² 17,6 km/h (3 Bft) S-SW 211 ° 0 min 0 W/m² 12,9 °C 10,9 °C 22,5 km/h (4 Bft)
25.09.2024 02:42 22,1 °C 15,4 °C 59 % 85 % 1004,5 hPa 0,0 l/m² 16,3 km/h (3 Bft) SW 215 ° 0 min 0 W/m² 12,9 °C 11,3 °C 19,3 km/h (3 Bft)
25.09.2024 02:43 22,1 °C 15,4 °C 59 % 85 % 1004,5 hPa 0,0 l/m² 12,2 km/h (2 Bft) SW 217 ° 0 min 0 W/m² 12,9 °C 12,7 °C 14,5 km/h (3 Bft)
25.09.2024 02:44 22,1 °C 15,4 °C 59 % 85 % 1004,5 hPa 0,0 l/m² 12,1 km/h (2 Bft) S-SW 213 ° 0 min 0 W/m² 12,9 °C 12,7 °C 16,1 km/h (3 Bft)
25.09.2024 02:46 22,1 °C 15,4 °C 59 % 85 % 1004,6 hPa 0,0 l/m² 15,1 km/h (3 Bft) S-SW 209 ° 0 min 0 W/m² 12,9 °C 11,6 °C 22,5 km/h (4 Bft)
25.09.2024 02:48 22,1 °C 15,4 °C 59 % 85 % 1004,6 hPa 0,0 l/m² 13,1 km/h (3 Bft) SW 221 ° 0 min 0 W/m² 12,9 °C 12,3 °C 17,7 km/h (3 Bft)
25.09.2024 02:50 22,1 °C 15,4 °C 59 % 85 % 1004,6 hPa 0,0 l/m² 17,1 km/h (3 Bft) SW 230 ° 0 min 0 W/m² 12,9 °C 11,0 °C 20,9 km/h (4 Bft)
25.09.2024 02:51 22,1 °C 15,4 °C 59 % 85 % 1004,6 hPa 0,0 l/m² 16,8 km/h (3 Bft) SW 219 ° 0 min 0 W/m² 12,9 °C 11,1 °C 20,9 km/h (4 Bft)
25.09.2024 02:53 22,1 °C 15,4 °C 59 % 85 % 1004,6 hPa 0,0 l/m² 14,5 km/h (3 Bft) S-SW 209 ° 0 min 0 W/m² 12,9 °C 11,8 °C 20,9 km/h (4 Bft)
25.09.2024 02:54 22,1 °C 15,4 °C 59 % 85 % 1004,6 hPa 0,0 l/m² 17,6 km/h (3 Bft) SW 219 ° 0 min 0 W/m² 12,9 °C 10,9 °C 24,1 km/h (4 Bft)
25.09.2024 02:56 22,1 °C 15,4 °C 59 % 85 % 1004,6 hPa 0,0 l/m² 15,2 km/h (3 Bft) S-SW 211 ° 0 min 0 W/m² 12,9 °C 11,6 °C 20,9 km/h (4 Bft)
25.09.2024 02:58 22,1 °C 15,4 °C 59 % 85 % 1004,6 hPa 0,0 l/m² 13,6 km/h (3 Bft) SW 233 ° 0 min 0 W/m² 12,9 °C 12,1 °C 16,1 km/h (3 Bft)
25.09.2024 03:00 22,1 °C 15,4 °C 59 % 85 % 1004,6 hPa 0,0 l/m² 13,1 km/h (3 Bft) S-SW 200 ° 0 min 0 W/m² 12,9 °C 12,3 °C 19,3 km/h (3 Bft)
25.09.2024 03:01 22,1 °C 15,4 °C 59 % 85 % 1004,6 hPa 0,0 l/m² 19,3 km/h (3 Bft) SW 225 ° 0 min 0 W/m² 12,9 °C 10,4 °C 24,1 km/h (4 Bft)
25.09.2024 03:07 22,1 °C 15,4 °C 59 % 86 % 1004,7 hPa 0,0 l/m² 14,3 km/h (3 Bft) SW 233 ° 0 min 0 W/m² 13,1 °C 11,9 °C 17,7 km/h (3 Bft)
25.09.2024 03:09 22,1 °C 15,4 °C 59 % 86 % 1004,7 hPa 0,0 l/m² 14,3 km/h (3 Bft) S-SW 192 ° 0 min 0 W/m² 13,1 °C 11,9 °C 19,3 km/h (3 Bft)
25.09.2024 03:10 22,1 °C 15,4 °C 59 % 86 % 1004,7 hPa 0,0 l/m² 14,3 km/h (3 Bft) SW 216 ° 0 min 0 W/m² 13,1 °C 11,9 °C 16,1 km/h (3 Bft)
25.09.2024 03:12 22,1 °C 15,4 °C 59 % 86 % 1004,8 hPa 0,0 l/m² 13,3 km/h (3 Bft) SW 215 ° 0 min 0 W/m² 13,1 °C 12,3 °C 19,3 km/h (3 Bft)
25.09.2024 03:13 22,1 °C 15,4 °C 59 % 86 % 1004,8 hPa 0,0 l/m² 12,3 km/h (2 Bft) S-SW 193 ° 0 min 0 W/m² 13,1 °C 12,6 °C 14,5 km/h (3 Bft)
25.09.2024 03:15 22,1 °C 15,4 °C 59 % 86 % 1004,8 hPa 0,0 l/m² 13,9 km/h (3 Bft) SW 221 ° 0 min 0 W/m² 13,1 °C 12,0 °C 17,7 km/h (3 Bft)
25.09.2024 03:17 22,0 °C 15,4 °C 59 % 86 % 1004,7 hPa 0,0 l/m² 10,8 km/h (2 Bft) S-SW 205 ° 0 min 0 W/m² 13,1 °C 13,2 °C 16,1 km/h (3 Bft)
25.09.2024 03:19 22,0 °C 15,4 °C 59 % 86 % 1004,8 hPa 0,0 l/m² 11,0 km/h (2 Bft) SW 216 ° 0 min 0 W/m² 13,1 °C 13,1 °C 19,3 km/h (3 Bft)
25.09.2024 03:20 22,1 °C 15,4 °C 59 % 86 % 1004,8 hPa 0,0 l/m² 13,9 km/h (3 Bft) SW 221 ° 0 min 0 W/m² 13,1 °C 12,0 °C 20,9 km/h (4 Bft)
25.09.2024 03:21 22,1 °C 15,4 °C 59 % 86 % 1004,7 hPa 0,0 l/m² 8,6 km/h (2 Bft) SW 218 ° 0 min 0 W/m² 13,1 °C 14,2 °C 11,3 km/h (2 Bft)
25.09.2024 03:22 22,1 °C 15,4 °C 59 % 86 % 1004,7 hPa 0,0 l/m² 6,3 km/h (2 Bft) S-SW 202 ° 0 min 0 W/m² 13,1 °C 15,4 °C 8,0 km/h (2 Bft)
25.09.2024 03:24 22,1 °C 15,4 °C 59 % 86 % 1004,8 hPa 0,0 l/m² 12,1 km/h (2 Bft) S-SW 209 ° 0 min 0 W/m² 13,1 °C 12,7 °C 19,3 km/h (3 Bft)
25.09.2024 03:26 22,0 °C 15,4 °C 59 % 86 % 1004,7 hPa 0,0 l/m² 9,8 km/h (2 Bft) S-SW 200 ° 0 min 0 W/m² 13,1 °C 13,6 °C 14,5 km/h (3 Bft)
25.09.2024 03:28 22,1 °C 15,3 °C 59 % 86 % 1004,8 hPa 0,0 l/m² 7,5 km/h (2 Bft) S 190 ° 0 min 0 W/m² 13,0 °C 14,7 °C 14,5 km/h (3 Bft)
25.09.2024 03:30 22,1 °C 15,3 °C 59 % 86 % 1004,7 hPa 0,0 l/m² 9,1 km/h (2 Bft) SW 217 ° 0 min 0 W/m² 13,0 °C 13,9 °C 11,3 km/h (2 Bft)
25.09.2024 03:31 22,1 °C 15,3 °C 59 % 86 % 1004,7 hPa 0,0 l/m² 8,9 km/h (2 Bft) SW 214 ° 0 min 0 W/m² 13,0 °C 14,0 °C 11,3 km/h (2 Bft)
25.09.2024 03:32 22,1 °C 15,3 °C 59 % 86 % 1004,7 hPa 0,0 l/m² 7,1 km/h (2 Bft) SW 225 ° 0 min 0 W/m² 13,0 °C 14,9 °C 8,0 km/h (2 Bft)
25.09.2024 03:34 22,1 °C 15,3 °C 59 % 86 % 1004,7 hPa 0,0 l/m² 8,2 km/h (2 Bft) S 182 ° 0 min 0 W/m² 13,0 °C 14,3 °C 11,3 km/h (2 Bft)
25.09.2024 03:36 22,0 °C 15,3 °C 59 % 86 % 1004,7 hPa 0,0 l/m² 9,4 km/h (2 Bft) SW 227 ° 0 min 0 W/m² 13,0 °C 13,7 °C 12,9 km/h (3 Bft)
25.09.2024 03:38 22,0 °C 15,3 °C 59 % 86 % 1004,8 hPa 0,0 l/m² 9,2 km/h (2 Bft) S-SW 208 ° 0 min 0 W/m² 13,0 °C 13,8 °C 12,9 km/h (3 Bft)
25.09.2024 03:40 22,0 °C 15,2 °C 59 % 87 % 1004,8 hPa 0,0 l/m² 8,2 km/h (2 Bft) SW 215 ° 0 min 0 W/m² 13,0 °C 14,2 °C 12,9 km/h (3 Bft)
25.09.2024 03:41 22,1 °C 15,2 °C 59 % 87 % 1004,8 hPa 0,0 l/m² 7,8 km/h (2 Bft) SW 221 ° 0 min 0 W/m² 13,0 °C 14,4 °C 11,3 km/h (2 Bft)
25.09.2024 03:42 22,0 °C 15,2 °C 59 % 87 % 1004,8 hPa 0,0 l/m² 8,2 km/h (2 Bft) SW 217 ° 0 min 0 W/m² 13,0 °C 14,2 °C 9,7 km/h (2 Bft)
25.09.2024 03:44 22,1 °C 15,2 °C 59 % 87 % 1004,8 hPa 0,0 l/m² 8,4 km/h (2 Bft) S-SW 209 ° 0 min 0 W/m² 13,0 °C 14,1 °C 12,9 km/h (3 Bft)
25.09.2024 03:46 22,0 °C 15,2 °C 59 % 87 % 1004,9 hPa 0,0 l/m² 9,9 km/h (2 Bft) SW 225 ° 0 min 0 W/m² 13,0 °C 13,4 °C 12,9 km/h (3 Bft)
25.09.2024 03:47 22,0 °C 15,2 °C 59 % 87 % 1004,9 hPa 0,0 l/m² 8,5 km/h (2 Bft) SW 217 ° 0 min 0 W/m² 13,0 °C 14,1 °C 9,7 km/h (2 Bft)
25.09.2024 03:49 22,0 °C 15,1 °C 59 % 87 % 1004,9 hPa 0,0 l/m² 11,0 km/h (2 Bft) SW 217 ° 0 min 0 W/m² 13,0 °C 12,8 °C 16,1 km/h (3 Bft)
25.09.2024 03:50 22,0 °C 15,1 °C 59 % 87 % 1004,9 hPa 0,0 l/m² 10,6 km/h (2 Bft) S-SW 207 ° 0 min 0 W/m² 13,0 °C 13,0 °C 12,9 km/h (3 Bft)
25.09.2024 03:52 22,0 °C 15,1 °C 59 % 87 % 1004,9 hPa 0,0 l/m² 11,3 km/h (2 Bft) S-SW 209 ° 0 min 0 W/m² 13,0 °C 12,7 °C 16,1 km/h (3 Bft)
25.09.2024 03:53 22,0 °C 15,1 °C 59 % 87 % 1004,9 hPa 0,0 l/m² 8,5 km/h (2 Bft) SW 220 ° 0 min 0 W/m² 13,0 °C 13,9 °C 11,3 km/h (2 Bft)
25.09.2024 03:55 22,0 °C 15,1 °C 59 % 87 % 1004,9 hPa 0,0 l/m² 6,5 km/h (2 Bft) S-SW 209 ° 0 min 0 W/m² 13,0 °C 15,1 °C 9,7 km/h (2 Bft)
25.09.2024 03:57 22,0 °C 15,0 °C 59 % 87 % 1004,9 hPa 0,0 l/m² 8,4 km/h (2 Bft) S-SW 202 ° 0 min 0 W/m² 12,9 °C 13,9 °C 11,3 km/h (2 Bft)
25.09.2024 03:59 22,0 °C 15,0 °C 59 % 87 % 1004,9 hPa 0,0 l/m² 7,1 km/h (2 Bft) S-SW 204 ° 0 min 0 W/m² 12,9 °C 14,6 °C 12,9 km/h (3 Bft)
25.09.2024 04:00 22,0 °C 14,9 °C 59 % 87 % 1004,9 hPa 0,0 l/m² 9,5 km/h (2 Bft) S-SW 208 ° 0 min 0 W/m² 12,8 °C 13,2 °C 11,3 km/h (2 Bft)
25.09.2024 04:02 22,0 °C 14,9 °C 59 % 87 % 1004,9 hPa 0,0 l/m² 11,1 km/h (2 Bft) S-SW 212 ° 0 min 0 W/m² 12,8 °C 12,5 °C 14,5 km/h (3 Bft)
25.09.2024 04:04 22,0 °C 14,9 °C 59 % 87 % 1004,8 hPa 0,0 l/m² 11,3 km/h (2 Bft) S-SW 211 ° 0 min 0 W/m² 12,8 °C 12,4 °C 16,1 km/h (3 Bft)
25.09.2024 04:06 22,0 °C 14,8 °C 59 % 88 % 1004,9 hPa 0,0 l/m² 8,7 km/h (2 Bft) S-SW 194 ° 0 min 0 W/m² 12,8 °C 13,5 °C 12,9 km/h (3 Bft)
25.09.2024 04:08 22,0 °C 14,8 °C 59 % 88 % 1004,8 hPa 0,0 l/m² 12,6 km/h (3 Bft) S-SW 200 ° 0 min 0 W/m² 12,8 °C 11,8 °C 16,1 km/h (3 Bft)
25.09.2024 04:10 22,0 °C 14,9 °C 59 % 88 % 1004,9 hPa 0,0 l/m² 11,2 km/h (2 Bft) S-SW 194 ° 0 min 0 W/m² 12,9 °C 12,5 °C 14,5 km/h (3 Bft)
25.09.2024 04:11 22,0 °C 14,8 °C 59 % 88 % 1004,8 hPa 0,0 l/m² 13,5 km/h (3 Bft) SW 214 ° 0 min 0 W/m² 12,8 °C 11,5 °C 17,7 km/h (3 Bft)
25.09.2024 04:12 22,0 °C 14,8 °C 59 % 88 % 1004,9 hPa 0,0 l/m² 14,9 km/h (3 Bft) SW 217 ° 0 min 0 W/m² 12,8 °C 11,0 °C 17,7 km/h (3 Bft)
25.09.2024 04:13 22,0 °C 14,8 °C 59 % 88 % 1004,9 hPa 0,0 l/m² 13,0 km/h (3 Bft) SW 221 ° 0 min 0 W/m² 12,8 °C 11,7 °C 16,1 km/h (3 Bft)
25.09.2024 04:14 22,0 °C 14,8 °C 59 % 88 % 1005,0 hPa 0,0 l/m² 12,5 km/h (2 Bft) SW 221 ° 0 min 0 W/m² 12,8 °C 11,8 °C 16,1 km/h (3 Bft)
25.09.2024 04:16 22,0 °C 14,8 °C 59 % 88 % 1004,9 hPa 0,0 l/m² 10,8 km/h (2 Bft) S-SW 213 ° 0 min 0 W/m² 12,8 °C 12,5 °C 14,5 km/h (3 Bft)
25.09.2024 04:18 22,0 °C 14,8 °C 59 % 88 % 1005,0 hPa 0,0 l/m² 14,7 km/h (3 Bft) SW 221 ° 0 min 0 W/m² 12,8 °C 11,1 °C 19,3 km/h (3 Bft)
25.09.2024 04:20 22,0 °C 14,8 °C 59 % 88 % 1005,1 hPa 0,0 l/m² 10,9 km/h (2 Bft) S-SW 208 ° 0 min 0 W/m² 12,8 °C 12,5 °C 16,1 km/h (3 Bft)
25.09.2024 04:21 22,0 °C 14,8 °C 59 % 88 % 1005,0 hPa 0,0 l/m² 11,7 km/h (2 Bft) S-SW 213 ° 0 min 0 W/m² 12,8 °C 12,2 °C 16,1 km/h (3 Bft)
25.09.2024 04:22 22,0 °C 14,8 °C 59 % 88 % 1005,1 hPa 0,0 l/m² 13,9 km/h (3 Bft) SW 214 ° 0 min 0 W/m² 12,8 °C 11,3 °C 19,3 km/h (3 Bft)
25.09.2024 04:23 22,0 °C 14,8 °C 59 % 88 % 1005,1 hPa 0,0 l/m² 12,4 km/h (2 Bft) SW 214 ° 0 min 0 W/m² 12,8 °C 11,9 °C 16,1 km/h (3 Bft)
25.09.2024 04:24 22,0 °C 14,8 °C 59 % 88 % 1005,1 hPa 0,0 l/m² 12,5 km/h (2 Bft) SW 234 ° 0 min 0 W/m² 12,8 °C 11,8 °C 17,7 km/h (3 Bft)
25.09.2024 04:26 21,9 °C 14,8 °C 59 % 88 % 1005,2 hPa 0,0 l/m² 13,1 km/h (3 Bft) SW 215 ° 0 min 0 W/m² 12,8 °C 11,6 °C 19,3 km/h (3 Bft)
25.09.2024 04:28 21,9 °C 14,8 °C 59 % 88 % 1005,2 hPa 0,0 l/m² 12,0 km/h (2 Bft) S-SW 210 ° 0 min 0 W/m² 12,8 °C 12,0 °C 14,5 km/h (3 Bft)
25.09.2024 04:30 22,0 °C 14,8 °C 59 % 88 % 1005,2 hPa 0,0 l/m² 14,8 km/h (3 Bft) S-SW 197 ° 0 min 0 W/m² 12,8 °C 11,0 °C 22,5 km/h (4 Bft)
25.09.2024 04:31 21,9 °C 14,8 °C 59 % 88 % 1005,2 hPa 0,0 l/m² 13,8 km/h (3 Bft) S-SW 211 ° 0 min 0 W/m² 12,8 °C 11,4 °C 16,1 km/h (3 Bft)
25.09.2024 04:33 21,9 °C 14,8 °C 59 % 88 % 1005,2 hPa 0,0 l/m² 12,5 km/h (2 Bft) S-SW 205 ° 0 min 0 W/m² 12,8 °C 11,8 °C 17,7 km/h (3 Bft)
25.09.2024 04:35 22,0 °C 14,8 °C 59 % 88 % 1005,3 hPa 0,0 l/m² 12,1 km/h (2 Bft) SW 229 ° 0 min 0 W/m² 12,8 °C 12,0 °C 14,5 km/h (3 Bft)
25.09.2024 04:37 21,9 °C 14,9 °C 59 % 88 % 1005,3 hPa 0,0 l/m² 11,0 km/h (2 Bft) SW 219 ° 0 min 0 W/m² 12,9 °C 12,6 °C 14,5 km/h (3 Bft)
25.09.2024 04:39 22,0 °C 14,8 °C 59 % 88 % 1005,2 hPa 0,0 l/m² 12,9 km/h (3 Bft) S-SW 199 ° 0 min 0 W/m² 12,8 °C 11,7 °C 17,7 km/h (3 Bft)
25.09.2024 04:40 21,9 °C 14,9 °C 59 % 88 % 1005,3 hPa 0,0 l/m² 13,3 km/h (3 Bft) SW 214 ° 0 min 0 W/m² 12,9 °C 11,7 °C 16,1 km/h (3 Bft)
25.09.2024 04:42 22,0 °C 14,9 °C 59 % 88 % 1005,3 hPa 0,0 l/m² 12,1 km/h (2 Bft) SW 214 ° 0 min 0 W/m² 12,9 °C 12,1 °C 14,5 km/h (3 Bft)
25.09.2024 04:44 21,9 °C 14,9 °C 59 % 88 % 1005,4 hPa 0,0 l/m² 13,0 km/h (3 Bft) S-SW 213 ° 0 min 0 W/m² 12,9 °C 11,8 °C 17,7 km/h (3 Bft)
25.09.2024 04:46 21,9 °C 14,9 °C 59 % 88 % 1005,4 hPa 0,0 l/m² 13,5 km/h (3 Bft) SW 222 ° 0 min 0 W/m² 12,9 °C 11,6 °C 22,5 km/h (4 Bft)
25.09.2024 04:48 21,9 °C 14,9 °C 59 % 88 % 1005,5 hPa 0,0 l/m² 10,9 km/h (2 Bft) SW 225 ° 0 min 0 W/m² 12,9 °C 12,6 °C 17,7 km/h (3 Bft)
25.09.2024 04:50 22,0 °C 15,0 °C 59 % 88 % 1005,5 hPa 0,0 l/m² 8,5 km/h (2 Bft) SW 221 ° 0 min 0 W/m² 13,0 °C 13,8 °C 12,9 km/h (3 Bft)
25.09.2024 04:51 21,9 °C 15,0 °C 59 % 88 % 1005,6 hPa 0,0 l/m² 7,4 km/h (2 Bft) SW 224 ° 0 min 0 W/m² 13,0 °C 14,4 °C 9,7 km/h (2 Bft)
25.09.2024 04:52 21,9 °C 15,0 °C 59 % 88 % 1005,6 hPa 0,0 l/m² 8,2 km/h (2 Bft) S 188 ° 0 min 0 W/m² 13,0 °C 14,0 °C 11,3 km/h (2 Bft)
25.09.2024 04:53 21,9 °C 15,0 °C 59 % 88 % 1005,6 hPa 0,0 l/m² 6,4 km/h (2 Bft) S-SW 210 ° 0 min 0 W/m² 13,0 °C 15,0 °C 9,7 km/h (2 Bft)
25.09.2024 04:55 22,0 °C 15,0 °C 59 % 88 % 1005,5 hPa 0,0 l/m² 4,4 km/h (1 Bft) SW 235 ° 0 min 0 W/m² 13,0 °C 15,0 °C 6,4 km/h (2 Bft)
25.09.2024 04:57 21,9 °C 15,0 °C 59 % 88 % 1005,6 hPa 0,0 l/m² 3,4 km/h (1 Bft) SW 225 ° 0 min 0 W/m² 13,0 °C 15,0 °C 8,0 km/h (2 Bft)
25.09.2024 04:59 22,0 °C 15,1 °C 59 % 88 % 1005,6 hPa 0,0 l/m² 3,2 km/h (1 Bft) S-SW 207 ° 0 min 0 W/m² 13,1 °C 15,1 °C 6,4 km/h (2 Bft)
25.09.2024 05:00 22,0 °C 15,0 °C 59 % 88 % 1005,5 hPa 0,0 l/m² 5,4 km/h (2 Bft) SW 227 ° 0 min 0 W/m² 13,0 °C 15,0 °C 8,0 km/h (2 Bft)
25.09.2024 05:01 22,0 °C 15,0 °C 59 % 88 % 1005,5 hPa 0,0 l/m² 3,8 km/h (1 Bft) W-SW 255 ° 0 min 0 W/m² 13,0 °C 15,0 °C 8,0 km/h (2 Bft)
25.09.2024 05:02 22,0 °C 15,0 °C 59 % 88 % 1005,5 hPa 0,0 l/m² 0,0 km/h (0 Bft) W-SW 255 ° 0 min 0 W/m² 13,0 °C 15,0 °C 0,0 km/h (0 Bft)
25.09.2024 05:03 22,0 °C 15,0 °C 59 % 88 % 1005,5 hPa 0,0 l/m² 0,0 km/h (0 Bft) W-SW 255 ° 0 min 0 W/m² 13,0 °C 15,0 °C 0,0 km/h (0 Bft)
25.09.2024 05:04 22,0 °C 15,0 °C 59 % 88 % 1005,5 hPa 0,0 l/m² 1,5 km/h (1 Bft) W-SW 255 ° 0 min 0 W/m² 13,0 °C 15,0 °C 3,2 km/h (1 Bft)
25.09.2024 05:05 22,0 °C 15,0 °C 59 % 88 % 1005,4 hPa 0,0 l/m² 3,4 km/h (1 Bft) S-SW 199 ° 0 min 0 W/m² 13,0 °C 15,0 °C 4,8 km/h (1 Bft)
25.09.2024 05:06 22,0 °C 15,0 °C 59 % 88 % 1005,4 hPa 0,0 l/m² 2,4 km/h (1 Bft) S-SW 199 ° 0 min 0 W/m² 13,0 °C 15,0 °C 4,8 km/h (1 Bft)
25.09.2024 05:07 22,0 °C 15,0 °C 59 % 88 % 1005,4 hPa 0,0 l/m² 1,3 km/h (1 Bft) S-SW 199 ° 0 min 0 W/m² 13,0 °C 15,0 °C 3,2 km/h (1 Bft)
25.09.2024 05:08 22,0 °C 15,0 °C 59 % 88 % 1005,5 hPa 0,0 l/m² 1,5 km/h (1 Bft) S-SW 199 ° 0 min 0 W/m² 13,0 °C 15,0 °C 3,2 km/h (1 Bft)
25.09.2024 05:09 22,0 °C 15,0 °C 59 % 88 % 1005,5 hPa 0,0 l/m² 1,1 km/h (1 Bft) S-SW 199 ° 0 min 0 W/m² 13,0 °C 15,0 °C 1,6 km/h (1 Bft)
25.09.2024 05:11 22,0 °C 14,9 °C 59 % 88 % 1005,6 hPa 0,0 l/m² 0,3 km/h (0 Bft) S-SW 199 ° 0 min 0 W/m² 12,9 °C 14,9 °C 3,2 km/h (1 Bft)
25.09.2024 05:13 22,0 °C 14,9 °C 59 % 88 % 1005,6 hPa 0,0 l/m² 0,3 km/h (0 Bft) S-SW 199 ° 0 min 0 W/m² 12,9 °C 14,9 °C 1,6 km/h (1 Bft)
25.09.2024 05:14 22,0 °C 14,9 °C 59 % 88 % 1005,6 hPa 0,0 l/m² 0,1 km/h (0 Bft) S-SW 199 ° 0 min 0 W/m² 12,9 °C 14,9 °C 1,6 km/h (1 Bft)
25.09.2024 05:15 22,0 °C 14,9 °C 59 % 88 % 1005,6 hPa 0,0 l/m² 0,0 km/h (0 Bft) S-SW 199 ° 0 min 0 W/m² 12,9 °C 14,9 °C 0,0 km/h (0 Bft)
25.09.2024 05:16 22,0 °C 14,8 °C 59 % 88 % 1005,6 hPa 0,0 l/m² 0,0 km/h (0 Bft) S-SW 199 ° 0 min 0 W/m² 12,8 °C 14,8 °C 0,0 km/h (0 Bft)
25.09.2024 05:17 22,0 °C 14,8 °C 59 % 88 % 1005,6 hPa 0,0 l/m² 0,3 km/h (0 Bft) S-SW 200 ° 0 min 0 W/m² 12,8 °C 14,8 °C 3,2 km/h (1 Bft)
25.09.2024 05:18 22,0 °C 14,8 °C 59 % 88 % 1005,6 hPa 0,0 l/m² 2,5 km/h (1 Bft) S-SW 202 ° 0 min 0 W/m² 12,8 °C 14,8 °C 3,2 km/h (1 Bft)
25.09.2024 05:19 22,0 °C 14,8 °C 59 % 89 % 1005,6 hPa 0,0 l/m² 2,5 km/h (1 Bft) S-SW 206 ° 0 min 0 W/m² 13,0 °C 14,8 °C 3,2 km/h (1 Bft)
25.09.2024 05:20 22,0 °C 14,8 °C 59 % 89 % 1005,6 hPa 0,0 l/m² 1,1 km/h (1 Bft) S-SW 206 ° 0 min 0 W/m² 13,0 °C 14,8 °C 3,2 km/h (1 Bft)
25.09.2024 05:22 22,0 °C 14,9 °C 59 % 89 % 1005,7 hPa 0,0 l/m² 3,5 km/h (1 Bft) W-NW 297 ° 0 min 0 W/m² 13,1 °C 14,9 °C 8,0 km/h (2 Bft)
25.09.2024 05:24 22,0 °C 14,9 °C 59 % 89 % 1005,6 hPa 0,0 l/m² 6,6 km/h (2 Bft) NW 306 ° 0 min 0 W/m² 13,1 °C 14,8 °C 9,7 km/h (2 Bft)
25.09.2024 05:25 22,0 °C 14,9 °C 59 % 89 % 1005,6 hPa 0,0 l/m² 11,6 km/h (2 Bft) W 259 ° 0 min 0 W/m² 13,1 °C 12,3 °C 17,7 km/h (3 Bft)
25.09.2024 05:26 22,0 °C 14,9 °C 59 % 89 % 1005,6 hPa 0,0 l/m² 8,7 km/h (2 Bft) W-NW 291 ° 0 min 0 W/m² 13,1 °C 13,6 °C 14,5 km/h (3 Bft)
25.09.2024 05:27 22,0 °C 14,9 °C 59 % 89 % 1005,6 hPa 0,0 l/m² 7,4 km/h (2 Bft) W-NW 284 ° 0 min 0 W/m² 13,1 °C 14,3 °C 11,3 km/h (2 Bft)
25.09.2024 05:28 22,0 °C 14,9 °C 59 % 89 % 1005,6 hPa 0,0 l/m² 8,4 km/h (2 Bft) W 277 ° 0 min 0 W/m² 13,1 °C 13,8 °C 14,5 km/h (3 Bft)
25.09.2024 05:29 22,0 °C 15,0 °C 59 % 89 % 1005,6 hPa 0,0 l/m² 5,2 km/h (1 Bft) NW 319 ° 0 min 0 W/m² 13,2 °C 15,0 °C 11,3 km/h (2 Bft)
25.09.2024 05:30 22,0 °C 15,1 °C 59 % 88 % 1005,5 hPa 0,0 l/m² 3,0 km/h (1 Bft) SW 234 ° 0 min 0 W/m² 13,1 °C 15,1 °C 9,7 km/h (2 Bft)
25.09.2024 05:31 22,0 °C 15,1 °C 59 % 88 % 1005,6 hPa 0,0 l/m² 4,9 km/h (1 Bft) W-SW 248 ° 0 min 0 W/m² 13,1 °C 15,1 °C 8,0 km/h (2 Bft)
25.09.2024 05:32 22,0 °C 15,1 °C 59 % 88 % 1005,6 hPa 0,0 l/m² 3,7 km/h (1 Bft) W-SW 249 ° 0 min 0 W/m² 13,1 °C 15,1 °C 6,4 km/h (2 Bft)
25.09.2024 05:33 22,0 °C 15,1 °C 59 % 88 % 1005,6 hPa 0,0 l/m² 2,5 km/h (1 Bft) W-SW 248 ° 0 min 0 W/m² 13,1 °C 15,1 °C 4,8 km/h (1 Bft)
25.09.2024 05:34 21,9 °C 15,2 °C 59 % 88 % 1005,6 hPa 0,0 l/m² 5,0 km/h (1 Bft) SW 215 ° 0 min 0 W/m² 13,2 °C 15,2 °C 6,4 km/h (2 Bft)
25.09.2024 05:35 21,9 °C 15,2 °C 59 % 88 % 1005,6 hPa 0,0 l/m² 5,9 km/h (2 Bft) SW 227 ° 0 min 0 W/m² 13,2 °C 15,2 °C 8,0 km/h (2 Bft)
25.09.2024 05:36 22,0 °C 15,2 °C 59 % 88 % 1005,6 hPa 0,0 l/m² 6,4 km/h (2 Bft) SW 217 ° 0 min 0 W/m² 13,2 °C 15,2 °C 9,7 km/h (2 Bft)
25.09.2024 05:37 22,0 °C 15,2 °C 59 % 88 % 1005,5 hPa 0,0 l/m² 7,4 km/h (2 Bft) S-SW 204 ° 0 min 0 W/m² 13,2 °C 14,6 °C 8,0 km/h (2 Bft)
25.09.2024 05:38 22,0 °C 15,2 °C 59 % 88 % 1005,6 hPa 0,0 l/m² 8,2 km/h (2 Bft) SW 217 ° 0 min 0 W/m² 13,2 °C 14,2 °C 11,3 km/h (2 Bft)
25.09.2024 05:39 22,0 °C 15,2 °C 59 % 88 % 1005,6 hPa 0,0 l/m² 7,4 km/h (2 Bft) S-SW 213 ° 0 min 0 W/m² 13,2 °C 14,6 °C 9,7 km/h (2 Bft)
25.09.2024 05:40 21,9 °C 15,2 °C 59 % 88 % 1005,7 hPa 0,0 l/m² 9,7 km/h (2 Bft) SW 219 ° 0 min 0 W/m² 13,2 °C 13,5 °C 12,9 km/h (3 Bft)
25.09.2024 05:41 21,9 °C 15,2 °C 59 % 88 % 1005,7 hPa 0,0 l/m² 11,3 km/h (2 Bft) SW 215 ° 0 min 0 W/m² 13,2 °C 12,8 °C 14,5 km/h (3 Bft)
25.09.2024 05:42 22,0 °C 15,2 °C 59 % 88 % 1005,6 hPa 0,0 l/m² 7,4 km/h (2 Bft) S-SW 213 ° 0 min 0 W/m² 13,2 °C 14,6 °C 9,7 km/h (2 Bft)
25.09.2024 05:43 22,0 °C 15,2 °C 59 % 88 % 1005,6 hPa 0,0 l/m² 7,8 km/h (2 Bft) SW 221 ° 0 min 0 W/m² 13,2 °C 14,4 °C 11,3 km/h (2 Bft)
25.09.2024 05:44 22,0 °C 15,2 °C 59 % 88 % 1005,6 hPa 0,0 l/m² 8,7 km/h (2 Bft) SW 217 ° 0 min 0 W/m² 13,2 °C 14,0 °C 9,7 km/h (2 Bft)
25.09.2024 05:45 21,9 °C 15,2 °C 59 % 88 % 1005,6 hPa 0,0 l/m² 7,8 km/h (2 Bft) S-SW 204 ° 0 min 0 W/m² 13,2 °C 14,4 °C 11,3 km/h (2 Bft)
25.09.2024 05:46 21,9 °C 15,2 °C 59 % 88 % 1005,6 hPa 0,0 l/m² 10,4 km/h (2 Bft) S-SW 213 ° 0 min 0 W/m² 13,2 °C 13,2 °C 11,3 km/h (2 Bft)
25.09.2024 05:47 21,9 °C 15,2 °C 59 % 88 % 1005,6 hPa 0,0 l/m² 7,2 km/h (2 Bft) W-SW 238 ° 0 min 0 W/m² 13,2 °C 14,8 °C 9,7 km/h (2 Bft)
25.09.2024 05:48 21,9 °C 15,2 °C 59 % 88 % 1005,5 hPa 0,0 l/m² 7,2 km/h (2 Bft) S-SW 213 ° 0 min 0 W/m² 13,2 °C 14,8 °C 12,9 km/h (3 Bft)
25.09.2024 05:49 21,9 °C 15,1 °C 59 % 88 % 1005,5 hPa 0,0 l/m² 5,7 km/h (2 Bft) SW 215 ° 0 min 0 W/m² 13,1 °C 15,1 °C 8,0 km/h (2 Bft)
25.09.2024 05:50 21,9 °C 15,1 °C 59 % 88 % 1005,5 hPa 0,0 l/m² 6,0 km/h (2 Bft) SW 215 ° 0 min 0 W/m² 13,1 °C 15,1 °C 8,0 km/h (2 Bft)
25.09.2024 05:51 21,9 °C 15,2 °C 59 % 88 % 1005,6 hPa 0,0 l/m² 7,8 km/h (2 Bft) SW 226 ° 0 min 0 W/m² 13,2 °C 14,4 °C 11,3 km/h (2 Bft)
25.09.2024 05:52 21,9 °C 15,1 °C 59 % 88 % 1005,6 hPa 0,0 l/m² 8,6 km/h (2 Bft) SW 217 ° 0 min 0 W/m² 13,1 °C 13,9 °C 11,3 km/h (2 Bft)
25.09.2024 05:53 21,9 °C 15,1 °C 59 % 88 % 1005,6 hPa 0,0 l/m² 6,0 km/h (2 Bft) SW 222 ° 0 min 0 W/m² 13,1 °C 15,1 °C 8,0 km/h (2 Bft)
25.09.2024 05:54 22,0 °C 15,1 °C 59 % 88 % 1005,5 hPa 0,0 l/m² 2,7 km/h (1 Bft) SW 226 ° 0 min 0 W/m² 13,1 °C 15,1 °C 4,8 km/h (1 Bft)
25.09.2024 05:55 21,9 °C 15,1 °C 59 % 88 % 1005,5 hPa 0,0 l/m² 5,6 km/h (2 Bft) SW 215 ° 0 min 0 W/m² 13,1 °C 15,1 °C 8,0 km/h (2 Bft)
25.09.2024 05:56 21,9 °C 15,1 °C 59 % 88 % 1005,5 hPa 0,0 l/m² 8,0 km/h (2 Bft) SW 215 ° 0 min 0 W/m² 13,1 °C 14,2 °C 11,3 km/h (2 Bft)
25.09.2024 05:57 21,9 °C 15,1 °C 59 % 88 % 1005,4 hPa 0,0 l/m² 9,9 km/h (2 Bft) SW 214 ° 0 min 0 W/m² 13,1 °C 13,3 °C 14,5 km/h (3 Bft)
25.09.2024 05:58 22,0 °C 15,1 °C 59 % 88 % 1005,6 hPa 0,0 l/m² 9,8 km/h (2 Bft) S-SW 198 ° 0 min 0 W/m² 13,1 °C 13,3 °C 16,1 km/h (3 Bft)
25.09.2024 05:59 21,9 °C 15,1 °C 59 % 88 % 1005,5 hPa 0,0 l/m² 11,7 km/h (2 Bft) SW 221 ° 0 min 0 W/m² 13,1 °C 12,5 °C 12,9 km/h (3 Bft)
25.09.2024 06:00 21,9 °C 15,1 °C 59 % 88 % 1005,5 hPa 0,0 l/m² 10,5 km/h (2 Bft) SW 226 ° 0 min 0 W/m² 13,1 °C 13,0 °C 14,5 km/h (3 Bft)
25.09.2024 06:01 21,9 °C 15,1 °C 59 % 88 % 1005,6 hPa 0,0 l/m² 15,8 km/h (3 Bft) S-SW 213 ° 0 min 0 W/m² 13,1 °C 11,1 °C 19,3 km/h (3 Bft)
25.09.2024 06:02 21,9 °C 15,1 °C 59 % 88 % 1005,6 hPa 0,0 l/m² 13,4 km/h (3 Bft) SW 220 ° 0 min 0 W/m² 13,1 °C 11,9 °C 17,7 km/h (3 Bft)
25.09.2024 06:03 21,9 °C 15,1 °C 59 % 88 % 1005,6 hPa 0,0 l/m² 10,6 km/h (2 Bft) SW 224 ° 0 min 0 W/m² 13,1 °C 13,0 °C 12,9 km/h (3 Bft)
25.09.2024 06:04 21,9 °C 15,1 °C 59 % 88 % 1005,5 hPa 0,0 l/m² 13,1 km/h (3 Bft) SW 222 ° 0 min 0 W/m² 13,1 °C 12,0 °C 16,1 km/h (3 Bft)
25.09.2024 06:05 21,9 °C 15,1 °C 59 % 88 % 1005,6 hPa 0,0 l/m² 10,3 km/h (2 Bft) SW 223 ° 0 min 0 W/m² 13,1 °C 13,1 °C 12,9 km/h (3 Bft)
25.09.2024 06:06 21,9 °C 15,1 °C 59 % 88 % 1005,5 hPa 0,0 l/m² 8,6 km/h (2 Bft) SW 216 ° 0 min 0 W/m² 13,1 °C 13,9 °C 9,7 km/h (2 Bft)
25.09.2024 06:07 21,9 °C 15,1 °C 59 % 88 % 1005,6 hPa 0,0 l/m² 10,4 km/h (2 Bft) S-SW 209 ° 0 min 0 W/m² 13,1 °C 13,1 °C 14,5 km/h (3 Bft)
25.09.2024 06:08 21,9 °C 15,1 °C 59 % 88 % 1005,5 hPa 0,0 l/m² 9,7 km/h (2 Bft) W-SW 250 ° 0 min 0 W/m² 13,1 °C 13,4 °C 12,9 km/h (3 Bft)
25.09.2024 06:09 21,9 °C 15,1 °C 59 % 88 % 1005,6 hPa 0,0 l/m² 10,8 km/h (2 Bft) S-SW 206 ° 0 min 0 W/m² 13,1 °C 12,9 °C 12,9 km/h (3 Bft)
25.09.2024 06:10 21,9 °C 15,1 °C 59 % 88 % 1005,6 hPa 0,0 l/m² 8,3 km/h (2 Bft) S-SW 211 ° 0 min 0 W/m² 13,1 °C 14,0 °C 9,7 km/h (2 Bft)
25.09.2024 06:11 21,9 °C 15,2 °C 59 % 88 % 1005,6 hPa 0,0 l/m² 10,0 km/h (2 Bft) SW 226 ° 0 min 0 W/m² 13,2 °C 13,3 °C 14,5 km/h (3 Bft)
25.09.2024 06:12 21,9 °C 15,1 °C 59 % 88 % 1005,6 hPa 0,0 l/m² 11,9 km/h (2 Bft) SW 226 ° 0 min 0 W/m² 13,1 °C 12,4 °C 16,1 km/h (3 Bft)
25.09.2024 06:13 21,9 °C 15,2 °C 59 % 88 % 1005,7 hPa 0,0 l/m² 11,3 km/h (2 Bft) S-SW 213 ° 0 min 0 W/m² 13,2 °C 12,8 °C 16,1 km/h (3 Bft)
25.09.2024 06:14 21,9 °C 15,2 °C 59 % 88 % 1005,7 hPa 0,0 l/m² 9,8 km/h (2 Bft) SW 234 ° 0 min 0 W/m² 13,2 °C 13,4 °C 14,5 km/h (3 Bft)
25.09.2024 06:15 21,9 °C 15,2 °C 59 % 88 % 1005,7 hPa 0,0 l/m² 12,5 km/h (2 Bft) S-SW 199 ° 0 min 0 W/m² 13,2 °C 12,3 °C 16,1 km/h (3 Bft)
25.09.2024 06:16 21,9 °C 15,2 °C 59 % 88 % 1005,7 hPa 0,0 l/m² 16,2 km/h (3 Bft) S-SW 209 ° 0 min 0 W/m² 13,2 °C 11,1 °C 20,9 km/h (4 Bft)
25.09.2024 06:17 21,9 °C 15,2 °C 59 % 88 % 1005,7 hPa 0,0 l/m² 13,0 km/h (3 Bft) S-SW 198 ° 0 min 0 W/m² 13,2 °C 12,1 °C 16,1 km/h (3 Bft)
25.09.2024 06:18 21,9 °C 15,2 °C 59 % 88 % 1005,7 hPa 0,0 l/m² 9,9 km/h (2 Bft) S-SW 205 ° 0 min 0 W/m² 13,2 °C 13,4 °C 12,9 km/h (3 Bft)
25.09.2024 06:19 21,9 °C 15,3 °C 59 % 88 % 1005,7 hPa 0,0 l/m² 10,7 km/h (2 Bft) S-SW 213 ° 0 min 0 W/m² 13,3 °C 13,1 °C 14,5 km/h (3 Bft)
25.09.2024 06:20 21,9 °C 15,3 °C 59 % 88 % 1005,7 hPa 0,0 l/m² 12,1 km/h (2 Bft) S-SW 195 ° 0 min 0 W/m² 13,3 °C 12,6 °C 14,5 km/h (3 Bft)
25.09.2024 06:21 21,9 °C 15,3 °C 59 % 88 % 1005,8 hPa 0,0 l/m² 12,1 km/h (2 Bft) S-SW 213 ° 0 min 0 W/m² 13,3 °C 12,6 °C 16,1 km/h (3 Bft)
25.09.2024 06:22 21,9 °C 15,3 °C 59 % 88 % 1005,8 hPa 0,0 l/m² 13,2 km/h (3 Bft) S-SW 199 ° 0 min 0 W/m² 13,3 °C 12,2 °C 17,7 km/h (3 Bft)
25.09.2024 06:23 21,9 °C 15,3 °C 59 % 88 % 1005,7 hPa 0,0 l/m² 15,9 km/h (3 Bft) S-SW 195 ° 0 min 0 W/m² 13,3 °C 11,3 °C 20,9 km/h (4 Bft)
25.09.2024 06:24 21,9 °C 15,3 °C 59 % 88 % 1005,8 hPa 0,0 l/m² 14,8 km/h (3 Bft) S-SW 193 ° 0 min 0 W/m² 13,3 °C 11,6 °C 17,7 km/h (3 Bft)
25.09.2024 06:25 21,9 °C 15,3 °C 59 % 88 % 1005,8 hPa 0,0 l/m² 13,3 km/h (3 Bft) S 178 ° 0 min 0 W/m² 13,3 °C 12,1 °C 16,1 km/h (3 Bft)
25.09.2024 06:26 21,9 °C 15,3 °C 59 % 88 % 1005,7 hPa 0,0 l/m² 11,9 km/h (2 Bft) S-SW 198 ° 0 min 0 W/m² 13,3 °C 12,7 °C 17,7 km/h (3 Bft)
25.09.2024 06:27 21,9 °C 15,3 °C 59 % 88 % 1005,7 hPa 0,0 l/m² 14,3 km/h (3 Bft) S-SW 197 ° 0 min 0 W/m² 13,3 °C 11,8 °C 17,7 km/h (3 Bft)
25.09.2024 06:28 21,9 °C 15,3 °C 59 % 88 % 1005,7 hPa 0,0 l/m² 11,7 km/h (2 Bft) S-SW 200 ° 0 min 0 W/m² 13,3 °C 12,7 °C 16,1 km/h (3 Bft)
25.09.2024 06:29 21,9 °C 15,3 °C 59 % 88 % 1005,7 hPa 0,0 l/m² 11,4 km/h (2 Bft) S-SW 192 ° 0 min 0 W/m² 13,3 °C 12,9 °C 14,5 km/h (3 Bft)
25.09.2024 06:30 21,9 °C 15,3 °C 59 % 88 % 1005,7 hPa 0,0 l/m² 11,7 km/h (2 Bft) S-SW 198 ° 0 min 0 W/m² 13,3 °C 12,7 °C 14,5 km/h (3 Bft)
25.09.2024 06:31 21,9 °C 15,3 °C 59 % 88 % 1005,7 hPa 0,0 l/m² 13,1 km/h (3 Bft) S-SW 198 ° 0 min 0 W/m² 13,3 °C 12,2 °C 17,7 km/h (3 Bft)
25.09.2024 06:32 21,9 °C 15,3 °C 59 % 88 % 1005,8 hPa 0,0 l/m² 12,5 km/h (2 Bft) S-SW 194 ° 0 min 0 W/m² 13,3 °C 12,4 °C 16,1 km/h (3 Bft)
25.09.2024 06:33 21,9 °C 15,3 °C 59 % 88 % 1005,8 hPa 0,0 l/m² 11,6 km/h (2 Bft) S-SW 209 ° 0 min 0 W/m² 13,3 °C 12,8 °C 16,1 km/h (3 Bft)
25.09.2024 06:34 21,9 °C 15,3 °C 59 % 88 % 1005,8 hPa 0,0 l/m² 11,2 km/h (2 Bft) S-SW 204 ° 0 min 0 W/m² 13,3 °C 12,9 °C 12,9 km/h (3 Bft)
25.09.2024 06:35 21,9 °C 15,3 °C 59 % 88 % 1005,7 hPa 0,0 l/m² 11,3 km/h (2 Bft) S-SW 196 ° 0 min 0 W/m² 13,3 °C 12,9 °C 12,9 km/h (3 Bft)
25.09.2024 06:36 21,9 °C 15,2 °C 59 % 88 % 1005,8 hPa 0,0 l/m² 12,3 km/h (2 Bft) S 190 ° 0 min 0 W/m² 13,2 °C 12,4 °C 16,1 km/h (3 Bft)
25.09.2024 06:37 21,9 °C 15,3 °C 59 % 88 % 1005,8 hPa 0,0 l/m² 12,6 km/h (3 Bft) S-SW 209 ° 0 min 0 W/m² 13,3 °C 12,4 °C 14,5 km/h (3 Bft)
25.09.2024 06:38 21,9 °C 15,3 °C 59 % 88 % 1005,7 hPa 0,0 l/m² 11,7 km/h (2 Bft) S-SW 213 ° 0 min 0 W/m² 13,3 °C 12,7 °C 12,9 km/h (3 Bft)
25.09.2024 06:39 21,9 °C 15,3 °C 59 % 88 % 1005,8 hPa 0,0 l/m² 10,9 km/h (2 Bft) S-SW 197 ° 0 min 0 W/m² 13,3 °C 13,1 °C 12,9 km/h (3 Bft)
25.09.2024 06:40 21,9 °C 15,3 °C 59 % 88 % 1005,7 hPa 0,0 l/m² 10,3 km/h (2 Bft) S-SW 203 ° 0 min 0 W/m² 13,3 °C 13,3 °C 11,3 km/h (2 Bft)
25.09.2024 06:41 21,9 °C 15,3 °C 59 % 88 % 1005,7 hPa 0,0 l/m² 7,2 km/h (2 Bft) S-SW 210 ° 0 min 0 W/m² 13,3 °C 14,9 °C 9,7 km/h (2 Bft)
25.09.2024 06:42 21,9 °C 15,3 °C 59 % 88 % 1005,8 hPa 0,0 l/m² 7,8 km/h (2 Bft) S-SW 194 ° 0 min 0 W/m² 13,3 °C 14,5 °C 9,7 km/h (2 Bft)
25.09.2024 06:43 21,9 °C 15,3 °C 59 % 88 % 1005,7 hPa 0,0 l/m² 7,8 km/h (2 Bft) S 190 ° 0 min 0 W/m² 13,3 °C 14,5 °C 9,7 km/h (2 Bft)
25.09.2024 06:44 21,9 °C 15,3 °C 59 % 88 % 1005,7 hPa 0,0 l/m² 9,1 km/h (2 Bft) S-SW 202 ° 0 min 0 W/m² 13,3 °C 13,9 °C 11,3 km/h (2 Bft)
25.09.2024 06:46 21,9 °C 15,3 °C 59 % 88 % 1005,7 hPa 0,0 l/m² 7,7 km/h (2 Bft) S-SW 208 ° 0 min 0 W/m² 13,3 °C 14,6 °C 9,7 km/h (2 Bft)
25.09.2024 06:47 21,9 °C 15,3 °C 59 % 88 % 1005,7 hPa 0,0 l/m² 7,0 km/h (2 Bft) S 186 ° 0 min 0 W/m² 13,3 °C 15,0 °C 9,7 km/h (2 Bft)
25.09.2024 06:48 21,9 °C 15,3 °C 59 % 88 % 1005,7 hPa 0,0 l/m² 7,0 km/h (2 Bft) S 183 ° 0 min 0 W/m² 13,3 °C 15,0 °C 8,0 km/h (2 Bft)
25.09.2024 06:49 21,9 °C 15,3 °C 59 % 88 % 1005,8 hPa 0,0 l/m² 8,7 km/h (2 Bft) S 187 ° 0 min 0 W/m² 13,3 °C 14,1 °C 9,7 km/h (2 Bft)
25.09.2024 06:50 21,9 °C 15,3 °C 59 % 88 % 1005,8 hPa 0,0 l/m² 8,0 km/h (2 Bft) S 185 ° 0 min 0 W/m² 13,3 °C 14,4 °C 11,3 km/h (2 Bft)
25.09.2024 06:51 21,9 °C 15,3 °C 59 % 88 % 1005,8 hPa 0,0 l/m² 7,6 km/h (2 Bft) S 185 ° 0 min 0 W/m² 13,3 °C 14,6 °C 9,7 km/h (2 Bft)
25.09.2024 06:52 22,0 °C 15,2 °C 59 % 88 % 1005,8 hPa 0,0 l/m² 8,9 km/h (2 Bft) S 183 ° 0 min 0 W/m² 13,2 °C 13,9 °C 11,3 km/h (2 Bft)
25.09.2024 06:53 21,9 °C 15,3 °C 59 % 88 % 1005,8 hPa 0,0 l/m² 9,5 km/h (2 Bft) S-SW 196 ° 0 min 0 W/m² 13,3 °C 13,7 °C 11,3 km/h (2 Bft)
25.09.2024 06:54 21,9 °C 15,2 °C 59 % 88 % 1005,8 hPa 0,0 l/m² 9,3 km/h (2 Bft) S 187 ° 0 min 0 W/m² 13,2 °C 13,7 °C 12,9 km/h (3 Bft)
25.09.2024 06:55 21,9 °C 15,3 °C 59 % 88 % 1005,8 hPa 0,0 l/m² 8,3 km/h (2 Bft) S 188 ° 0 min 0 W/m² 13,3 °C 14,3 °C 11,3 km/h (2 Bft)
25.09.2024 06:56 22,0 °C 15,2 °C 59 % 88 % 1005,8 hPa 0,0 l/m² 9,8 km/h (2 Bft) S 179 ° 0 min 0 W/m² 13,2 °C 13,4 °C 12,9 km/h (3 Bft)
25.09.2024 06:57 22,0 °C 15,2 °C 59 % 88 % 1005,8 hPa 0,0 l/m² 8,3 km/h (2 Bft) S 169 ° 0 min 0 W/m² 13,2 °C 14,2 °C 12,9 km/h (3 Bft)
25.09.2024 06:58 22,0 °C 15,2 °C 59 % 88 % 1005,8 hPa 0,0 l/m² 8,7 km/h (2 Bft) S 188 ° 0 min 0 W/m² 13,2 °C 14,0 °C 9,7 km/h (2 Bft)
25.09.2024 06:59 22,0 °C 15,2 °C 59 % 88 % 1005,9 hPa 0,0 l/m² 9,8 km/h (2 Bft) S 169 ° 0 min 0 W/m² 13,2 °C 13,4 °C 12,9 km/h (3 Bft)
25.09.2024 07:00 21,9 °C 15,2 °C 59 % 88 % 1005,8 hPa 0,0 l/m² 8,2 km/h (2 Bft) S-SO 166 ° 0 min 0 W/m² 13,2 °C 14,2 °C 9,7 km/h (2 Bft)
25.09.2024 07:01 21,9 °C 15,3 °C 59 % 88 % 1005,8 hPa 0,0 l/m² 8,1 km/h (2 Bft) S-SO 160 ° 0 min 0 W/m² 13,3 °C 14,4 °C 11,3 km/h (2 Bft)
25.09.2024 07:02 21,9 °C 15,2 °C 59 % 88 % 1005,8 hPa 0,0 l/m² 7,7 km/h (2 Bft) S 182 ° 0 min 0 W/m² 13,2 °C 14,5 °C 11,3 km/h (2 Bft)
25.09.2024 07:03 21,9 °C 15,2 °C 59 % 89 % 1005,9 hPa 0,0 l/m² 8,6 km/h (2 Bft) S 170 ° 0 min 0 W/m² 13,4 °C 14,0 °C 12,9 km/h (3 Bft)
25.09.2024 07:04 21,9 °C 15,2 °C 59 % 89 % 1005,9 hPa 0,0 l/m² 8,4 km/h (2 Bft) S-SO 163 ° 0 min 0 W/m² 13,4 °C 14,1 °C 11,3 km/h (2 Bft)
25.09.2024 07:05 21,9 °C 15,2 °C 59 % 88 % 1005,9 hPa 0,0 l/m² 7,3 km/h (2 Bft) S-SO 167 ° 0 min 0 W/m² 13,2 °C 14,7 °C 9,7 km/h (2 Bft)
25.09.2024 07:06 21,9 °C 15,2 °C 59 % 89 % 1005,9 hPa 0,0 l/m² 6,6 km/h (2 Bft) S-SO 162 ° 0 min 0 W/m² 13,4 °C 15,1 °C 8,0 km/h (2 Bft)
25.09.2024 07:07 21,9 °C 15,2 °C 59 % 89 % 1005,9 hPa 0,0 l/m² 6,6 km/h (2 Bft) S-SO 167 ° 0 min 0 W/m² 13,4 °C 15,1 °C 8,0 km/h (2 Bft)
25.09.2024 07:08 21,9 °C 15,2 °C 59 % 89 % 1005,9 hPa 0,0 l/m² 7,4 km/h (2 Bft) S-SO 165 ° 0 min 0 W/m² 13,4 °C 14,6 °C 9,7 km/h (2 Bft)
25.09.2024 07:09 21,9 °C 15,2 °C 59 % 89 % 1005,8 hPa 0,0 l/m² 6,2 km/h (2 Bft) S-SO 159 ° 0 min 0 W/m² 13,4 °C 15,2 °C 8,0 km/h (2 Bft)
25.09.2024 07:10 21,9 °C 15,2 °C 59 % 89 % 1005,8 hPa 0,0 l/m² 5,5 km/h (2 Bft) S 172 ° 0 min 0 W/m² 13,4 °C 15,2 °C 8,0 km/h (2 Bft)
25.09.2024 07:11 21,9 °C 15,2 °C 59 % 89 % 1005,9 hPa 0,0 l/m² 6,2 km/h (2 Bft) S 176 ° 0 min 0 W/m² 13,4 °C 15,2 °C 8,0 km/h (2 Bft)
25.09.2024 07:12 21,9 °C 15,1 °C 59 % 89 % 1005,8 hPa 0,0 l/m² 5,6 km/h (2 Bft) S 171 ° 0 min 0 W/m² 13,3 °C 15,1 °C 8,0 km/h (2 Bft)
25.09.2024 07:13 21,9 °C 15,1 °C 59 % 89 % 1005,9 hPa 0,0 l/m² 4,7 km/h (1 Bft) S-SO 161 ° 0 min 0 W/m² 13,3 °C 15,1 °C 6,4 km/h (2 Bft)
25.09.2024 07:14 21,9 °C 15,2 °C 59 % 89 % 1005,9 hPa 0,0 l/m² 4,5 km/h (1 Bft) S 169 ° 0 min 0 W/m² 13,4 °C 15,2 °C 6,4 km/h (2 Bft)
25.09.2024 07:15 21,9 °C 15,2 °C 59 % 89 % 1005,9 hPa 0,0 l/m² 5,8 km/h (2 Bft) S 172 ° 0 min 0 W/m² 13,4 °C 15,2 °C 8,0 km/h (2 Bft)
25.09.2024 07:16 21,9 °C 15,1 °C 59 % 89 % 1005,9 hPa 0,0 l/m² 5,0 km/h (1 Bft) S 169 ° 0 min 0 W/m² 13,3 °C 15,1 °C 8,0 km/h (2 Bft)
25.09.2024 07:17 21,9 °C 15,1 °C 59 % 89 % 1005,8 hPa 0,0 l/m² 5,2 km/h (1 Bft) S 181 ° 0 min 0 W/m² 13,3 °C 15,1 °C 9,7 km/h (2 Bft)
25.09.2024 07:18 21,9 °C 15,1 °C 59 % 89 % 1005,8 hPa 0,0 l/m² 7,2 km/h (2 Bft) S 173 ° 0 min 0 W/m² 13,3 °C 14,6 °C 9,7 km/h (2 Bft)
25.09.2024 07:19 21,9 °C 15,1 °C 59 % 89 % 1005,9 hPa 0,0 l/m² 6,2 km/h (2 Bft) S 181 ° 0 min 0 W/m² 13,3 °C 15,1 °C 8,0 km/h (2 Bft)
25.09.2024 07:20 21,9 °C 15,1 °C 59 % 89 % 1005,9 hPa 0,0 l/m² 6,5 km/h (2 Bft) S 176 ° 0 min 5 W/m² 13,3 °C 15,1 °C 9,7 km/h (2 Bft)
25.09.2024 07:21 21,9 °C 15,1 °C 59 % 89 % 1005,9 hPa 0,0 l/m² 7,5 km/h (2 Bft) S 178 ° 0 min 5 W/m² 13,3 °C 14,5 °C 9,7 km/h (2 Bft)
25.09.2024 07:22 21,9 °C 15,1 °C 59 % 89 % 1005,8 hPa 0,0 l/m² 6,1 km/h (2 Bft) S 176 ° 0 min 5 W/m² 13,3 °C 15,1 °C 9,7 km/h (2 Bft)
25.09.2024 07:23 21,9 °C 15,1 °C 59 % 90 % 1005,8 hPa 0,0 l/m² 7,0 km/h (2 Bft) S 188 ° 0 min 0 W/m² 13,5 °C 14,8 °C 9,7 km/h (2 Bft)
25.09.2024 07:24 21,9 °C 15,1 °C 59 % 90 % 1005,9 hPa 0,0 l/m² 5,3 km/h (1 Bft) S 178 ° 0 min 0 W/m² 13,5 °C 15,1 °C 6,4 km/h (2 Bft)
25.09.2024 07:25 21,9 °C 15,1 °C 59 % 90 % 1005,9 hPa 0,0 l/m² 5,6 km/h (2 Bft) S 173 ° 0 min 0 W/m² 13,5 °C 15,1 °C 8,0 km/h (2 Bft)
25.09.2024 07:26 21,9 °C 15,1 °C 59 % 90 % 1005,9 hPa 0,0 l/m² 6,7 km/h (2 Bft) S 185 ° 0 min 0 W/m² 13,5 °C 14,9 °C 9,7 km/h (2 Bft)
25.09.2024 07:27 21,9 °C 15,1 °C 59 % 90 % 1005,9 hPa 0,0 l/m² 5,2 km/h (1 Bft) S 173 ° 0 min 0 W/m² 13,5 °C 15,1 °C 9,7 km/h (2 Bft)
25.09.2024 07:28 21,9 °C 15,1 °C 59 % 90 % 1006,0 hPa 0,0 l/m² 6,1 km/h (2 Bft) S 176 ° 0 min 0 W/m² 13,5 °C 15,1 °C 8,0 km/h (2 Bft)
25.09.2024 07:29 21,9 °C 15,1 °C 59 % 90 % 1005,9 hPa 0,0 l/m² 5,6 km/h (2 Bft) S 180 ° 0 min 0 W/m² 13,5 °C 15,1 °C 9,7 km/h (2 Bft)
25.09.2024 07:30 21,9 °C 15,1 °C 59 % 90 % 1005,9 hPa 0,0 l/m² 4,6 km/h (1 Bft) S 175 ° 0 min 0 W/m² 13,5 °C 15,1 °C 8,0 km/h (2 Bft)
25.09.2024 07:31 21,9 °C 15,1 °C 59 % 90 % 1006,0 hPa 0,0 l/m² 6,6 km/h (2 Bft) S 176 ° 0 min 5 W/m² 13,5 °C 15,0 °C 9,7 km/h (2 Bft)
25.09.2024 07:32 21,9 °C 15,1 °C 59 % 90 % 1006,0 hPa 0,0 l/m² 6,1 km/h (2 Bft) S 169 ° 0 min 7 W/m² 13,5 °C 15,1 °C 8,0 km/h (2 Bft)
25.09.2024 07:33 21,9 °C 15,1 °C 59 % 90 % 1006,0 hPa 0,0 l/m² 7,4 km/h (2 Bft) S 171 ° 0 min 7 W/m² 13,5 °C 14,5 °C 8,0 km/h (2 Bft)
25.09.2024 07:34 21,9 °C 15,1 °C 59 % 90 % 1006,0 hPa 0,0 l/m² 6,8 km/h (2 Bft) S 172 ° 0 min 7 W/m² 13,5 °C 14,9 °C 9,7 km/h (2 Bft)
25.09.2024 07:35 21,9 °C 15,1 °C 59 % 90 % 1006,0 hPa 0,0 l/m² 7,9 km/h (2 Bft) S-SO 161 ° 0 min 7 W/m² 13,5 °C 14,3 °C 9,7 km/h (2 Bft)
25.09.2024 07:36 21,9 °C 15,1 °C 59 % 90 % 1006,0 hPa 0,0 l/m² 8,0 km/h (2 Bft) S-SO 162 ° 0 min 7 W/m² 13,5 °C 14,2 °C 9,7 km/h (2 Bft)
25.09.2024 07:37 21,9 °C 15,1 °C 59 % 90 % 1006,0 hPa 0,0 l/m² 6,9 km/h (2 Bft) S-SO 163 ° 0 min 7 W/m² 13,5 °C 14,8 °C 8,0 km/h (2 Bft)
25.09.2024 07:38 21,9 °C 15,1 °C 59 % 90 % 1006,1 hPa 0,0 l/m² 5,8 km/h (2 Bft) S 178 ° 0 min 7 W/m² 13,5 °C 15,1 °C 8,0 km/h (2 Bft)
25.09.2024 07:39 21,9 °C 15,1 °C 59 % 90 % 1006,0 hPa 0,0 l/m² 5,0 km/h (1 Bft) S 171 ° 0 min 9 W/m² 13,5 °C 15,1 °C 6,4 km/h (2 Bft)
25.09.2024 07:40 21,9 °C 15,1 °C 59 % 90 % 1006,0 hPa 0,0 l/m² 7,0 km/h (2 Bft) S-SO 165 ° 0 min 9 W/m² 13,5 °C 14,8 °C 8,0 km/h (2 Bft)
25.09.2024 07:41 21,9 °C 15,1 °C 59 % 90 % 1006,1 hPa 0,0 l/m² 6,7 km/h (2 Bft) S-SO 163 ° 0 min 9 W/m² 13,5 °C 14,9 °C 8,0 km/h (2 Bft)
25.09.2024 07:42 21,9 °C 15,1 °C 59 % 90 % 1006,0 hPa 0,0 l/m² 6,3 km/h (2 Bft) S-SO 166 ° 0 min 11 W/m² 13,5 °C 15,1 °C 8,0 km/h (2 Bft)
25.09.2024 07:43 21,9 °C 15,1 °C 59 % 90 % 1006,0 hPa 0,0 l/m² 4,9 km/h (1 Bft) S 175 ° 0 min 11 W/m² 13,5 °C 15,1 °C 6,4 km/h (2 Bft)
25.09.2024 07:44 21,8 °C 15,1 °C 59 % 90 % 1006,0 hPa 0,0 l/m² 3,0 km/h (1 Bft) S 175 ° 0 min 11 W/m² 13,5 °C 15,1 °C 4,8 km/h (1 Bft)
25.09.2024 07:45 21,9 °C 15,1 °C 59 % 90 % 1006,0 hPa 0,0 l/m² 2,3 km/h (1 Bft) S 174 ° 0 min 11 W/m² 13,5 °C 15,1 °C 3,2 km/h (1 Bft)
25.09.2024 07:46 21,8 °C 15,1 °C 59 % 90 % 1005,9 hPa 0,0 l/m² 1,9 km/h (1 Bft) S 174 ° 0 min 11 W/m² 13,5 °C 15,1 °C 3,2 km/h (1 Bft)
25.09.2024 07:47 21,9 °C 15,1 °C 59 % 90 % 1006,0 hPa 0,0 l/m² 1,9 km/h (1 Bft) S-SO 166 ° 0 min 11 W/m² 13,5 °C 15,1 °C 6,4 km/h (2 Bft)
25.09.2024 07:48 21,9 °C 15,1 °C 59 % 90 % 1006,0 hPa 0,0 l/m² 3,8 km/h (1 Bft) S-SO 160 ° 0 min 11 W/m² 13,5 °C 15,1 °C 6,4 km/h (2 Bft)
25.09.2024 07:49 21,8 °C 15,1 °C 59 % 90 % 1006,1 hPa 0,0 l/m² 2,5 km/h (1 Bft) S-SO 160 ° 0 min 9 W/m² 13,5 °C 15,1 °C 3,2 km/h (1 Bft)
25.09.2024 07:50 21,8 °C 15,1 °C 59 % 90 % 1006,1 hPa 0,0 l/m² 2,2 km/h (1 Bft) S-SO 161 ° 0 min 9 W/m² 13,5 °C 15,1 °C 3,2 km/h (1 Bft)
25.09.2024 07:51 21,9 °C 15,1 °C 59 % 90 % 1006,1 hPa 0,0 l/m² 3,6 km/h (1 Bft) S 178 ° 0 min 9 W/m² 13,5 °C 15,1 °C 6,4 km/h (2 Bft)
25.09.2024 07:52 21,9 °C 15,1 °C 59 % 90 % 1006,1 hPa 0,0 l/m² 5,0 km/h (1 Bft) S 184 ° 0 min 9 W/m² 13,5 °C 15,1 °C 8,0 km/h (2 Bft)
25.09.2024 07:53 21,9 °C 15,1 °C 59 % 90 % 1006,1 hPa 0,0 l/m² 4,3 km/h (1 Bft) S 173 ° 0 min 7 W/m² 13,5 °C 15,1 °C 8,0 km/h (2 Bft)
25.09.2024 07:54 21,8 °C 15,1 °C 59 % 90 % 1006,0 hPa 0,0 l/m² 4,9 km/h (1 Bft) S-SO 165 ° 0 min 9 W/m² 13,5 °C 15,1 °C 6,4 km/h (2 Bft)
25.09.2024 07:55 21,9 °C 15,1 °C 59 % 90 % 1006,1 hPa 0,0 l/m² 4,3 km/h (1 Bft) S 176 ° 0 min 9 W/m² 13,5 °C 15,1 °C 8,0 km/h (2 Bft)
25.09.2024 07:56 21,9 °C 15,1 °C 59 % 90 % 1006,0 hPa 0,0 l/m² 6,4 km/h (2 Bft) S 180 ° 0 min 11 W/m² 13,5 °C 15,1 °C 9,7 km/h (2 Bft)
25.09.2024 07:57 21,8 °C 15,1 °C 59 % 90 % 1006,1 hPa 0,0 l/m² 4,2 km/h (1 Bft) S 178 ° 0 min 11 W/m² 13,5 °C 15,1 °C 6,4 km/h (2 Bft)
25.09.2024 07:58 21,9 °C 15,1 °C 59 % 90 % 1006,0 hPa 0,0 l/m² 4,4 km/h (1 Bft) S 182 ° 0 min 11 W/m² 13,5 °C 15,1 °C 6,4 km/h (2 Bft)
25.09.2024 07:59 21,9 °C 15,1 °C 59 % 90 % 1006,1 hPa 0,0 l/m² 4,5 km/h (1 Bft) S 173 ° 0 min 11 W/m² 13,5 °C 15,1 °C 6,4 km/h (2 Bft)
25.09.2024 08:00 21,8 °C 15,1 °C 59 % 90 % 1006,0 hPa 0,0 l/m² 4,5 km/h (1 Bft) S 173 ° 0 min 11 W/m² 13,5 °C 15,1 °C 8,0 km/h (2 Bft)
25.09.2024 08:01 21,8 °C 15,1 °C 59 % 90 % 1006,1 hPa 0,0 l/m² 5,9 km/h (2 Bft) S 175 ° 0 min 12 W/m² 13,5 °C 15,1 °C 8,0 km/h (2 Bft)
25.09.2024 08:02 21,9 °C 15,1 °C 59 % 90 % 1006,1 hPa 0,0 l/m² 4,6 km/h (1 Bft) S 176 ° 0 min 12 W/m² 13,5 °C 15,1 °C 6,4 km/h (2 Bft)
25.09.2024 08:03 21,8 °C 15,2 °C 59 % 90 % 1006,0 hPa 0,0 l/m² 5,0 km/h (1 Bft) S 169 ° 0 min 12 W/m² 13,6 °C 15,2 °C 6,4 km/h (2 Bft)
25.09.2024 08:04 21,9 °C 15,2 °C 59 % 90 % 1006,1 hPa 0,0 l/m² 3,4 km/h (1 Bft) S 182 ° 0 min 14 W/m² 13,6 °C 15,2 °C 6,4 km/h (2 Bft)
25.09.2024 08:05 21,8 °C 15,2 °C 59 % 90 % 1006,1 hPa 0,0 l/m² 4,2 km/h (1 Bft) S 180 ° 0 min 19 W/m² 13,6 °C 15,2 °C 6,4 km/h (2 Bft)
25.09.2024 08:06 21,9 °C 15,1 °C 59 % 90 % 1006,2 hPa 0,0 l/m² 5,2 km/h (1 Bft) S 173 ° 0 min 21 W/m² 13,5 °C 15,1 °C 8,0 km/h (2 Bft)
25.09.2024 08:07 21,9 °C 15,2 °C 59 % 90 % 1006,1 hPa 0,0 l/m² 5,8 km/h (2 Bft) S 178 ° 0 min 23 W/m² 13,6 °C 15,2 °C 8,0 km/h (2 Bft)
25.09.2024 08:08 21,8 °C 15,1 °C 59 % 90 % 1006,1 hPa 0,0 l/m² 4,9 km/h (1 Bft) S 184 ° 0 min 23 W/m² 13,5 °C 15,1 °C 6,4 km/h (2 Bft)
25.09.2024 08:09 21,8 °C 15,2 °C 59 % 90 % 1006,1 hPa 0,0 l/m² 5,2 km/h (1 Bft) S 179 ° 0 min 21 W/m² 13,6 °C 15,2 °C 8,0 km/h (2 Bft)
25.09.2024 08:10 21,8 °C 15,2 °C 59 % 90 % 1006,1 hPa 0,0 l/m² 6,5 km/h (2 Bft) S-SO 167 ° 0 min 21 W/m² 13,6 °C 15,2 °C 8,0 km/h (2 Bft)
25.09.2024 08:11 21,8 °C 15,2 °C 59 % 90 % 1006,1 hPa 0,0 l/m² 6,3 km/h (2 Bft) S 178 ° 0 min 25 W/m² 13,6 °C 15,2 °C 8,0 km/h (2 Bft)
25.09.2024 08:12 21,8 °C 15,2 °C 59 % 90 % 1006,1 hPa 0,0 l/m² 7,1 km/h (2 Bft) S 173 ° 0 min 26 W/m² 13,6 °C 14,8 °C 9,7 km/h (2 Bft)
25.09.2024 08:13 21,8 °C 15,2 °C 59 % 90 % 1006,1 hPa 0,0 l/m² 6,6 km/h (2 Bft) S-SO 166 ° 0 min 30 W/m² 13,6 °C 15,1 °C 9,7 km/h (2 Bft)
25.09.2024 08:14 21,8 °C 15,2 °C 59 % 90 % 1006,1 hPa 0,0 l/m² 5,9 km/h (2 Bft) S 171 ° 0 min 35 W/m² 13,6 °C 15,2 °C 8,0 km/h (2 Bft)
25.09.2024 08:15 21,8 °C 15,2 °C 59 % 90 % 1006,2 hPa 0,0 l/m² 5,0 km/h (1 Bft) S 178 ° 0 min 42 W/m² 13,6 °C 15,2 °C 8,0 km/h (2 Bft)
25.09.2024 08:16 21,8 °C 15,3 °C 59 % 90 % 1006,2 hPa 0,0 l/m² 4,8 km/h (1 Bft) S 179 ° 0 min 49 W/m² 13,7 °C 15,3 °C 6,4 km/h (2 Bft)
25.09.2024 08:17 21,8 °C 15,2 °C 59 % 90 % 1006,2 hPa 0,0 l/m² 3,8 km/h (1 Bft) S-SO 164 ° 1 min 56 W/m² 13,6 °C 15,2 °C 6,4 km/h (2 Bft)
25.09.2024 08:18 21,8 °C 15,3 °C 59 % 90 % 1006,2 hPa 0,0 l/m² 6,5 km/h (2 Bft) S 175 ° 1 min 54 W/m² 13,7 °C 15,3 °C 8,0 km/h (2 Bft)
25.09.2024 08:19 21,8 °C 15,3 °C 59 % 90 % 1006,2 hPa 0,0 l/m² 5,8 km/h (2 Bft) S 175 ° 1 min 53 W/m² 13,7 °C 15,3 °C 6,4 km/h (2 Bft)
25.09.2024 08:20 21,8 °C 15,3 °C 59 % 89 % 1006,2 hPa 0,0 l/m² 5,6 km/h (2 Bft) S-SO 166 ° 0 min 49 W/m² 13,5 °C 15,3 °C 8,0 km/h (2 Bft)
25.09.2024 08:21 21,8 °C 15,3 °C 59 % 89 % 1006,2 hPa 0,0 l/m² 6,8 km/h (2 Bft) S 185 ° 0 min 49 W/m² 13,5 °C 15,1 °C 9,7 km/h (2 Bft)
25.09.2024 08:22 21,8 °C 15,3 °C 59 % 89 % 1006,3 hPa 0,0 l/m² 5,9 km/h (2 Bft) S 172 ° 0 min 49 W/m² 13,5 °C 15,3 °C 8,0 km/h (2 Bft)
25.09.2024 08:23 21,9 °C 15,3 °C 59 % 89 % 1006,2 hPa 0,0 l/m² 6,0 km/h (2 Bft) S 171 ° 0 min 47 W/m² 13,5 °C 15,3 °C 9,7 km/h (2 Bft)
25.09.2024 08:24 21,8 °C 15,4 °C 59 % 89 % 1006,2 hPa 0,0 l/m² 5,4 km/h (2 Bft) S 184 ° 0 min 49 W/m² 13,6 °C 15,4 °C 9,7 km/h (2 Bft)
25.09.2024 08:25 21,8 °C 15,4 °C 59 % 89 % 1006,1 hPa 0,0 l/m² 5,2 km/h (1 Bft) S-SO 159 ° 0 min 49 W/m² 13,6 °C 15,4 °C 8,0 km/h (2 Bft)
25.09.2024 08:26 21,8 °C 15,4 °C 59 % 89 % 1006,2 hPa 0,0 l/m² 5,2 km/h (1 Bft) S 180 ° 0 min 44 W/m² 13,6 °C 15,4 °C 8,0 km/h (2 Bft)
25.09.2024 08:27 21,9 °C 15,4 °C 59 % 89 % 1006,2 hPa 0,0 l/m² 6,7 km/h (2 Bft) S 174 ° 0 min 39 W/m² 13,6 °C 15,2 °C 8,0 km/h (2 Bft)
25.09.2024 08:28 21,8 °C 15,4 °C 59 % 89 % 1006,2 hPa 0,0 l/m² 5,4 km/h (2 Bft) S 180 ° 0 min 33 W/m² 13,6 °C 15,4 °C 8,0 km/h (2 Bft)
25.09.2024 08:29 21,8 °C 15,4 °C 59 % 89 % 1006,3 hPa 0,0 l/m² 6,2 km/h (2 Bft) S 171 ° 0 min 32 W/m² 13,6 °C 15,4 °C 8,0 km/h (2 Bft)
25.09.2024 08:30 21,8 °C 15,4 °C 59 % 89 % 1006,2 hPa 0,0 l/m² 6,8 km/h (2 Bft) S 172 ° 0 min 28 W/m² 13,6 °C 15,2 °C 8,0 km/h (2 Bft)
25.09.2024 08:31 21,8 °C 15,5 °C 59 % 89 % 1006,3 hPa 0,0 l/m² 5,3 km/h (1 Bft) S 172 ° 0 min 30 W/m² 13,7 °C 15,5 °C 9,7 km/h (2 Bft)
25.09.2024 08:32 21,8 °C 15,5 °C 59 % 89 % 1006,2 hPa 0,0 l/m² 7,1 km/h (2 Bft) S 178 ° 0 min 40 W/m² 13,7 °C 15,1 °C 9,7 km/h (2 Bft)
25.09.2024 08:33 21,8 °C 15,6 °C 59 % 89 % 1006,2 hPa 0,0 l/m² 5,5 km/h (2 Bft) S 173 ° 0 min 47 W/m² 13,8 °C 15,6 °C 8,0 km/h (2 Bft)
25.09.2024 08:34 21,8 °C 15,6 °C 59 % 89 % 1006,3 hPa 0,0 l/m² 6,2 km/h (2 Bft) S 173 ° 1 min 53 W/m² 13,8 °C 15,6 °C 9,7 km/h (2 Bft)
25.09.2024 08:35 21,8 °C 15,6 °C 59 % 89 % 1006,3 hPa 0,0 l/m² 7,2 km/h (2 Bft) S 185 ° 1 min 58 W/m² 13,8 °C 15,2 °C 9,7 km/h (2 Bft)
25.09.2024 08:36 21,8 °C 15,6 °C 59 % 89 % 1006,3 hPa 0,0 l/m² 7,9 km/h (2 Bft) S 175 ° 1 min 63 W/m² 13,8 °C 14,8 °C 9,7 km/h (2 Bft)
25.09.2024 08:37 21,8 °C 15,6 °C 59 % 89 % 1006,3 hPa 0,0 l/m² 6,5 km/h (2 Bft) S 180 ° 1 min 67 W/m² 13,8 °C 15,6 °C 9,7 km/h (2 Bft)
25.09.2024 08:38 21,8 °C 15,6 °C 59 % 89 % 1006,3 hPa 0,0 l/m² 8,9 km/h (2 Bft) S-SW 196 ° 1 min 69 W/m² 13,8 °C 14,3 °C 11,3 km/h (2 Bft)
25.09.2024 08:39 21,8 °C 15,6 °C 59 % 89 % 1006,3 hPa 0,0 l/m² 7,8 km/h (2 Bft) S 183 ° 1 min 72 W/m² 13,8 °C 14,8 °C 11,3 km/h (2 Bft)
25.09.2024 08:40 21,9 °C 15,7 °C 59 % 89 % 1006,3 hPa 0,0 l/m² 4,7 km/h (1 Bft) S 187 ° 1 min 77 W/m² 13,9 °C 15,7 °C 6,4 km/h (2 Bft)
25.09.2024 08:41 21,8 °C 15,7 °C 59 % 89 % 1006,3 hPa 0,0 l/m² 9,9 km/h (2 Bft) S-SW 201 ° 1 min 83 W/m² 13,9 °C 13,9 °C 14,5 km/h (3 Bft)
25.09.2024 08:42 21,8 °C 15,7 °C 59 % 89 % 1006,3 hPa 0,0 l/m² 8,3 km/h (2 Bft) S-SW 207 ° 1 min 86 W/m² 13,9 °C 14,7 °C 9,7 km/h (2 Bft)
25.09.2024 08:43 21,8 °C 15,7 °C 59 % 89 % 1006,4 hPa 0,0 l/m² 8,2 km/h (2 Bft) S 186 ° 1 min 90 W/m² 13,9 °C 14,7 °C 9,7 km/h (2 Bft)
25.09.2024 08:44 21,8 °C 15,8 °C 59 % 89 % 1006,3 hPa 0,0 l/m² 6,0 km/h (2 Bft) S 188 ° 1 min 93 W/m² 14,0 °C 15,8 °C 8,0 km/h (2 Bft)
25.09.2024 08:45 21,8 °C 15,8 °C 59 % 89 % 1006,4 hPa 0,0 l/m² 4,3 km/h (1 Bft) S-SW 196 ° 1 min 97 W/m² 14,0 °C 15,8 °C 6,4 km/h (2 Bft)
25.09.2024 08:46 21,9 °C 15,8 °C 59 % 89 % 1006,4 hPa 0,0 l/m² 8,3 km/h (2 Bft) S-SW 209 ° 1 min 109 W/m² 14,0 °C 14,8 °C 11,3 km/h (2 Bft)
25.09.2024 08:47 21,8 °C 15,8 °C 59 % 88 % 1006,4 hPa 0,0 l/m² 9,9 km/h (2 Bft) SW 222 ° 1 min 114 W/m² 13,8 °C 14,0 °C 11,3 km/h (2 Bft)
25.09.2024 08:48 21,8 °C 15,8 °C 59 % 88 % 1006,4 hPa 0,0 l/m² 7,8 km/h (2 Bft) S 188 ° 1 min 116 W/m² 13,8 °C 15,0 °C 11,3 km/h (2 Bft)
25.09.2024 08:49 21,8 °C 15,9 °C 59 % 88 % 1006,4 hPa 0,0 l/m² 7,2 km/h (2 Bft) S 185 ° 1 min 121 W/m² 13,9 °C 15,5 °C 9,7 km/h (2 Bft)
25.09.2024 08:50 21,9 °C 15,9 °C 59 % 88 % 1006,5 hPa 0,0 l/m² 5,6 km/h (2 Bft) S 190 ° 1 min 120 W/m² 13,9 °C 15,9 °C 8,0 km/h (2 Bft)
25.09.2024 08:51 21,9 °C 15,9 °C 59 % 88 % 1006,4 hPa 0,0 l/m² 9,1 km/h (2 Bft) S 186 ° 1 min 118 W/m² 13,9 °C 14,5 °C 11,3 km/h (2 Bft)
25.09.2024 08:52 21,8 °C 16,0 °C 59 % 88 % 1006,5 hPa 0,0 l/m² 6,7 km/h (2 Bft) S 180 ° 1 min 107 W/m² 14,0 °C 15,8 °C 8,0 km/h (2 Bft)
25.09.2024 08:53 21,9 °C 16,0 °C 59 % 88 % 1006,4 hPa 0,0 l/m² 6,4 km/h (2 Bft) S-SW 198 ° 1 min 105 W/m² 14,0 °C 16,0 °C 8,0 km/h (2 Bft)
25.09.2024 08:54 21,9 °C 16,0 °C 59 % 88 % 1006,4 hPa 0,0 l/m² 7,0 km/h (2 Bft) S 176 ° 1 min 102 W/m² 14,0 °C 15,7 °C 8,0 km/h (2 Bft)
25.09.2024 08:55 21,8 °C 16,1 °C 59 % 88 % 1006,4 hPa 0,0 l/m² 5,5 km/h (2 Bft) S 176 ° 1 min 97 W/m² 14,1 °C 16,1 °C 8,0 km/h (2 Bft)
25.09.2024 08:56 21,8 °C 16,1 °C 59 % 88 % 1006,4 hPa 0,0 l/m² 3,4 km/h (1 Bft) S 175 ° 1 min 93 W/m² 14,1 °C 16,1 °C 4,8 km/h (1 Bft)
25.09.2024 08:57 21,9 °C 16,1 °C 59 % 88 % 1006,4 hPa 0,0 l/m² 4,8 km/h (1 Bft) S 184 ° 1 min 91 W/m² 14,1 °C 16,1 °C 8,0 km/h (2 Bft)
25.09.2024 08:58 21,8 °C 16,1 °C 59 % 88 % 1006,5 hPa 0,0 l/m² 5,5 km/h (2 Bft) S-SW 196 ° 1 min 93 W/m² 14,1 °C 16,1 °C 8,0 km/h (2 Bft)
25.09.2024 08:59 21,9 °C 16,1 °C 59 % 88 % 1006,4 hPa 0,0 l/m² 6,1 km/h (2 Bft) S 191 ° 1 min 86 W/m² 14,1 °C 16,1 °C 8,0 km/h (2 Bft)
25.09.2024 09:00 21,9 °C 16,1 °C 59 % 88 % 1006,5 hPa 0,0 l/m² 8,4 km/h (2 Bft) S 179 ° 1 min 79 W/m² 14,1 °C 15,1 °C 9,7 km/h (2 Bft)
25.09.2024 09:01 21,9 °C 16,1 °C 58 % 87 % 1006,4 hPa 0,0 l/m² 12,3 km/h (2 Bft) S 190 ° 1 min 77 W/m² 13,9 °C 13,4 °C 17,7 km/h (3 Bft)
25.09.2024 09:02 21,9 °C 16,1 °C 58 % 87 % 1006,5 hPa 0,0 l/m² 18,2 km/h (3 Bft) SO 143 ° 1 min 79 W/m² 13,9 °C 11,6 °C 24,1 km/h (4 Bft)
25.09.2024 09:03 21,9 °C 16,1 °C 58 % 87 % 1006,5 hPa 0,0 l/m² 12,7 km/h (3 Bft) S 178 ° 1 min 84 W/m² 13,9 °C 13,3 °C 16,1 km/h (3 Bft)
25.09.2024 09:04 21,9 °C 16,1 °C 58 % 87 % 1006,5 hPa 0,0 l/m² 14,3 km/h (3 Bft) SW 219 ° 1 min 97 W/m² 13,9 °C 12,7 °C 17,7 km/h (3 Bft)
25.09.2024 09:05 21,8 °C 16,1 °C 58 % 87 % 1006,5 hPa 0,0 l/m² 19,6 km/h (3 Bft) S-SW 211 ° 1 min 98 W/m² 13,9 °C 11,3 °C 24,1 km/h (4 Bft)
25.09.2024 09:06 21,9 °C 16,1 °C 58 % 86 % 1006,5 hPa 0,0 l/m² 17,0 km/h (3 Bft) S-SW 209 ° 1 min 95 W/m² 13,8 °C 11,9 °C 20,9 km/h (4 Bft)
25.09.2024 09:07 21,9 °C 16,1 °C 58 % 86 % 1006,5 hPa 0,0 l/m² 18,8 km/h (3 Bft) S-SW 198 ° 1 min 90 W/m² 13,8 °C 11,5 °C 25,7 km/h (4 Bft)
25.09.2024 09:09 21,9 °C 16,1 °C 58 % 86 % 1006,6 hPa 0,0 l/m² 17,8 km/h (3 Bft) S-SW 211 ° 2 min 76 W/m² 13,8 °C 11,7 °C 24,1 km/h (4 Bft)
25.09.2024 09:10 21,9 °C 16,1 °C 58 % 86 % 1006,6 hPa 0,0 l/m² 15,9 km/h (3 Bft) S-SW 209 ° 1 min 81 W/m² 13,8 °C 12,3 °C 19,3 km/h (3 Bft)
25.09.2024 09:11 21,9 °C 16,1 °C 58 % 86 % 1006,5 hPa 0,0 l/m² 16,9 km/h (3 Bft) S-SW 194 ° 1 min 90 W/m² 13,8 °C 12,0 °C 20,9 km/h (4 Bft)
25.09.2024 09:12 21,9 °C 16,1 °C 58 % 86 % 1006,6 hPa 0,0 l/m² 18,0 km/h (3 Bft) S-SW 209 ° 1 min 93 W/m² 13,8 °C 11,7 °C 22,5 km/h (4 Bft)
25.09.2024 09:13 21,9 °C 16,0 °C 58 % 86 % 1006,6 hPa 0,0 l/m² 15,6 km/h (3 Bft) S-SW 192 ° 1 min 95 W/m² 13,7 °C 12,2 °C 19,3 km/h (3 Bft)
25.09.2024 09:14 21,9 °C 16,0 °C 58 % 86 % 1006,6 hPa 0,0 l/m² 17,9 km/h (3 Bft) S-SW 196 ° 1 min 95 W/m² 13,7 °C 11,6 °C 25,7 km/h (4 Bft)
25.09.2024 09:15 21,9 °C 16,1 °C 58 % 86 % 1006,5 hPa 0,0 l/m² 17,4 km/h (3 Bft) S-SW 205 ° 1 min 100 W/m² 13,8 °C 11,8 °C 20,9 km/h (4 Bft)
25.09.2024 09:16 21,9 °C 16,0 °C 58 % 86 % 1006,6 hPa 0,0 l/m² 18,2 km/h (3 Bft) S-SW 196 ° 1 min 102 W/m² 13,7 °C 11,5 °C 20,9 km/h (4 Bft)
25.09.2024 09:17 21,9 °C 16,0 °C 58 % 86 % 1006,6 hPa 0,0 l/m² 15,8 km/h (3 Bft) S-SW 210 ° 1 min 104 W/m² 13,7 °C 12,2 °C 17,7 km/h (3 Bft)
25.09.2024 09:18 21,9 °C 16,0 °C 58 % 86 % 1006,6 hPa 0,0 l/m² 14,3 km/h (3 Bft) S-SW 207 ° 1 min 102 W/m² 13,7 °C 12,6 °C 19,3 km/h (3 Bft)
25.09.2024 09:19 21,9 °C 16,0 °C 58 % 86 % 1006,7 hPa 0,0 l/m² 16,3 km/h (3 Bft) S-SW 205 ° 1 min 100 W/m² 13,7 °C 12,0 °C 19,3 km/h (3 Bft)
25.09.2024 09:20 21,9 °C 16,0 °C 58 % 86 % 1006,6 hPa 0,0 l/m² 14,5 km/h (3 Bft) S-SW 213 ° 1 min 98 W/m² 13,7 °C 12,6 °C 19,3 km/h (3 Bft)
25.09.2024 09:21 21,9 °C 16,0 °C 58 % 86 % 1006,6 hPa 0,0 l/m² 14,3 km/h (3 Bft) S-SW 211 ° 1 min 93 W/m² 13,7 °C 12,6 °C 17,7 km/h (3 Bft)
25.09.2024 09:22 21,9 °C 16,0 °C 58 % 86 % 1006,7 hPa 0,0 l/m² 12,1 km/h (2 Bft) S-SW 209 ° 1 min 93 W/m² 13,7 °C 13,4 °C 14,5 km/h (3 Bft)
25.09.2024 09:23 21,9 °C 16,0 °C 58 % 86 % 1006,7 hPa 0,0 l/m² 12,7 km/h (3 Bft) SW 223 ° 1 min 95 W/m² 13,7 °C 13,2 °C 19,3 km/h (3 Bft)
25.09.2024 09:24 21,9 °C 16,1 °C 58 % 86 % 1006,7 hPa 0,0 l/m² 15,0 km/h (3 Bft) S-SW 195 ° 1 min 97 W/m² 13,8 °C 12,5 °C 19,3 km/h (3 Bft)
25.09.2024 09:25 21,9 °C 16,0 °C 58 % 86 % 1006,7 hPa 0,0 l/m² 13,7 km/h (3 Bft) W-SW 238 ° 1 min 100 W/m² 13,7 °C 12,8 °C 20,9 km/h (4 Bft)
25.09.2024 09:26 21,9 °C 16,0 °C 58 % 86 % 1006,7 hPa 0,0 l/m² 17,2 km/h (3 Bft) SW 235 ° 1 min 104 W/m² 13,7 °C 11,8 °C 22,5 km/h (4 Bft)
25.09.2024 09:27 21,9 °C 16,0 °C 58 % 86 % 1006,7 hPa 0,0 l/m² 17,6 km/h (3 Bft) SW 215 ° 1 min 121 W/m² 13,7 °C 11,7 °C 20,9 km/h (4 Bft)
25.09.2024 09:28 21,9 °C 16,0 °C 58 % 86 % 1006,7 hPa 0,0 l/m² 17,4 km/h (3 Bft) SW 219 ° 1 min 128 W/m² 13,7 °C 11,7 °C 22,5 km/h (4 Bft)
25.09.2024 09:29 21,9 °C 16,0 °C 58 % 86 % 1006,6 hPa 0,0 l/m² 17,6 km/h (3 Bft) S-SW 209 ° 1 min 141 W/m² 13,7 °C 11,7 °C 20,9 km/h (4 Bft)
25.09.2024 09:30 21,9 °C 16,0 °C 58 % 86 % 1006,7 hPa 0,0 l/m² 14,8 km/h (3 Bft) W-SW 238 ° 1 min 146 W/m² 13,7 °C 12,5 °C 22,5 km/h (4 Bft)
25.09.2024 09:31 21,9 °C 16,0 °C 58 % 86 % 1006,7 hPa 0,0 l/m² 16,0 km/h (3 Bft) W-SW 241 ° 1 min 153 W/m² 13,7 °C 12,1 °C 20,9 km/h (4 Bft)
25.09.2024 09:32 21,9 °C 16,0 °C 58 % 85 % 1006,7 hPa 0,0 l/m² 15,4 km/h (3 Bft) W-SW 248 ° 1 min 155 W/m² 13,5 °C 12,3 °C 19,3 km/h (3 Bft)
25.09.2024 09:33 21,9 °C 16,0 °C 58 % 86 % 1006,7 hPa 0,0 l/m² 12,6 km/h (3 Bft) SW 223 ° 1 min 174 W/m² 13,7 °C 13,2 °C 14,5 km/h (3 Bft)
25.09.2024 09:34 21,9 °C 16,0 °C 58 % 86 % 1006,7 hPa 0,0 l/m² 13,4 km/h (3 Bft) SW 215 ° 1 min 195 W/m² 13,7 °C 12,9 °C 16,1 km/h (3 Bft)
25.09.2024 09:35 21,9 °C 16,1 °C 58 % 86 % 1006,7 hPa 0,0 l/m² 12,3 km/h (2 Bft) SW 221 ° 1 min 209 W/m² 13,8 °C 13,4 °C 16,1 km/h (3 Bft)
25.09.2024 09:36 21,9 °C 16,1 °C 58 % 86 % 1006,7 hPa 0,0 l/m² 10,9 km/h (2 Bft) SW 217 ° 1 min 209 W/m² 13,8 °C 14,0 °C 16,1 km/h (3 Bft)
25.09.2024 09:37 21,9 °C 16,2 °C 58 % 86 % 1006,6 hPa 0,0 l/m² 11,4 km/h (2 Bft) SW 224 ° 1 min 396 W/m² 13,9 °C 13,9 °C 12,9 km/h (3 Bft)
25.09.2024 09:38 21,9 °C 16,2 °C 58 % 86 % 1006,7 hPa 0,0 l/m² 12,7 km/h (3 Bft) S-SW 213 ° 1 min 396 W/m² 13,9 °C 13,4 °C 14,5 km/h (3 Bft)
25.09.2024 09:39 21,9 °C 16,3 °C 58 % 87 % 1006,7 hPa 0,0 l/m² 10,9 km/h (2 Bft) SW 216 ° 1 min 181 W/m² 14,1 °C 14,2 °C 14,5 km/h (3 Bft)
25.09.2024 09:40 21,9 °C 16,3 °C 58 % 86 % 1006,7 hPa 0,0 l/m² 13,4 km/h (3 Bft) SW 230 ° 1 min 172 W/m² 14,0 °C 13,3 °C 17,7 km/h (3 Bft)
25.09.2024 09:41 21,9 °C 16,3 °C 58 % 86 % 1006,7 hPa 0,0 l/m² 12,4 km/h (2 Bft) SW 220 ° 1 min 149 W/m² 14,0 °C 13,6 °C 16,1 km/h (3 Bft)
25.09.2024 09:42 21,9 °C 16,3 °C 58 % 86 % 1006,8 hPa 0,0 l/m² 9,5 km/h (2 Bft) SW 227 ° 1 min 134 W/m² 14,0 °C 14,8 °C 11,3 km/h (2 Bft)
25.09.2024 09:44 21,9 °C 16,3 °C 58 % 86 % 1006,8 hPa 0,0 l/m² 11,0 km/h (2 Bft) SW 218 ° 2 min 100 W/m² 14,0 °C 14,1 °C 14,5 km/h (3 Bft)
25.09.2024 09:45 21,9 °C 16,3 °C 58 % 86 % 1006,7 hPa 0,0 l/m² 8,0 km/h (2 Bft) SW 227 ° 1 min 107 W/m² 14,0 °C 15,5 °C 12,9 km/h (3 Bft)
25.09.2024 09:46 21,9 °C 16,3 °C 58 % 86 % 1006,7 hPa 0,0 l/m² 10,7 km/h (2 Bft) S 189 ° 1 min 125 W/m² 14,0 °C 14,3 °C 14,5 km/h (3 Bft)
25.09.2024 09:47 21,9 °C 16,3 °C 58 % 86 % 1006,7 hPa 0,0 l/m² 10,5 km/h (2 Bft) S-SW 202 ° 1 min 128 W/m² 14,0 °C 14,3 °C 14,5 km/h (3 Bft)
25.09.2024 09:48 21,9 °C 16,3 °C 58 % 86 % 1006,7 hPa 0,0 l/m² 10,6 km/h (2 Bft) S 190 ° 1 min 127 W/m² 14,0 °C 14,3 °C 12,9 km/h (3 Bft)
25.09.2024 09:49 21,9 °C 16,3 °C 58 % 86 % 1006,7 hPa 0,0 l/m² 13,5 km/h (3 Bft) S-SW 206 ° 1 min 128 W/m² 14,0 °C 13,2 °C 17,7 km/h (3 Bft)
25.09.2024 09:50 21,9 °C 16,3 °C 58 % 86 % 1006,7 hPa 0,0 l/m² 11,4 km/h (2 Bft) SW 219 ° 1 min 144 W/m² 14,0 °C 14,0 °C 14,5 km/h (3 Bft)
25.09.2024 09:51 21,9 °C 16,3 °C 58 % 86 % 1006,7 hPa 0,0 l/m² 13,0 km/h (3 Bft) SW 222 ° 1 min 160 W/m² 14,0 °C 13,4 °C 16,1 km/h (3 Bft)
25.09.2024 09:52 21,9 °C 16,3 °C 58 % 86 % 1006,7 hPa 0,0 l/m² 13,5 km/h (3 Bft) S-SW 213 ° 1 min 169 W/m² 14,0 °C 13,2 °C 14,5 km/h (3 Bft)
25.09.2024 09:53 21,9 °C 16,3 °C 58 % 86 % 1006,6 hPa 0,0 l/m² 11,1 km/h (2 Bft) S-SW 211 ° 1 min 185 W/m² 14,0 °C 14,1 °C 12,9 km/h (3 Bft)
25.09.2024 09:54 21,9 °C 16,3 °C 58 % 86 % 1006,6 hPa 0,0 l/m² 10,0 km/h (2 Bft) S-SW 213 ° 1 min 190 W/m² 14,0 °C 14,6 °C 11,3 km/h (2 Bft)
25.09.2024 09:55 21,9 °C 16,3 °C 58 % 86 % 1006,6 hPa 0,0 l/m² 9,7 km/h (2 Bft) S-SW 198 ° 1 min 202 W/m² 14,0 °C 14,7 °C 12,9 km/h (3 Bft)
25.09.2024 09:56 21,9 °C 16,3 °C 58 % 86 % 1006,7 hPa 0,0 l/m² 7,8 km/h (2 Bft) S-SW 200 ° 1 min 188 W/m² 14,0 °C 15,6 °C 9,7 km/h (2 Bft)
25.09.2024 09:57 21,9 °C 16,3 °C 58 % 86 % 1006,7 hPa 0,0 l/m² 7,2 km/h (2 Bft) SW 221 ° 1 min 192 W/m² 14,0 °C 15,9 °C 11,3 km/h (2 Bft)
25.09.2024 09:58 21,9 °C 16,4 °C 58 % 86 % 1006,6 hPa 0,0 l/m² 6,4 km/h (2 Bft) S-SW 205 ° 1 min 163 W/m² 14,1 °C 16,4 °C 8,0 km/h (2 Bft)
25.09.2024 09:59 21,9 °C 16,4 °C 58 % 86 % 1006,6 hPa 0,0 l/m² 6,0 km/h (2 Bft) S-SW 208 ° 1 min 153 W/m² 14,1 °C 16,4 °C 8,0 km/h (2 Bft)
25.09.2024 10:00 21,9 °C 16,4 °C 58 % 86 % 1006,6 hPa 0,0 l/m² 10,5 km/h (2 Bft) S-SW 195 ° 1 min 148 W/m² 14,1 °C 14,5 °C 12,9 km/h (3 Bft)
25.09.2024 10:01 22,0 °C 16,4 °C 58 % 86 % 1006,6 hPa 0,0 l/m² 7,2 km/h (2 Bft) S 188 ° 1 min 148 W/m² 14,1 °C 16,0 °C 9,7 km/h (2 Bft)
25.09.2024 10:02 21,9 °C 16,5 °C 58 % 86 % 1006,6 hPa 0,0 l/m² 8,3 km/h (2 Bft) S-SW 200 ° 1 min 155 W/m² 14,1 °C 15,5 °C 12,9 km/h (3 Bft)
25.09.2024 10:03 22,0 °C 16,5 °C 58 % 86 % 1006,6 hPa 0,0 l/m² 9,0 km/h (2 Bft) S-SW 207 ° 1 min 151 W/m² 14,1 °C 15,2 °C 11,3 km/h (2 Bft)
25.09.2024 10:04 21,9 °C 16,6 °C 58 % 86 % 1006,6 hPa 0,0 l/m² 6,2 km/h (2 Bft) S 190 ° 1 min 146 W/m² 14,2 °C 16,6 °C 9,7 km/h (2 Bft)
25.09.2024 10:05 21,9 °C 16,5 °C 58 % 86 % 1006,6 hPa 0,0 l/m² 10,6 km/h (2 Bft) S-SO 155 ° 1 min 144 W/m² 14,1 °C 14,5 °C 12,9 km/h (3 Bft)
25.09.2024 10:06 21,9 °C 16,5 °C 58 % 86 % 1006,6 hPa 0,0 l/m² 10,9 km/h (2 Bft) S 179 ° 1 min 142 W/m² 14,1 °C 14,4 °C 16,1 km/h (3 Bft)
25.09.2024 10:07 22,0 °C 16,5 °C 58 % 86 % 1006,6 hPa 0,0 l/m² 11,8 km/h (2 Bft) S 182 ° 1 min 142 W/m² 14,1 °C 14,1 °C 16,1 km/h (3 Bft)
25.09.2024 10:08 21,9 °C 16,5 °C 58 % 85 % 1006,6 hPa 0,0 l/m² 11,4 km/h (2 Bft) S 184 ° 1 min 158 W/m² 14,0 °C 14,2 °C 20,9 km/h (4 Bft)
25.09.2024 10:09 22,0 °C 16,5 °C 58 % 85 % 1006,6 hPa 0,0 l/m² 19,2 km/h (3 Bft) S 180 ° 1 min 165 W/m² 14,0 °C 11,9 °C 24,1 km/h (4 Bft)
25.09.2024 10:10 22,0 °C 16,4 °C 58 % 85 % 1006,6 hPa 0,0 l/m² 15,1 km/h (3 Bft) S 182 ° 1 min 178 W/m² 13,9 °C 12,9 °C 17,7 km/h (3 Bft)
25.09.2024 10:11 21,9 °C 16,4 °C 58 % 85 % 1006,6 hPa 0,0 l/m² 12,3 km/h (2 Bft) S 186 ° 1 min 192 W/m² 13,9 °C 13,8 °C 16,1 km/h (3 Bft)
25.09.2024 10:12 21,9 °C 16,4 °C 58 % 85 % 1006,5 hPa 0,0 l/m² 11,7 km/h (2 Bft) S 181 ° 1 min 206 W/m² 13,9 °C 14,0 °C 14,5 km/h (3 Bft)
25.09.2024 10:13 21,9 °C 16,4 °C 58 % 85 % 1006,6 hPa 0,0 l/m² 18,1 km/h (3 Bft) S-SW 211 ° 1 min 225 W/m² 13,9 °C 12,0 °C 20,9 km/h (4 Bft)
25.09.2024 10:14 21,9 °C 16,4 °C 58 % 85 % 1006,6 hPa 0,0 l/m² 17,5 km/h (3 Bft) S-SW 207 ° 1 min 248 W/m² 13,9 °C 12,2 °C 19,3 km/h (3 Bft)
25.09.2024 10:15 21,9 °C 16,4 °C 58 % 85 % 1006,6 hPa 0,0 l/m² 17,1 km/h (3 Bft) S-SW 209 ° 1 min 253 W/m² 13,9 °C 12,3 °C 19,3 km/h (3 Bft)
25.09.2024 10:16 21,9 °C 16,4 °C 58 % 85 % 1006,6 hPa 0,0 l/m² 15,9 km/h (3 Bft) S-SW 208 ° 1 min 236 W/m² 13,9 °C 12,6 °C 20,9 km/h (4 Bft)
25.09.2024 10:17 22,0 °C 16,4 °C 58 % 85 % 1006,6 hPa 0,0 l/m² 16,6 km/h (3 Bft) S 191 ° 1 min 223 W/m² 13,9 °C 12,4 °C 19,3 km/h (3 Bft)
25.09.2024 10:18 22,0 °C 16,5 °C 58 % 85 % 1006,6 hPa 0,0 l/m² 11,4 km/h (2 Bft) S 178 ° 1 min 232 W/m² 14,0 °C 14,2 °C 14,5 km/h (3 Bft)
25.09.2024 10:19 22,0 °C 16,5 °C 58 % 86 % 1006,6 hPa 0,0 l/m² 14,6 km/h (3 Bft) S 190 ° 1 min 250 W/m² 14,1 °C 13,1 °C 22,5 km/h (4 Bft)
25.09.2024 10:20 22,0 °C 16,5 °C 58 % 85 % 1006,7 hPa 0,0 l/m² 15,0 km/h (3 Bft) SW 218 ° 1 min 290 W/m² 14,0 °C 13,0 °C 19,3 km/h (3 Bft)
25.09.2024 10:21 22,0 °C 16,5 °C 58 % 85 % 1006,7 hPa 0,0 l/m² 16,4 km/h (3 Bft) S-SW 198 ° 1 min 309 W/m² 14,0 °C 12,6 °C 20,9 km/h (4 Bft)
25.09.2024 10:22 22,0 °C 16,4 °C 58 % 85 % 1006,7 hPa 0,0 l/m² 18,6 km/h (3 Bft) S 183 ° 1 min 334 W/m² 13,9 °C 11,9 °C 24,1 km/h (4 Bft)
25.09.2024 10:23 22,0 °C 16,6 °C 58 % 86 % 1006,7 hPa 0,0 l/m² 18,3 km/h (3 Bft) S-SW 207 ° 1 min 325 W/m² 14,2 °C 12,2 °C 20,9 km/h (4 Bft)
25.09.2024 10:24 22,0 °C 16,6 °C 58 % 86 % 1006,7 hPa 0,0 l/m² 17,0 km/h (3 Bft) S-SW 199 ° 1 min 313 W/m² 14,2 °C 12,6 °C 22,5 km/h (4 Bft)
25.09.2024 10:25 22,0 °C 16,6 °C 58 % 86 % 1006,8 hPa 0,0 l/m² 14,8 km/h (3 Bft) S-SW 202 ° 1 min 304 W/m² 14,2 °C 13,2 °C 22,5 km/h (4 Bft)
25.09.2024 10:26 22,0 °C 16,6 °C 58 % 86 % 1006,8 hPa 0,0 l/m² 17,2 km/h (3 Bft) S 186 ° 1 min 329 W/m² 14,2 °C 12,5 °C 20,9 km/h (4 Bft)
25.09.2024 10:27 22,0 °C 16,6 °C 58 % 86 % 1006,8 hPa 0,0 l/m² 19,3 km/h (3 Bft) S-SW 192 ° 1 min 352 W/m² 14,2 °C 12,0 °C 27,4 km/h (5 Bft)
25.09.2024 10:28 22,0 °C 16,6 °C 58 % 86 % 1006,8 hPa 0,0 l/m² 19,6 km/h (3 Bft) S 185 ° 1 min 364 W/m² 14,2 °C 11,9 °C 22,5 km/h (4 Bft)
25.09.2024 10:29 22,0 °C 16,6 °C 58 % 86 % 1006,8 hPa 0,0 l/m² 15,8 km/h (3 Bft) S-SW 211 ° 1 min 441 W/m² 14,2 °C 12,9 °C 19,3 km/h (3 Bft)
25.09.2024 10:30 22,0 °C 16,6 °C 58 % 86 % 1006,9 hPa 0,0 l/m² 17,0 km/h (3 Bft) S 180 ° 1 min 441 W/m² 14,2 °C 12,6 °C 25,7 km/h (4 Bft)
25.09.2024 10:32 22,0 °C 16,7 °C 58 % 86 % 1006,8 hPa 0,0 l/m² 17,6 km/h (3 Bft) S-SW 208 ° 2 min 385 W/m² 14,3 °C 12,5 °C 24,1 km/h (4 Bft)
25.09.2024 10:33 22,0 °C 16,7 °C 58 % 85 % 1006,8 hPa 0,0 l/m² 18,9 km/h (3 Bft) S-SW 198 ° 1 min 301 W/m² 14,2 °C 12,2 °C 22,5 km/h (4 Bft)
25.09.2024 10:34 22,1 °C 16,8 °C 58 % 85 % 1006,8 hPa 0,0 l/m² 16,1 km/h (3 Bft) S-SW 202 ° 1 min 255 W/m² 14,3 °C 13,1 °C 19,3 km/h (3 Bft)
25.09.2024 10:35 22,1 °C 16,8 °C 58 % 86 % 1006,9 hPa 0,0 l/m² 14,2 km/h (3 Bft) S-SW 198 ° 1 min 221 W/m² 14,4 °C 13,6 °C 17,7 km/h (3 Bft)
25.09.2024 10:36 22,1 °C 16,8 °C 58 % 86 % 1006,8 hPa 0,0 l/m² 15,1 km/h (3 Bft) S-SW 197 ° 1 min 204 W/m² 14,4 °C 13,3 °C 20,9 km/h (4 Bft)
25.09.2024 10:37 22,1 °C 16,8 °C 58 % 85 % 1006,8 hPa 0,0 l/m² 16,4 km/h (3 Bft) S-SW 211 ° 1 min 206 W/m² 14,3 °C 13,0 °C 20,9 km/h (4 Bft)
25.09.2024 10:38 22,1 °C 16,7 °C 58 % 84 % 1006,8 hPa 0,0 l/m² 14,9 km/h (3 Bft) S-SW 201 ° 1 min 211 W/m² 14,0 °C 13,3 °C 19,3 km/h (3 Bft)
25.09.2024 10:39 22,1 °C 16,7 °C 58 % 84 % 1006,8 hPa 0,0 l/m² 14,3 km/h (3 Bft) S-SW 205 ° 1 min 216 W/m² 14,0 °C 13,5 °C 16,1 km/h (3 Bft)
25.09.2024 10:40 22,1 °C 16,7 °C 58 % 85 % 1006,8 hPa 0,0 l/m² 10,5 km/h (2 Bft) SW 220 ° 1 min 218 W/m² 14,2 °C 14,8 °C 12,9 km/h (3 Bft)
25.09.2024 10:41 22,1 °C 16,7 °C 58 % 86 % 1006,8 hPa 0,0 l/m² 11,3 km/h (2 Bft) SW 225 ° 1 min 213 W/m² 14,3 °C 14,5 °C 16,1 km/h (3 Bft)
25.09.2024 10:42 22,1 °C 16,7 °C 58 % 85 % 1006,8 hPa 0,0 l/m² 14,6 km/h (3 Bft) SW 221 ° 1 min 209 W/m² 14,2 °C 13,4 °C 17,7 km/h (3 Bft)
25.09.2024 10:43 22,1 °C 16,7 °C 58 % 85 % 1006,8 hPa 0,0 l/m² 13,9 km/h (3 Bft) S-SW 213 ° 1 min 220 W/m² 14,2 °C 13,6 °C 17,7 km/h (3 Bft)
25.09.2024 10:44 22,1 °C 16,7 °C 58 % 84 % 1006,8 hPa 0,0 l/m² 11,8 km/h (2 Bft) S-SW 207 ° 1 min 225 W/m² 14,0 °C 14,3 °C 14,5 km/h (3 Bft)
25.09.2024 10:45 22,1 °C 16,7 °C 58 % 85 % 1006,8 hPa 0,0 l/m² 14,3 km/h (3 Bft) S-SW 207 ° 1 min 230 W/m² 14,2 °C 13,5 °C 16,1 km/h (3 Bft)
25.09.2024 10:46 22,1 °C 16,7 °C 58 % 85 % 1006,8 hPa 0,0 l/m² 14,6 km/h (3 Bft) SW 227 ° 1 min 227 W/m² 14,2 °C 13,4 °C 17,7 km/h (3 Bft)
25.09.2024 10:47 22,1 °C 16,7 °C 58 % 85 % 1006,8 hPa 0,0 l/m² 11,5 km/h (2 Bft) S-SW 210 ° 1 min 220 W/m² 14,2 °C 14,4 °C 16,1 km/h (3 Bft)
25.09.2024 10:48 22,1 °C 16,7 °C 58 % 85 % 1006,9 hPa 0,0 l/m² 13,3 km/h (3 Bft) S-SW 201 ° 1 min 206 W/m² 14,2 °C 13,8 °C 16,1 km/h (3 Bft)
25.09.2024 10:49 22,1 °C 16,7 °C 58 % 85 % 1006,9 hPa 0,0 l/m² 14,6 km/h (3 Bft) S-SW 193 ° 1 min 179 W/m² 14,2 °C 13,4 °C 19,3 km/h (3 Bft)
25.09.2024 10:50 22,1 °C 16,7 °C 58 % 85 % 1006,8 hPa 0,0 l/m² 16,1 km/h (3 Bft) S-SW 192 ° 1 min 174 W/m² 14,2 °C 12,9 °C 22,5 km/h (4 Bft)
25.09.2024 10:51 22,1 °C 16,6 °C 58 % 85 % 1006,9 hPa 0,0 l/m² 21,4 km/h (4 Bft) S-SW 198 ° 1 min 176 W/m² 14,1 °C 11,5 °C 27,4 km/h (5 Bft)
25.09.2024 10:52 22,1 °C 16,6 °C 58 % 84 % 1006,9 hPa 0,0 l/m² 17,8 km/h (3 Bft) S-SW 213 ° 1 min 185 W/m² 13,9 °C 12,4 °C 22,5 km/h (4 Bft)
25.09.2024 10:53 22,1 °C 16,6 °C 58 % 84 % 1006,9 hPa 0,0 l/m² 18,2 km/h (3 Bft) SW 217 ° 1 min 188 W/m² 13,9 °C 12,2 °C 22,5 km/h (4 Bft)
25.09.2024 10:54 22,0 °C 16,6 °C 58 % 84 % 1006,9 hPa 0,0 l/m² 18,1 km/h (3 Bft) S-SW 195 ° 1 min 186 W/m² 13,9 °C 12,3 °C 20,9 km/h (4 Bft)
25.09.2024 10:55 22,1 °C 16,6 °C 58 % 84 % 1006,9 hPa 0,0 l/m² 13,4 km/h (3 Bft) S-SW 202 ° 1 min 185 W/m² 13,9 °C 13,6 °C 16,1 km/h (3 Bft)
25.09.2024 10:56 22,1 °C 16,5 °C 58 % 84 % 1006,9 hPa 0,0 l/m² 14,7 km/h (3 Bft) S-SW 207 ° 1 min 186 W/m² 13,8 °C 13,1 °C 19,3 km/h (3 Bft)
25.09.2024 10:57 22,0 °C 16,5 °C 58 % 84 % 1006,9 hPa 0,0 l/m² 15,2 km/h (3 Bft) S-SW 202 ° 1 min 192 W/m² 13,8 °C 12,9 °C 17,7 km/h (3 Bft)
25.09.2024 10:58 22,1 °C 16,5 °C 58 % 84 % 1006,9 hPa 0,0 l/m² 18,8 km/h (3 Bft) S-SW 205 ° 1 min 199 W/m² 13,8 °C 12,0 °C 24,1 km/h (4 Bft)
25.09.2024 10:59 22,1 °C 16,5 °C 58 % 84 % 1006,9 hPa 0,0 l/m² 17,8 km/h (3 Bft) S-SW 211 ° 1 min 199 W/m² 13,8 °C 12,2 °C 22,5 km/h (4 Bft)
25.09.2024 11:00 22,0 °C 16,5 °C 58 % 85 % 1006,9 hPa 0,0 l/m² 15,3 km/h (3 Bft) S-SW 206 ° 1 min 199 W/m² 14,0 °C 12,9 °C 19,3 km/h (3 Bft)
25.09.2024 11:02 22,0 °C 16,5 °C 58 % 85 % 1006,8 hPa 0,0 l/m² 17,4 km/h (3 Bft) SW 214 ° 2 min 236 W/m² 14,0 °C 12,3 °C 24,1 km/h (4 Bft)
25.09.2024 11:03 22,0 °C 16,5 °C 58 % 85 % 1006,8 hPa 0,0 l/m² 17,5 km/h (3 Bft) SW 215 ° 1 min 258 W/m² 14,0 °C 12,3 °C 22,5 km/h (4 Bft)
25.09.2024 11:04 22,1 °C 16,5 °C 58 % 85 % 1006,9 hPa 0,0 l/m² 18,3 km/h (3 Bft) SW 217 ° 1 min 267 W/m² 14,0 °C 12,1 °C 24,1 km/h (4 Bft)
25.09.2024 11:05 22,0 °C 16,4 °C 58 % 85 % 1006,9 hPa 0,0 l/m² 19,8 km/h (3 Bft) SW 218 ° 1 min 262 W/m² 13,9 °C 11,6 °C 25,7 km/h (4 Bft)
25.09.2024 11:06 22,1 °C 16,4 °C 58 % 85 % 1006,9 hPa 0,0 l/m² 17,3 km/h (3 Bft) W-SW 238 ° 1 min 246 W/m² 13,9 °C 12,2 °C 24,1 km/h (4 Bft)
25.09.2024 11:07 22,1 °C 16,4 °C 58 % 86 % 1006,9 hPa 0,0 l/m² 17,6 km/h (3 Bft) SW 220 ° 1 min 216 W/m² 14,1 °C 12,2 °C 20,9 km/h (4 Bft)
25.09.2024 11:08 22,0 °C 16,4 °C 58 % 85 % 1006,9 hPa 0,0 l/m² 16,7 km/h (3 Bft) SW 222 ° 1 min 209 W/m² 13,9 °C 12,4 °C 20,9 km/h (4 Bft)
25.09.2024 11:09 22,0 °C 16,4 °C 58 % 86 % 1006,9 hPa 0,0 l/m² 18,4 km/h (3 Bft) SW 221 ° 1 min 199 W/m² 14,1 °C 11,9 °C 20,9 km/h (4 Bft)
25.09.2024 11:10 22,0 °C 16,4 °C 58 % 86 % 1006,9 hPa 0,0 l/m² 19,8 km/h (3 Bft) SW 219 ° 1 min 185 W/m² 14,1 °C 11,6 °C 24,1 km/h (4 Bft)
25.09.2024 11:11 22,0 °C 16,4 °C 58 % 86 % 1006,9 hPa 0,0 l/m² 17,9 km/h (3 Bft) W-SW 242 ° 1 min 176 W/m² 14,1 °C 12,1 °C 22,5 km/h (4 Bft)
25.09.2024 11:12 22,0 °C 16,4 °C 58 % 85 % 1007,0 hPa 0,0 l/m² 16,4 km/h (3 Bft) S-SW 202 ° 1 min 174 W/m² 13,9 °C 12,5 °C 22,5 km/h (4 Bft)
25.09.2024 11:13 22,1 °C 16,4 °C 58 % 86 % 1007,0 hPa 0,0 l/m² 14,5 km/h (3 Bft) SW 215 ° 1 min 188 W/m² 14,1 °C 13,0 °C 17,7 km/h (3 Bft)
25.09.2024 11:14 22,0 °C 16,4 °C 58 % 86 % 1006,9 hPa 0,0 l/m² 14,2 km/h (3 Bft) SW 219 ° 1 min 214 W/m² 14,1 °C 13,1 °C 17,7 km/h (3 Bft)
25.09.2024 11:15 22,0 °C 16,4 °C 58 % 86 % 1007,1 hPa 0,0 l/m² 15,2 km/h (3 Bft) SW 223 ° 1 min 241 W/m² 14,1 °C 12,8 °C 19,3 km/h (3 Bft)
25.09.2024 11:16 22,0 °C 16,4 °C 58 % 86 % 1007,0 hPa 0,0 l/m² 13,7 km/h (3 Bft) S-SW 197 ° 1 min 251 W/m² 14,1 °C 13,3 °C 17,7 km/h (3 Bft)
25.09.2024 11:17 22,0 °C 16,4 °C 58 % 86 % 1007,0 hPa 0,0 l/m² 17,1 km/h (3 Bft) S-SW 202 ° 1 min 250 W/m² 14,1 °C 12,3 °C 20,9 km/h (4 Bft)
25.09.2024 11:18 22,0 °C 16,4 °C 58 % 86 % 1006,9 hPa 0,0 l/m² 10,7 km/h (2 Bft) S-SW 205 ° 1 min 236 W/m² 14,1 °C 14,4 °C 14,5 km/h (3 Bft)
25.09.2024 11:19 22,0 °C 16,5 °C 58 % 86 % 1006,9 hPa 0,0 l/m² 11,3 km/h (2 Bft) SW 232 ° 1 min 195 W/m² 14,1 °C 14,3 °C 19,3 km/h (3 Bft)
25.09.2024 11:20 22,0 °C 16,6 °C 58 % 86 % 1007,0 hPa 0,0 l/m² 11,1 km/h (2 Bft) S-SW 202 ° 1 min 169 W/m² 14,2 °C 14,4 °C 12,9 km/h (3 Bft)
25.09.2024 11:21 22,1 °C 16,6 °C 58 % 86 % 1006,9 hPa 0,0 l/m² 9,5 km/h (2 Bft) SW 228 ° 1 min 156 W/m² 14,2 °C 15,1 °C 12,9 km/h (3 Bft)
25.09.2024 11:22 22,0 °C 16,6 °C 58 % 86 % 1006,9 hPa 0,0 l/m² 11,0 km/h (2 Bft) SW 232 ° 1 min 155 W/m² 14,2 °C 14,5 °C 20,9 km/h (4 Bft)
25.09.2024 11:23 22,0 °C 16,6 °C 58 % 86 % 1006,9 hPa 0,0 l/m² 13,9 km/h (3 Bft) SW 219 ° 1 min 153 W/m² 14,2 °C 13,5 °C 17,7 km/h (3 Bft)
25.09.2024 11:24 22,1 °C 16,6 °C 58 % 86 % 1007,0 hPa 0,0 l/m² 14,7 km/h (3 Bft) W-SW 248 ° 1 min 132 W/m² 14,2 °C 13,2 °C 22,5 km/h (4 Bft)
25.09.2024 11:25 22,1 °C 16,6 °C 58 % 85 % 1007,0 hPa 0,0 l/m² 12,7 km/h (3 Bft) SW 231 ° 1 min 151 W/m² 14,1 °C 13,9 °C 16,1 km/h (3 Bft)
25.09.2024 11:26 22,0 °C 16,6 °C 58 % 85 % 1006,9 hPa 0,0 l/m² 13,1 km/h (3 Bft) W-SW 247 ° 1 min 181 W/m² 14,1 °C 13,7 °C 19,3 km/h (3 Bft)
25.09.2024 11:27 22,1 °C 16,6 °C 58 % 85 % 1006,9 hPa 0,0 l/m² 9,7 km/h (2 Bft) SW 221 ° 1 min 200 W/m² 14,1 °C 15,0 °C 14,5 km/h (3 Bft)
25.09.2024 11:28 22,1 °C 16,6 °C 58 % 85 % 1006,9 hPa 0,0 l/m² 12,1 km/h (2 Bft) SW 214 ° 1 min 202 W/m² 14,1 °C 14,1 °C 17,7 km/h (3 Bft)
25.09.2024 11:29 22,0 °C 16,6 °C 58 % 84 % 1006,9 hPa 0,0 l/m² 10,1 km/h (2 Bft) SW 214 ° 1 min 204 W/m² 13,9 °C 14,8 °C 12,9 km/h (3 Bft)
25.09.2024 11:30 22,1 °C 16,6 °C 58 % 85 % 1007,0 hPa 0,0 l/m² 7,8 km/h (2 Bft) S-SW 212 ° 1 min 183 W/m² 14,1 °C 15,9 °C 9,7 km/h (2 Bft)
25.09.2024 11:31 22,0 °C 16,6 °C 58 % 85 % 1006,9 hPa 0,0 l/m² 8,2 km/h (2 Bft) S-SW 211 ° 1 min 183 W/m² 14,1 °C 15,7 °C 12,9 km/h (3 Bft)
25.09.2024 11:32 22,0 °C 16,7 °C 58 % 86 % 1007,0 hPa 0,0 l/m² 8,3 km/h (2 Bft) SW 225 ° 1 min 181 W/m² 14,3 °C 15,7 °C 9,7 km/h (2 Bft)
25.09.2024 11:33 22,0 °C 16,7 °C 58 % 85 % 1006,9 hPa 0,0 l/m² 8,5 km/h (2 Bft) SW 225 ° 1 min 185 W/m² 14,2 °C 15,6 °C 9,7 km/h (2 Bft)
25.09.2024 11:34 22,1 °C 16,7 °C 58 % 85 % 1006,9 hPa 0,0 l/m² 14,1 km/h (3 Bft) S-SW 204 ° 1 min 186 W/m² 14,2 °C 13,5 °C 16,1 km/h (3 Bft)
25.09.2024 11:35 22,0 °C 16,7 °C 58 % 84 % 1006,9 hPa 0,0 l/m² 12,2 km/h (2 Bft) SW 216 ° 1 min 186 W/m² 14,0 °C 14,2 °C 16,1 km/h (3 Bft)
25.09.2024 11:37 22,0 °C 16,7 °C 58 % 84 % 1006,9 hPa 0,0 l/m² 10,5 km/h (2 Bft) S-SW 204 ° 2 min 148 W/m² 14,0 °C 14,8 °C 14,5 km/h (3 Bft)
25.09.2024 11:38 22,0 °C 16,7 °C 58 % 84 % 1006,9 hPa 0,0 l/m² 11,1 km/h (2 Bft) S-SW 212 ° 1 min 144 W/m² 14,0 °C 14,6 °C 14,5 km/h (3 Bft)
25.09.2024 11:39 22,0 °C 16,7 °C 58 % 85 % 1006,9 hPa 0,0 l/m² 11,4 km/h (2 Bft) S-SW 203 ° 1 min 141 W/m² 14,2 °C 14,4 °C 19,3 km/h (3 Bft)
25.09.2024 11:40 22,0 °C 16,8 °C 58 % 84 % 1006,9 hPa 0,0 l/m² 14,6 km/h (3 Bft) S-SW 201 ° 1 min 132 W/m² 14,1 °C 13,5 °C 20,9 km/h (4 Bft)
25.09.2024 11:41 22,1 °C 16,8 °C 58 % 85 % 1006,9 hPa 0,0 l/m² 14,3 km/h (3 Bft) S-SW 203 ° 1 min 125 W/m² 14,3 °C 13,6 °C 19,3 km/h (3 Bft)
25.09.2024 11:42 22,0 °C 16,8 °C 58 % 85 % 1006,9 hPa 0,0 l/m² 11,2 km/h (2 Bft) S 176 ° 1 min 127 W/m² 14,3 °C 14,6 °C 17,7 km/h (3 Bft)
25.09.2024 11:43 22,0 °C 16,8 °C 58 % 85 % 1006,9 hPa 0,0 l/m² 12,3 km/h (2 Bft) SW 218 ° 1 min 121 W/m² 14,3 °C 14,2 °C 17,7 km/h (3 Bft)
25.09.2024 11:44 22,0 °C 16,8 °C 58 % 84 % 1006,8 hPa 0,0 l/m² 12,0 km/h (2 Bft) S-SO 161 ° 1 min 116 W/m² 14,1 °C 14,3 °C 16,1 km/h (3 Bft)
25.09.2024 11:45 22,0 °C 16,8 °C 58 % 84 % 1006,8 hPa 0,0 l/m² 14,3 km/h (3 Bft) S 186 ° 1 min 118 W/m² 14,1 °C 13,6 °C 19,3 km/h (3 Bft)
25.09.2024 11:47 22,0 °C 16,8 °C 58 % 84 % 1006,8 hPa 0,0 l/m² 13,6 km/h (3 Bft) S 169 ° 2 min 120 W/m² 14,1 °C 13,8 °C 22,5 km/h (4 Bft)
25.09.2024 11:48 22,0 °C 16,8 °C 58 % 84 % 1006,8 hPa 0,0 l/m² 16,8 km/h (3 Bft) S-SW 202 ° 1 min 125 W/m² 14,1 °C 12,9 °C 24,1 km/h (4 Bft)
25.09.2024 11:49 22,0 °C 16,8 °C 58 % 83 % 1006,8 hPa 0,0 l/m² 15,1 km/h (3 Bft) S-SW 193 ° 1 min 134 W/m² 13,9 °C 13,3 °C 17,7 km/h (3 Bft)
25.09.2024 11:50 22,0 °C 16,8 °C 58 % 83 % 1006,8 hPa 0,0 l/m² 13,9 km/h (3 Bft) S-SW 201 ° 1 min 149 W/m² 13,9 °C 13,7 °C 16,1 km/h (3 Bft)
25.09.2024 11:51 22,0 °C 16,8 °C 58 % 84 % 1006,9 hPa 0,0 l/m² 12,7 km/h (3 Bft) S 180 ° 1 min 165 W/m² 14,1 °C 14,1 °C 14,5 km/h (3 Bft)
25.09.2024 11:52 22,0 °C 16,8 °C 58 % 84 % 1006,8 hPa 0,0 l/m² 11,9 km/h (2 Bft) S 181 ° 1 min 158 W/m² 14,1 °C 14,4 °C 16,1 km/h (3 Bft)
25.09.2024 11:53 22,0 °C 16,8 °C 58 % 84 % 1006,9 hPa 0,0 l/m² 11,5 km/h (2 Bft) S 169 ° 1 min 137 W/m² 14,1 °C 14,5 °C 14,5 km/h (3 Bft)
25.09.2024 11:54 22,0 °C 16,8 °C 58 % 84 % 1006,9 hPa 0,0 l/m² 13,1 km/h (3 Bft) S 182 ° 1 min 120 W/m² 14,1 °C 14,0 °C 19,3 km/h (3 Bft)
25.09.2024 11:55 22,0 °C 16,8 °C 58 % 84 % 1006,9 hPa 0,0 l/m² 14,4 km/h (3 Bft) S 170 ° 1 min 114 W/m² 14,1 °C 13,6 °C 17,7 km/h (3 Bft)
25.09.2024 11:57 22,0 °C 16,8 °C 58 % 84 % 1006,9 hPa 0,0 l/m² 17,3 km/h (3 Bft) S 174 ° 2 min 123 W/m² 14,1 °C 12,7 °C 20,9 km/h (4 Bft)
25.09.2024 11:58 22,0 °C 16,8 °C 58 % 84 % 1006,9 hPa 0,0 l/m² 15,6 km/h (3 Bft) S 175 ° 1 min 148 W/m² 14,1 °C 13,2 °C 19,3 km/h (3 Bft)
25.09.2024 11:59 22,0 °C 16,8 °C 58 % 84 % 1006,8 hPa 0,0 l/m² 13,1 km/h (3 Bft) S 188 ° 1 min 197 W/m² 14,1 °C 14,0 °C 16,1 km/h (3 Bft)
25.09.2024 12:00 22,0 °C 16,8 °C 58 % 84 % 1006,9 hPa 0,0 l/m² 10,5 km/h (2 Bft) S-SW 193 ° 1 min 192 W/m² 14,1 °C 14,9 °C 16,1 km/h (3 Bft)
25.09.2024 12:01 22,0 °C 16,8 °C 58 % 84 % 1006,9 hPa 0,0 l/m² 15,2 km/h (3 Bft) S 191 ° 1 min 188 W/m² 14,1 °C 13,3 °C 17,7 km/h (3 Bft)
25.09.2024 12:02 22,0 °C 16,8 °C 58 % 84 % 1006,8 hPa 0,0 l/m² 9,5 km/h (2 Bft) S 187 ° 1 min 192 W/m² 14,1 °C 15,3 °C 12,9 km/h (3 Bft)
25.09.2024 12:03 22,0 °C 16,9 °C 58 % 84 % 1006,8 hPa 0,0 l/m² 12,6 km/h (3 Bft) S 180 ° 1 min 207 W/m² 14,2 °C 14,3 °C 17,7 km/h (3 Bft)
25.09.2024 12:04 22,0 °C 16,9 °C 58 % 84 % 1006,8 hPa 0,0 l/m² 15,2 km/h (3 Bft) S-SW 208 ° 1 min 218 W/m² 14,2 °C 13,4 °C 22,5 km/h (4 Bft)
25.09.2024 12:05 22,0 °C 16,9 °C 58 % 84 % 1006,8 hPa 0,0 l/m² 13,3 km/h (3 Bft) S 175 ° 1 min 155 W/m² 14,2 °C 14,0 °C 20,9 km/h (4 Bft)
25.09.2024 12:06 22,0 °C 17,0 °C 58 % 84 % 1006,8 hPa 0,0 l/m² 16,5 km/h (3 Bft) S-SW 198 ° 1 min 142 W/m² 14,3 °C 13,2 °C 20,9 km/h (4 Bft)
25.09.2024 12:07 22,1 °C 17,0 °C 58 % 84 % 1006,8 hPa 0,0 l/m² 14,0 km/h (3 Bft) S 180 ° 1 min 132 W/m² 14,3 °C 13,9 °C 16,1 km/h (3 Bft)
25.09.2024 12:08 22,0 °C 17,1 °C 58 % 83 % 1006,8 hPa 0,0 l/m² 13,6 km/h (3 Bft) S 183 ° 1 min 130 W/m² 14,2 °C 14,2 °C 17,7 km/h (3 Bft)
25.09.2024 12:09 22,0 °C 17,1 °C 58 % 83 % 1006,8 hPa 0,0 l/m² 9,9 km/h (2 Bft) SW 219 ° 1 min 139 W/m² 14,2 °C 15,5 °C 12,9 km/h (3 Bft)
25.09.2024 12:10 22,0 °C 17,1 °C 58 % 83 % 1006,8 hPa 0,0 l/m² 14,6 km/h (3 Bft) S 182 ° 1 min 155 W/m² 14,2 °C 13,9 °C 19,3 km/h (3 Bft)
25.09.2024 12:11 22,0 °C 17,1 °C 58 % 83 % 1006,8 hPa 0,0 l/m² 15,7 km/h (3 Bft) S 189 ° 1 min 162 W/m² 14,2 °C 13,5 °C 19,3 km/h (3 Bft)
25.09.2024 12:12 22,0 °C 17,1 °C 58 % 84 % 1006,9 hPa 0,0 l/m² 11,9 km/h (2 Bft) S 175 ° 1 min 151 W/m² 14,4 °C 14,7 °C 16,1 km/h (3 Bft)
25.09.2024 12:13 22,0 °C 17,2 °C 58 % 83 % 1006,8 hPa 0,0 l/m² 15,0 km/h (3 Bft) S 173 ° 1 min 148 W/m² 14,3 °C 13,9 °C 19,3 km/h (3 Bft)
25.09.2024 12:14 22,0 °C 17,2 °C 58 % 83 % 1006,8 hPa 0,0 l/m² 19,0 km/h (3 Bft) S-SW 200 ° 1 min 137 W/m² 14,3 °C 12,8 °C 25,7 km/h (4 Bft)
25.09.2024 12:15 22,0 °C 17,2 °C 58 % 83 % 1006,8 hPa 0,0 l/m² 18,8 km/h (3 Bft) S 182 ° 1 min 134 W/m² 14,3 °C 12,9 °C 24,1 km/h (4 Bft)
25.09.2024 12:16 22,0 °C 17,2 °C 58 % 83 % 1006,8 hPa 0,0 l/m² 18,6 km/h (3 Bft) S 188 ° 1 min 118 W/m² 14,3 °C 12,9 °C 24,1 km/h (4 Bft)
25.09.2024 12:17 22,0 °C 17,2 °C 58 % 83 % 1006,8 hPa 0,0 l/m² 15,6 km/h (3 Bft) S 180 ° 1 min 105 W/m² 14,3 °C 13,7 °C 22,5 km/h (4 Bft)
25.09.2024 12:18 22,0 °C 17,2 °C 58 % 82 % 1006,8 hPa 0,0 l/m² 15,5 km/h (3 Bft) S-SO 168 ° 1 min 121 W/m² 14,1 °C 13,7 °C 19,3 km/h (3 Bft)
25.09.2024 12:19 22,0 °C 17,3 °C 58 % 83 % 1006,8 hPa 0,0 l/m² 13,3 km/h (3 Bft) S-SO 165 ° 1 min 132 W/m² 14,4 °C 14,5 °C 24,1 km/h (4 Bft)
25.09.2024 12:20 22,0 °C 17,2 °C 58 % 83 % 1006,8 hPa 0,0 l/m² 17,8 km/h (3 Bft) S-SW 205 ° 1 min 134 W/m² 14,3 °C 13,1 °C 27,4 km/h (5 Bft)
25.09.2024 12:21 22,0 °C 17,2 °C 58 % 82 % 1006,8 hPa 0,0 l/m² 21,8 km/h (4 Bft) S-SW 192 ° 1 min 135 W/m² 14,1 °C 12,2 °C 25,7 km/h (4 Bft)
25.09.2024 12:22 22,0 °C 17,2 °C 58 % 83 % 1006,8 hPa 0,0 l/m² 18,5 km/h (3 Bft) S 190 ° 1 min 128 W/m² 14,3 °C 12,9 °C 24,1 km/h (4 Bft)
25.09.2024 12:23 22,0 °C 17,2 °C 58 % 82 % 1006,7 hPa 0,0 l/m² 18,8 km/h (3 Bft) S 189 ° 1 min 123 W/m² 14,1 °C 12,9 °C 22,5 km/h (4 Bft)
25.09.2024 12:24 22,0 °C 17,3 °C 58 % 82 % 1006,8 hPa 0,0 l/m² 13,0 km/h (3 Bft) SO 138 ° 1 min 123 W/m² 14,2 °C 14,6 °C 17,7 km/h (3 Bft)
25.09.2024 12:25 22,0 °C 17,3 °C 58 % 83 % 1006,7 hPa 0,0 l/m² 14,1 km/h (3 Bft) S-SO 163 ° 1 min 137 W/m² 14,4 °C 14,2 °C 20,9 km/h (4 Bft)
25.09.2024 12:26 22,0 °C 17,3 °C 58 % 82 % 1006,7 hPa 0,0 l/m² 18,1 km/h (3 Bft) S 171 ° 1 min 151 W/m² 14,2 °C 13,2 °C 22,5 km/h (4 Bft)
25.09.2024 12:27 22,0 °C 17,3 °C 58 % 83 % 1006,7 hPa 0,0 l/m² 14,3 km/h (3 Bft) S 169 ° 1 min 149 W/m² 14,4 °C 14,2 °C 17,7 km/h (3 Bft)
25.09.2024 12:28 22,0 °C 17,3 °C 58 % 83 % 1006,6 hPa 0,0 l/m² 12,9 km/h (3 Bft) S 191 ° 1 min 146 W/m² 14,4 °C 14,6 °C 27,4 km/h (5 Bft)
25.09.2024 12:29 22,0 °C 17,3 °C 58 % 83 % 1006,7 hPa 0,0 l/m² 19,2 km/h (3 Bft) S 171 ° 1 min 176 W/m² 14,4 °C 12,9 °C 24,1 km/h (4 Bft)
25.09.2024 12:30 22,0 °C 17,3 °C 58 % 82 % 1006,7 hPa 0,0 l/m² 19,2 km/h (3 Bft) S-SO 167 ° 1 min 185 W/m² 14,2 °C 12,9 °C 25,7 km/h (4 Bft)
25.09.2024 12:31 22,0 °C 17,3 °C 58 % 82 % 1006,6 hPa 0,0 l/m² 15,5 km/h (3 Bft) S 173 ° 1 min 186 W/m² 14,2 °C 13,8 °C 19,3 km/h (3 Bft)
25.09.2024 12:32 22,0 °C 17,4 °C 58 % 82 % 1006,6 hPa 0,0 l/m² 15,0 km/h (3 Bft) S 175 ° 1 min 195 W/m² 14,3 °C 14,1 °C 20,9 km/h (4 Bft)
25.09.2024 12:33 22,0 °C 17,4 °C 58 % 83 % 1006,6 hPa 0,0 l/m² 11,0 km/h (2 Bft) S 186 ° 1 min 202 W/m² 14,5 °C 15,4 °C 14,5 km/h (3 Bft)
25.09.2024 12:34 22,0 °C 17,4 °C 58 % 83 % 1006,6 hPa 0,0 l/m² 14,1 km/h (3 Bft) S 179 ° 1 min 193 W/m² 14,5 °C 14,4 °C 19,3 km/h (3 Bft)
25.09.2024 12:35 22,0 °C 17,5 °C 58 % 82 % 1006,6 hPa 0,0 l/m² 12,7 km/h (3 Bft) S 187 ° 1 min 162 W/m² 14,4 °C 14,9 °C 16,1 km/h (3 Bft)
25.09.2024 12:36 22,0 °C 17,6 °C 58 % 83 % 1006,7 hPa 0,0 l/m² 14,6 km/h (3 Bft) SW 223 ° 1 min 158 W/m² 14,7 °C 14,5 °C 22,5 km/h (4 Bft)
25.09.2024 12:37 22,0 °C 17,5 °C 58 % 83 % 1006,7 hPa 0,0 l/m² 17,0 km/h (3 Bft) S 185 ° 1 min 169 W/m² 14,6 °C 13,7 °C 19,3 km/h (3 Bft)
25.09.2024 12:38 22,0 °C 17,6 °C 58 % 82 % 1006,6 hPa 0,0 l/m² 14,3 km/h (3 Bft) S-SO 167 ° 1 min 185 W/m² 14,5 °C 14,5 °C 17,7 km/h (3 Bft)
25.09.2024 12:39 22,0 °C 17,6 °C 58 % 83 % 1006,6 hPa 0,0 l/m² 12,7 km/h (3 Bft) S 184 ° 1 min 197 W/m² 14,7 °C 15,0 °C 25,7 km/h (4 Bft)
25.09.2024 12:40 21,9 °C 17,6 °C 58 % 82 % 1006,7 hPa 0,0 l/m² 14,3 km/h (3 Bft) S 188 ° 1 min 165 W/m² 14,5 °C 14,5 °C 19,3 km/h (3 Bft)
25.09.2024 12:41 22,0 °C 17,6 °C 58 % 82 % 1006,6 hPa 0,0 l/m² 18,0 km/h (3 Bft) S-SW 192 ° 1 min 148 W/m² 14,5 °C 13,6 °C 27,4 km/h (5 Bft)
25.09.2024 12:42 22,0 °C 17,6 °C 58 % 82 % 1006,6 hPa 0,0 l/m² 14,8 km/h (3 Bft) S-SW 210 ° 1 min 135 W/m² 14,5 °C 14,4 °C 20,9 km/h (4 Bft)
25.09.2024 12:43 22,0 °C 17,7 °C 58 % 82 % 1006,6 hPa 0,0 l/m² 16,0 km/h (3 Bft) SW 214 ° 1 min 142 W/m² 14,6 °C 14,2 °C 19,3 km/h (3 Bft)
25.09.2024 12:44 22,0 °C 17,7 °C 58 % 81 % 1006,6 hPa 0,0 l/m² 16,4 km/h (3 Bft) S 191 ° 1 min 163 W/m² 14,4 °C 14,1 °C 20,9 km/h (4 Bft)
25.09.2024 12:46 22,0 °C 17,7 °C 58 % 81 % 1006,6 hPa 0,0 l/m² 19,3 km/h (3 Bft) S-SW 210 ° 2 min 190 W/m² 14,4 °C 13,4 °C 27,4 km/h (5 Bft)
25.09.2024 12:47 22,0 °C 17,7 °C 58 % 81 % 1006,6 hPa 0,0 l/m² 20,6 km/h (4 Bft) S 185 ° 1 min 163 W/m² 14,4 °C 13,1 °C 22,5 km/h (4 Bft)
25.09.2024 12:48 22,1 °C 17,7 °C 58 % 80 % 1006,6 hPa 0,0 l/m² 21,3 km/h (4 Bft) S 189 ° 1 min 151 W/m² 14,2 °C 13,0 °C 30,6 km/h (5 Bft)
25.09.2024 12:49 22,0 °C 17,7 °C 58 % 80 % 1006,5 hPa 0,0 l/m² 19,9 km/h (4 Bft) S-SW 211 ° 1 min 146 W/m² 14,2 °C 13,3 °C 25,7 km/h (4 Bft)
25.09.2024 12:50 22,0 °C 17,7 °C 58 % 80 % 1006,5 hPa 0,0 l/m² 18,9 km/h (3 Bft) S-SW 204 ° 1 min 142 W/m² 14,2 °C 13,5 °C 22,5 km/h (4 Bft)
25.09.2024 12:51 22,0 °C 17,7 °C 58 % 80 % 1006,5 hPa 0,0 l/m² 17,6 km/h (3 Bft) S 186 ° 1 min 135 W/m² 14,2 °C 13,8 °C 22,5 km/h (4 Bft)
25.09.2024 12:52 22,0 °C 17,7 °C 58 % 80 % 1006,5 hPa 0,0 l/m² 18,8 km/h (3 Bft) S 175 ° 1 min 163 W/m² 14,2 °C 13,5 °C 24,1 km/h (4 Bft)
25.09.2024 12:53 22,0 °C 17,7 °C 58 % 80 % 1006,5 hPa 0,0 l/m² 17,4 km/h (3 Bft) S-SW 192 ° 1 min 155 W/m² 14,2 °C 13,8 °C 25,7 km/h (4 Bft)
25.09.2024 12:54 22,0 °C 17,8 °C 58 % 80 % 1006,4 hPa 0,0 l/m² 12,5 km/h (2 Bft) S-SW 192 ° 1 min 135 W/m² 14,3 °C 15,3 °C 16,1 km/h (3 Bft)
25.09.2024 12:55 22,0 °C 17,8 °C 58 % 81 % 1006,5 hPa 0,0 l/m² 17,2 km/h (3 Bft) S-SO 167 ° 1 min 113 W/m² 14,5 °C 14,0 °C 24,1 km/h (4 Bft)
25.09.2024 12:56 22,0 °C 17,7 °C 58 % 80 % 1006,4 hPa 0,0 l/m² 15,4 km/h (3 Bft) S-SW 203 ° 1 min 91 W/m² 14,2 °C 14,4 °C 22,5 km/h (4 Bft)
25.09.2024 12:57 22,0 °C 17,8 °C 58 % 80 % 1006,4 hPa 0,0 l/m² 17,6 km/h (3 Bft) S-SW 196 ° 1 min 79 W/m² 14,3 °C 13,9 °C 24,1 km/h (4 Bft)
25.09.2024 12:58 22,0 °C 17,7 °C 58 % 80 % 1006,5 hPa 0,0 l/m² 20,3 km/h (4 Bft) S-SW 204 ° 1 min 91 W/m² 14,2 °C 13,2 °C 25,7 km/h (4 Bft)
25.09.2024 12:59 22,0 °C 17,7 °C 58 % 80 % 1006,4 hPa 0,0 l/m² 23,5 km/h (4 Bft) S-SW 201 ° 1 min 111 W/m² 14,2 °C 12,5 °C 30,6 km/h (5 Bft)
25.09.2024 13:00 22,0 °C 17,7 °C 58 % 79 % 1006,4 hPa 0,0 l/m² 23,5 km/h (4 Bft) S-SW 201 ° 1 min 130 W/m² 14,0 °C 12,5 °C 30,6 km/h (5 Bft)
25.09.2024 13:01 22,0 °C 17,7 °C 58 % 80 % 1006,5 hPa 0,0 l/m² 21,2 km/h (4 Bft) S 189 ° 1 min 155 W/m² 14,2 °C 13,0 °C 25,7 km/h (4 Bft)
25.09.2024 13:02 22,0 °C 17,7 °C 58 % 80 % 1006,5 hPa 0,0 l/m² 16,5 km/h (3 Bft) S 180 ° 1 min 134 W/m² 14,2 °C 14,1 °C 22,5 km/h (4 Bft)
25.09.2024 13:03 22,0 °C 17,7 °C 58 % 80 % 1006,5 hPa 0,0 l/m² 21,6 km/h (4 Bft) SW 215 ° 1 min 127 W/m² 14,2 °C 12,9 °C 30,6 km/h (5 Bft)
25.09.2024 13:04 22,0 °C 17,6 °C 58 % 80 % 1006,5 hPa 0,0 l/m² 18,1 km/h (3 Bft) S-SW 205 ° 1 min 146 W/m² 14,1 °C 13,5 °C 24,1 km/h (4 Bft)
25.09.2024 13:05 22,0 °C 17,7 °C 58 % 79 % 1006,5 hPa 0,0 l/m² 21,3 km/h (4 Bft) S-SW 196 ° 1 min 139 W/m² 14,0 °C 13,0 °C 25,7 km/h (4 Bft)
25.09.2024 13:06 22,0 °C 17,7 °C 58 % 80 % 1006,5 hPa 0,0 l/m² 20,0 km/h (4 Bft) S-SW 207 ° 1 min 121 W/m² 14,2 °C 13,2 °C 25,7 km/h (4 Bft)
25.09.2024 13:07 22,0 °C 17,7 °C 58 % 79 % 1006,6 hPa 0,0 l/m² 23,2 km/h (4 Bft) S-SW 210 ° 1 min 130 W/m² 14,0 °C 12,6 °C 29,0 km/h (5 Bft)
25.09.2024 13:08 22,0 °C 17,7 °C 58 % 80 % 1006,6 hPa 0,0 l/m² 19,4 km/h (3 Bft) S-SW 205 ° 1 min 137 W/m² 14,2 °C 13,4 °C 25,7 km/h (4 Bft)
25.09.2024 13:09 22,0 °C 17,7 °C 58 % 80 % 1006,6 hPa 0,0 l/m² 16,0 km/h (3 Bft) SW 225 ° 1 min 116 W/m² 14,2 °C 14,2 °C 20,9 km/h (4 Bft)
25.09.2024 13:10 22,0 °C 17,7 °C 58 % 80 % 1006,6 hPa 0,0 l/m² 18,2 km/h (3 Bft) S-SW 205 ° 1 min 100 W/m² 14,2 °C 13,6 °C 22,5 km/h (4 Bft)
25.09.2024 13:11 22,0 °C 17,7 °C 58 % 80 % 1006,6 hPa 0,0 l/m² 20,5 km/h (4 Bft) W-SW 248 ° 1 min 104 W/m² 14,2 °C 13,1 °C 29,0 km/h (5 Bft)
25.09.2024 13:12 22,0 °C 17,7 °C 58 % 80 % 1006,7 hPa 0,0 l/m² 13,3 km/h (3 Bft) W-SW 246 ° 1 min 120 W/m² 14,2 °C 15,0 °C 17,7 km/h (3 Bft)
25.09.2024 13:13 22,0 °C 17,6 °C 58 % 80 % 1006,7 hPa 0,0 l/m² 7,4 km/h (2 Bft) W-SW 244 ° 1 min 146 W/m² 14,1 °C 17,1 °C 12,9 km/h (3 Bft)
25.09.2024 13:14 22,0 °C 17,5 °C 58 % 80 % 1006,7 hPa 0,0 l/m² 12,4 km/h (2 Bft) W 267 ° 1 min 162 W/m² 14,0 °C 15,0 °C 16,1 km/h (3 Bft)
25.09.2024 13:15 22,0 °C 17,4 °C 58 % 80 % 1006,6 hPa 0,0 l/m² 15,0 km/h (3 Bft) W-SW 238 ° 1 min 162 W/m² 13,9 °C 14,1 °C 19,3 km/h (3 Bft)
25.09.2024 13:16 22,0 °C 17,3 °C 58 % 80 % 1006,7 hPa 0,0 l/m² 11,5 km/h (2 Bft) W-SW 254 ° 1 min 162 W/m² 13,8 °C 15,1 °C 16,1 km/h (3 Bft)
25.09.2024 13:17 22,1 °C 17,2 °C 58 % 81 % 1006,7 hPa 0,0 l/m² 13,4 km/h (3 Bft) W 261 ° 1 min 155 W/m² 13,9 °C 14,3 °C 19,3 km/h (3 Bft)
25.09.2024 13:18 22,0 °C 17,2 °C 58 % 81 % 1006,6 hPa 0,0 l/m² 13,0 km/h (3 Bft) W-SW 252 ° 1 min 146 W/m² 13,9 °C 14,5 °C 17,7 km/h (3 Bft)
25.09.2024 13:19 22,1 °C 17,2 °C 58 % 81 % 1006,6 hPa 0,0 l/m² 11,5 km/h (2 Bft) W-SW 245 ° 1 min 134 W/m² 13,9 °C 15,0 °C 14,5 km/h (3 Bft)
25.09.2024 13:20 22,0 °C 17,2 °C 58 % 82 % 1006,7 hPa 0,0 l/m² 9,1 km/h (2 Bft) W-SW 248 ° 1 min 139 W/m² 14,1 °C 15,9 °C 14,5 km/h (3 Bft)
25.09.2024 13:21 22,0 °C 17,2 °C 58 % 82 % 1006,7 hPa 0,0 l/m² 7,4 km/h (2 Bft) W 273 ° 1 min 155 W/m² 14,1 °C 16,7 °C 14,5 km/h (3 Bft)
25.09.2024 13:22 22,0 °C 17,2 °C 58 % 82 % 1006,6 hPa 0,0 l/m² 8,5 km/h (2 Bft) W-SW 247 ° 1 min 149 W/m² 14,1 °C 16,2 °C 12,9 km/h (3 Bft)
25.09.2024 13:23 22,0 °C 17,2 °C 58 % 82 % 1006,7 hPa 0,0 l/m² 10,6 km/h (2 Bft) W-SW 251 ° 1 min 169 W/m² 14,1 °C 15,3 °C 14,5 km/h (3 Bft)
25.09.2024 13:24 22,0 °C 17,2 °C 58 % 82 % 1006,7 hPa 0,0 l/m² 8,6 km/h (2 Bft) W-SW 248 ° 1 min 206 W/m² 14,1 °C 16,1 °C 12,9 km/h (3 Bft)
25.09.2024 13:25 22,0 °C 17,1 °C 58 % 82 % 1006,7 hPa 0,0 l/m² 8,1 km/h (2 Bft) W-SW 241 ° 1 min 236 W/m² 14,0 °C 16,3 °C 12,9 km/h (3 Bft)
25.09.2024 13:26 22,0 °C 17,2 °C 58 % 83 % 1006,7 hPa 0,0 l/m² 6,9 km/h (2 Bft) W-SW 248 ° 1 min 267 W/m² 14,3 °C 17,0 °C 11,3 km/h (2 Bft)
25.09.2024 13:27 22,0 °C 17,2 °C 58 % 83 % 1006,7 hPa 0,0 l/m² 8,6 km/h (2 Bft) W 268 ° 1 min 234 W/m² 14,3 °C 16,1 °C 16,1 km/h (3 Bft)
25.09.2024 13:28 22,0 °C 17,2 °C 58 % 82 % 1006,7 hPa 0,0 l/m² 8,7 km/h (2 Bft) SW 219 ° 1 min 211 W/m² 14,1 °C 16,1 °C 14,5 km/h (3 Bft)
25.09.2024 13:29 22,0 °C 17,2 °C 58 % 82 % 1006,7 hPa 0,0 l/m² 10,8 km/h (2 Bft) W-SW 253 ° 1 min 214 W/m² 14,1 °C 15,2 °C 14,5 km/h (3 Bft)
25.09.2024 13:30 22,0 °C 17,3 °C 58 % 82 % 1006,8 hPa 0,0 l/m² 9,8 km/h (2 Bft) W-SW 237 ° 1 min 236 W/m² 14,2 °C 15,7 °C 14,5 km/h (3 Bft)
25.09.2024 13:31 22,1 °C 17,3 °C 58 % 82 % 1006,7 hPa 0,0 l/m² 11,6 km/h (2 Bft) SW 225 ° 1 min 274 W/m² 14,2 °C 15,1 °C 17,7 km/h (3 Bft)
25.09.2024 13:32 22,1 °C 17,4 °C 58 % 82 % 1006,7 hPa 0,0 l/m² 11,4 km/h (2 Bft) W-SW 244 ° 1 min 213 W/m² 14,3 °C 15,2 °C 16,1 km/h (3 Bft)
25.09.2024 13:33 22,1 °C 17,4 °C 58 % 82 % 1006,7 hPa 0,0 l/m² 11,7 km/h (2 Bft) S-SW 207 ° 1 min 218 W/m² 14,3 °C 15,1 °C 17,7 km/h (3 Bft)
25.09.2024 13:34 22,1 °C 17,6 °C 58 % 83 % 1006,7 hPa 0,0 l/m² 12,8 km/h (3 Bft) S-SW 211 ° 1 min 237 W/m² 14,7 °C 15,0 °C 16,1 km/h (3 Bft)
25.09.2024 13:35 22,1 °C 17,6 °C 58 % 82 % 1006,7 hPa 0,0 l/m² 7,4 km/h (2 Bft) SW 220 ° 1 min 272 W/m² 14,5 °C 17,1 °C 11,3 km/h (2 Bft)
25.09.2024 13:36 22,1 °C 17,7 °C 58 % 82 % 1006,7 hPa 0,0 l/m² 14,1 km/h (3 Bft) S-SW 203 ° 1 min 260 W/m² 14,6 °C 14,7 °C 20,9 km/h (4 Bft)
25.09.2024 13:37 22,1 °C 17,8 °C 58 % 81 % 1006,7 hPa 0,0 l/m² 15,1 km/h (3 Bft) S 182 ° 1 min 251 W/m² 14,5 °C 14,6 °C 24,1 km/h (4 Bft)
25.09.2024 13:38 22,1 °C 17,8 °C 58 % 82 % 1006,7 hPa 0,0 l/m² 13,3 km/h (3 Bft) S-SW 196 ° 1 min 258 W/m² 14,7 °C 15,1 °C 22,5 km/h (4 Bft)
25.09.2024 13:39 22,1 °C 17,9 °C 58 % 82 % 1006,6 hPa 0,0 l/m² 11,5 km/h (2 Bft) SW 224 ° 1 min 297 W/m² 14,8 °C 15,8 °C 14,5 km/h (3 Bft)
25.09.2024 13:40 22,1 °C 17,9 °C 58 % 81 % 1006,7 hPa 0,0 l/m² 18,0 km/h (3 Bft) S-SW 208 ° 1 min 329 W/m² 14,6 °C 13,9 °C 27,4 km/h (5 Bft)
25.09.2024 13:41 22,1 °C 18,0 °C 58 % 81 % 1006,6 hPa 0,0 l/m² 18,3 km/h (3 Bft) S-SW 213 ° 1 min 367 W/m² 14,7 °C 14,0 °C 27,4 km/h (5 Bft)
25.09.2024 13:42 22,1 °C 18,1 °C 58 % 79 % 1006,6 hPa 0,0 l/m² 15,4 km/h (3 Bft) S-SW 204 ° 1 min 338 W/m² 14,4 °C 14,8 °C 24,1 km/h (4 Bft)
25.09.2024 13:43 22,1 °C 18,1 °C 58 % 79 % 1006,6 hPa 0,0 l/m² 16,9 km/h (3 Bft) S-SW 205 ° 1 min 422 W/m² 14,4 °C 14,5 °C 24,1 km/h (4 Bft)
25.09.2024 13:44 22,1 °C 18,3 °C 58 % 80 % 1006,6 hPa 0,0 l/m² 15,0 km/h (3 Bft) S-SW 205 ° 1 min 403 W/m² 14,8 °C 15,2 °C 19,3 km/h (3 Bft)
25.09.2024 13:45 22,1 °C 18,4 °C 57 % 81 % 1006,6 hPa 0,0 l/m² 14,0 km/h (3 Bft) S-SW 212 ° 1 min 357 W/m² 15,1 °C 15,6 °C 17,7 km/h (3 Bft)
25.09.2024 13:46 22,1 °C 18,5 °C 57 % 79 % 1006,7 hPa 0,0 l/m² 11,2 km/h (2 Bft) SW 220 ° 1 min 221 W/m² 14,8 °C 16,6 °C 14,5 km/h (3 Bft)
25.09.2024 13:47 22,1 °C 18,6 °C 58 % 81 % 1006,7 hPa 0,0 l/m² 13,1 km/h (3 Bft) SW 217 ° 1 min 237 W/m² 15,3 °C 16,1 °C 20,9 km/h (4 Bft)
25.09.2024 13:48 22,1 °C 18,6 °C 58 % 79 % 1006,6 hPa 0,0 l/m² 14,1 km/h (3 Bft) W-SW 256 ° 1 min 251 W/m² 14,9 °C 15,8 °C 19,3 km/h (3 Bft)
25.09.2024 13:49 22,1 °C 18,6 °C 58 % 78 % 1006,7 hPa 0,0 l/m² 16,0 km/h (3 Bft) W-SW 237 ° 1 min 269 W/m² 14,7 °C 15,3 °C 19,3 km/h (3 Bft)
25.09.2024 13:50 22,1 °C 18,6 °C 57 % 78 % 1006,6 hPa 0,0 l/m² 17,1 km/h (3 Bft) SW 218 ° 1 min 276 W/m² 14,7 °C 15,0 °C 22,5 km/h (4 Bft)
25.09.2024 13:51 22,1 °C 18,6 °C 57 % 78 % 1006,5 hPa 0,0 l/m² 17,1 km/h (3 Bft) S-SW 210 ° 1 min 236 W/m² 14,7 °C 15,0 °C 19,3 km/h (3 Bft)
25.09.2024 13:52 22,1 °C 18,6 °C 57 % 77 % 1006,6 hPa 0,0 l/m² 15,5 km/h (3 Bft) SW 225 ° 1 min 237 W/m² 14,5 °C 15,4 °C 19,3 km/h (3 Bft)
25.09.2024 13:53 22,1 °C 18,6 °C 57 % 77 % 1006,6 hPa 0,0 l/m² 15,0 km/h (3 Bft) S-SW 207 ° 1 min 253 W/m² 14,5 °C 15,6 °C 19,3 km/h (3 Bft)
25.09.2024 13:54 22,1 °C 18,6 °C 58 % 77 % 1006,5 hPa 0,0 l/m² 19,0 km/h (3 Bft) S-SW 204 ° 1 min 267 W/m² 14,5 °C 14,6 °C 25,7 km/h (4 Bft)
25.09.2024 13:55 22,1 °C 18,6 °C 57 % 78 % 1006,6 hPa 0,0 l/m² 15,5 km/h (3 Bft) S-SW 200 ° 1 min 267 W/m² 14,7 °C 15,4 °C 19,3 km/h (3 Bft)
25.09.2024 13:56 22,1 °C 18,6 °C 57 % 78 % 1006,6 hPa 0,0 l/m² 14,7 km/h (3 Bft) S-SW 210 ° 1 min 267 W/m² 14,7 °C 15,6 °C 25,7 km/h (4 Bft)
25.09.2024 13:57 22,1 °C 18,6 °C 57 % 78 % 1006,6 hPa 0,0 l/m² 15,9 km/h (3 Bft) S-SW 195 ° 1 min 364 W/m² 14,7 °C 15,3 °C 19,3 km/h (3 Bft)
25.09.2024 13:58 22,1 °C 18,7 °C 57 % 77 % 1006,6 hPa 0,0 l/m² 19,6 km/h (3 Bft) S-SW 198 ° 1 min 288 W/m² 14,6 °C 14,6 °C 32,2 km/h (5 Bft)
25.09.2024 13:59 22,1 °C 18,6 °C 57 % 77 % 1006,5 hPa 0,0 l/m² 21,1 km/h (4 Bft) S 188 ° 1 min 248 W/m² 14,5 °C 14,2 °C 25,7 km/h (4 Bft)
25.09.2024 14:00 22,1 °C 18,6 °C 57 % 76 % 1006,6 hPa 0,0 l/m² 22,3 km/h (4 Bft) S 184 ° 1 min 239 W/m² 14,3 °C 14,0 °C 27,4 km/h (5 Bft)
25.09.2024 14:01 22,1 °C 18,6 °C 57 % 76 % 1006,6 hPa 0,0 l/m² 19,3 km/h (3 Bft) S-SW 196 ° 1 min 232 W/m² 14,3 °C 14,5 °C 24,1 km/h (4 Bft)
25.09.2024 14:02 22,1 °C 18,6 °C 57 % 76 % 1006,6 hPa 0,0 l/m² 17,6 km/h (3 Bft) S-SW 196 ° 1 min 232 W/m² 14,3 °C 14,9 °C 20,9 km/h (4 Bft)
25.09.2024 14:03 22,1 °C 18,7 °C 57 % 77 % 1006,6 hPa 0,0 l/m² 17,1 km/h (3 Bft) S-SW 208 ° 1 min 207 W/m² 14,6 °C 15,2 °C 22,5 km/h (4 Bft)
25.09.2024 14:04 22,1 °C 18,6 °C 57 % 76 % 1006,6 hPa 0,0 l/m² 17,2 km/h (3 Bft) SW 215 ° 1 min 181 W/m² 14,3 °C 15,0 °C 19,3 km/h (3 Bft)
25.09.2024 14:05 22,1 °C 18,6 °C 57 % 76 % 1006,6 hPa 0,0 l/m² 17,7 km/h (3 Bft) S-SW 208 ° 1 min 160 W/m² 14,3 °C 14,9 °C 27,4 km/h (5 Bft)
25.09.2024 14:06 22,1 °C 18,6 °C 57 % 75 % 1006,6 hPa 0,0 l/m² 22,7 km/h (4 Bft) SW 215 ° 1 min 156 W/m² 14,1 °C 13,9 °C 29,0 km/h (5 Bft)
25.09.2024 14:07 22,1 °C 18,6 °C 57 % 75 % 1006,7 hPa 0,0 l/m² 21,1 km/h (4 Bft) S-SW 195 ° 1 min 162 W/m² 14,1 °C 14,2 °C 27,4 km/h (5 Bft)
25.09.2024 14:08 22,1 °C 18,6 °C 57 % 75 % 1006,6 hPa 0,0 l/m² 17,1 km/h (3 Bft) S-SW 194 ° 1 min 155 W/m² 14,1 °C 15,0 °C 20,9 km/h (4 Bft)
25.09.2024 14:09 22,1 °C 18,6 °C 57 % 75 % 1006,7 hPa 0,0 l/m² 16,0 km/h (3 Bft) S-SW 201 ° 1 min 142 W/m² 14,1 °C 15,3 °C 19,3 km/h (3 Bft)
25.09.2024 14:10 22,1 °C 18,6 °C 57 % 75 % 1006,6 hPa 0,0 l/m² 17,0 km/h (3 Bft) S 191 ° 1 min 134 W/m² 14,1 °C 15,1 °C 20,9 km/h (4 Bft)
25.09.2024 14:11 22,1 °C 18,6 °C 57 % 76 % 1006,6 hPa 0,0 l/m² 15,9 km/h (3 Bft) S 190 ° 1 min 139 W/m² 14,3 °C 15,3 °C 17,7 km/h (3 Bft)
25.09.2024 14:12 22,1 °C 18,6 °C 57 % 77 % 1006,6 hPa 0,0 l/m² 12,6 km/h (3 Bft) S 173 ° 1 min 149 W/m² 14,5 °C 16,2 °C 16,1 km/h (3 Bft)
25.09.2024 14:13 22,1 °C 18,5 °C 57 % 76 % 1006,6 hPa 0,0 l/m² 18,2 km/h (3 Bft) S 178 ° 1 min 171 W/m² 14,2 °C 14,7 °C 25,7 km/h (4 Bft)
25.09.2024 14:14 22,1 °C 18,5 °C 57 % 76 % 1006,6 hPa 0,0 l/m² 15,8 km/h (3 Bft) SW 215 ° 1 min 239 W/m² 14,2 °C 15,2 °C 19,3 km/h (3 Bft)
25.09.2024 14:15 22,1 °C 18,5 °C 57 % 76 % 1006,6 hPa 0,0 l/m² 17,6 km/h (3 Bft) S-SW 197 ° 1 min 274 W/m² 14,2 °C 14,8 °C 22,5 km/h (4 Bft)
25.09.2024 14:17 22,1 °C 18,6 °C 57 % 76 % 1006,5 hPa 0,0 l/m² 16,5 km/h (3 Bft) S 182 ° 2 min 236 W/m² 14,3 °C 15,2 °C 29,0 km/h (5 Bft)
25.09.2024 14:18 22,1 °C 18,6 °C 57 % 76 % 1006,5 hPa 0,0 l/m² 19,5 km/h (3 Bft) S-SW 206 ° 1 min 243 W/m² 14,3 °C 14,5 °C 27,4 km/h (5 Bft)
25.09.2024 14:19 22,1 °C 18,6 °C 57 % 75 % 1006,5 hPa 0,0 l/m² 17,2 km/h (3 Bft) S-SW 196 ° 1 min 278 W/m² 14,1 °C 15,0 °C 20,9 km/h (4 Bft)
25.09.2024 14:20 22,1 °C 18,6 °C 57 % 75 % 1006,5 hPa 0,0 l/m² 18,7 km/h (3 Bft) S-SW 200 ° 1 min 183 W/m² 14,1 °C 14,7 °C 25,7 km/h (4 Bft)
25.09.2024 14:21 22,1 °C 18,7 °C 57 % 75 % 1006,5 hPa 0,0 l/m² 17,2 km/h (3 Bft) S 186 ° 1 min 165 W/m² 14,2 °C 15,1 °C 22,5 km/h (4 Bft)
25.09.2024 14:22 22,1 °C 18,7 °C 57 % 74 % 1006,5 hPa 0,0 l/m² 17,2 km/h (3 Bft) S-SW 195 ° 1 min 151 W/m² 14,0 °C 15,1 °C 20,9 km/h (4 Bft)
25.09.2024 14:23 22,1 °C 18,7 °C 57 % 74 % 1006,5 hPa 0,0 l/m² 19,0 km/h (3 Bft) S-SW 193 ° 1 min 125 W/m² 14,0 °C 14,7 °C 24,1 km/h (4 Bft)
25.09.2024 14:24 22,1 °C 18,7 °C 57 % 74 % 1006,5 hPa 0,0 l/m² 19,0 km/h (3 Bft) SW 217 ° 1 min 97 W/m² 14,0 °C 14,7 °C 22,5 km/h (4 Bft)
25.09.2024 14:25 22,1 °C 18,7 °C 57 % 74 % 1006,5 hPa 0,0 l/m² 17,6 km/h (3 Bft) S 190 ° 1 min 77 W/m² 14,0 °C 15,0 °C 24,1 km/h (4 Bft)
25.09.2024 14:26 22,1 °C 18,7 °C 57 % 74 % 1006,5 hPa 0,0 l/m² 16,8 km/h (3 Bft) S-SW 203 ° 1 min 58 W/m² 14,0 °C 15,2 °C 20,9 km/h (4 Bft)
25.09.2024 14:27 22,1 °C 18,6 °C 57 % 74 % 1006,5 hPa 0,0 l/m² 20,6 km/h (4 Bft) SW 216 ° 1 min 58 W/m² 13,9 °C 14,3 °C 25,7 km/h (4 Bft)
25.09.2024 14:28 22,2 °C 18,6 °C 57 % 73 % 1006,5 hPa 0,0 l/m² 22,1 km/h (4 Bft) S-SW 206 ° 1 min 69 W/m² 13,7 °C 14,0 °C 27,4 km/h (5 Bft)
25.09.2024 14:29 22,1 °C 18,6 °C 57 % 74 % 1006,5 hPa 0,0 l/m² 23,3 km/h (4 Bft) S 183 ° 1 min 88 W/m² 13,9 °C 13,8 °C 29,0 km/h (5 Bft)
25.09.2024 14:30 22,1 °C 18,6 °C 57 % 74 % 1006,6 hPa 0,0 l/m² 23,3 km/h (4 Bft) S 178 ° 1 min 97 W/m² 13,9 °C 13,8 °C 30,6 km/h (5 Bft)
25.09.2024 14:31 22,1 °C 18,5 °C 57 % 73 % 1006,7 hPa 0,0 l/m² 24,3 km/h (4 Bft) SW 215 ° 1 min 93 W/m² 13,6 °C 13,5 °C 37,0 km/h (5 Bft)
25.09.2024 14:32 22,1 °C 18,5 °C 57 % 74 % 1006,6 hPa 0,0 l/m² 21,7 km/h (4 Bft) SW 220 ° 1 min 93 W/m² 13,8 °C 13,9 °C 37,0 km/h (5 Bft)
25.09.2024 14:33 22,1 °C 18,4 °C 57 % 73 % 1006,5 hPa 0,0 l/m² 30,7 km/h (5 Bft) S-SW 209 ° 1 min 105 W/m² 13,5 °C 12,4 °C 41,8 km/h (6 Bft)
25.09.2024 14:34 22,1 °C 18,4 °C 57 % 73 % 1006,6 hPa 0,0 l/m² 23,4 km/h (4 Bft) S-SW 199 ° 1 min 114 W/m² 13,5 °C 13,5 °C 29,0 km/h (5 Bft)
25.09.2024 14:35 22,1 °C 18,4 °C 57 % 72 % 1006,6 hPa 0,0 l/m² 21,6 km/h (4 Bft) S-SW 207 ° 1 min 121 W/m² 13,3 °C 13,8 °C 24,1 km/h (4 Bft)
25.09.2024 14:36 22,1 °C 18,4 °C 57 % 72 % 1006,6 hPa 0,0 l/m² 19,2 km/h (3 Bft) SW 221 ° 1 min 125 W/m² 13,3 °C 14,3 °C 22,5 km/h (4 Bft)
25.09.2024 14:37 22,1 °C 18,4 °C 57 % 73 % 1006,5 hPa 0,0 l/m² 18,3 km/h (3 Bft) S-SW 200 ° 1 min 127 W/m² 13,5 °C 14,5 °C 24,1 km/h (4 Bft)
25.09.2024 14:38 22,1 °C 18,4 °C 57 % 73 % 1006,6 hPa 0,0 l/m² 22,1 km/h (4 Bft) S-SW 202 ° 1 min 120 W/m² 13,5 °C 13,7 °C 27,4 km/h (5 Bft)
25.09.2024 14:39 22,1 °C 18,4 °C 57 % 73 % 1006,5 hPa 0,0 l/m² 18,0 km/h (3 Bft) SW 215 ° 1 min 111 W/m² 13,5 °C 14,6 °C 22,5 km/h (4 Bft)
25.09.2024 14:40 22,1 °C 18,5 °C 57 % 74 % 1006,6 hPa 0,0 l/m² 16,6 km/h (3 Bft) S-SW 199 ° 1 min 102 W/m² 13,8 °C 15,0 °C 20,9 km/h (4 Bft)
25.09.2024 14:41 22,1 °C 18,4 °C 57 % 74 % 1006,6 hPa 0,0 l/m² 19,6 km/h (3 Bft) S-SW 213 ° 1 min 107 W/m² 13,7 °C 14,2 °C 24,1 km/h (4 Bft)
25.09.2024 14:42 22,1 °C 18,4 °C 57 % 73 % 1006,6 hPa 0,0 l/m² 18,4 km/h (3 Bft) S-SW 207 ° 1 min 128 W/m² 13,5 °C 14,5 °C 22,5 km/h (4 Bft)
25.09.2024 14:43 22,1 °C 18,4 °C 57 % 73 % 1006,5 hPa 0,0 l/m² 21,7 km/h (4 Bft) SW 216 ° 1 min 155 W/m² 13,5 °C 13,8 °C 27,4 km/h (5 Bft)
25.09.2024 14:44 22,1 °C 18,4 °C 57 % 73 % 1006,5 hPa 0,0 l/m² 19,8 km/h (3 Bft) SW 217 ° 1 min 197 W/m² 13,5 °C 14,2 °C 24,1 km/h (4 Bft)
25.09.2024 14:45 22,1 °C 18,5 °C 57 % 74 % 1006,5 hPa 0,0 l/m² 23,9 km/h (4 Bft) S-SW 192 ° 1 min 211 W/m² 13,8 °C 13,5 °C 27,4 km/h (5 Bft)
25.09.2024 14:46 22,1 °C 18,5 °C 57 % 73 % 1006,6 hPa 0,0 l/m² 22,7 km/h (4 Bft) S-SW 212 ° 1 min 220 W/m² 13,6 °C 13,7 °C 29,0 km/h (5 Bft)
25.09.2024 14:47 22,1 °C 18,6 °C 58 % 74 % 1006,5 hPa 0,0 l/m² 18,4 km/h (3 Bft) S 186 ° 1 min 220 W/m² 13,9 °C 14,7 °C 22,5 km/h (4 Bft)
25.09.2024 14:48 22,1 °C 18,5 °C 57 % 73 % 1006,5 hPa 0,0 l/m² 22,1 km/h (4 Bft) SW 215 ° 1 min 220 W/m² 13,6 °C 13,9 °C 30,6 km/h (5 Bft)
25.09.2024 14:49 22,1 °C 18,6 °C 57 % 73 % 1006,5 hPa 0,0 l/m² 25,8 km/h (4 Bft) S-SW 192 ° 1 min 229 W/m² 13,7 °C 13,4 °C 32,2 km/h (5 Bft)
25.09.2024 14:50 22,1 °C 18,6 °C 58 % 73 % 1006,5 hPa 0,0 l/m² 23,0 km/h (4 Bft) S-SW 198 ° 1 min 239 W/m² 13,7 °C 13,8 °C 33,8 km/h (5 Bft)
25.09.2024 14:51 22,1 °C 18,6 °C 57 % 72 % 1006,5 hPa 0,0 l/m² 25,3 km/h (4 Bft) S-SW 213 ° 1 min 258 W/m² 13,4 °C 13,4 °C 29,0 km/h (5 Bft)
25.09.2024 14:52 22,1 °C 18,7 °C 58 % 73 % 1006,5 hPa 0,0 l/m² 22,5 km/h (4 Bft) S-SW 211 ° 1 min 262 W/m² 13,8 °C 14,0 °C 29,0 km/h (5 Bft)
25.09.2024 14:53 22,1 °C 18,7 °C 57 % 73 % 1006,5 hPa 0,0 l/m² 23,0 km/h (4 Bft) SW 220 ° 1 min 255 W/m² 13,8 °C 14,0 °C 27,4 km/h (5 Bft)
25.09.2024 14:54 22,1 °C 18,7 °C 58 % 73 % 1006,4 hPa 0,0 l/m² 24,0 km/h (4 Bft) S-SW 198 ° 1 min 248 W/m² 13,8 °C 13,8 °C 29,0 km/h (5 Bft)
25.09.2024 14:55 22,1 °C 18,7 °C 58 % 73 % 1006,4 hPa 0,0 l/m² 19,7 km/h (3 Bft) S-SW 206 ° 1 min 223 W/m² 13,8 °C 14,6 °C 25,7 km/h (4 Bft)
25.09.2024 14:56 22,1 °C 18,7 °C 58 % 72 % 1006,4 hPa 0,0 l/m² 23,9 km/h (4 Bft) S-SW 210 ° 1 min 207 W/m² 13,5 °C 13,8 °C 30,6 km/h (5 Bft)
25.09.2024 14:57 22,1 °C 18,7 °C 58 % 73 % 1006,5 hPa 0,0 l/m² 18,4 km/h (3 Bft) S-SW 208 ° 1 min 195 W/m² 13,8 °C 14,9 °C 22,5 km/h (4 Bft)
25.09.2024 14:58 22,1 °C 18,7 °C 58 % 72 % 1006,5 hPa 0,0 l/m² 18,2 km/h (3 Bft) SW 226 ° 1 min 188 W/m² 13,5 °C 14,9 °C 24,1 km/h (4 Bft)
25.09.2024 14:59 22,1 °C 18,7 °C 58 % 73 % 1006,5 hPa 0,0 l/m² 20,4 km/h (4 Bft) SW 215 ° 1 min 181 W/m² 13,8 °C 14,4 °C 25,7 km/h (4 Bft)
25.09.2024 15:00 22,1 °C 18,8 °C 58 % 73 % 1006,5 hPa 0,0 l/m² 19,2 km/h (3 Bft) S-SW 210 ° 1 min 169 W/m² 13,9 °C 14,8 °C 22,5 km/h (4 Bft)
25.09.2024 15:01 22,1 °C 18,7 °C 58 % 73 % 1006,5 hPa 0,0 l/m² 20,7 km/h (4 Bft) S-SW 213 ° 1 min 148 W/m² 13,8 °C 14,4 °C 25,7 km/h (4 Bft)
25.09.2024 15:02 22,1 °C 18,8 °C 58 % 73 % 1006,5 hPa 0,0 l/m² 16,4 km/h (3 Bft) SW 227 ° 1 min 149 W/m² 13,9 °C 15,4 °C 20,9 km/h (4 Bft)
25.09.2024 15:03 22,1 °C 18,8 °C 58 % 74 % 1006,4 hPa 0,0 l/m² 15,6 km/h (3 Bft) SW 223 ° 1 min 160 W/m² 14,1 °C 15,6 °C 19,3 km/h (3 Bft)
25.09.2024 15:04 22,1 °C 18,8 °C 58 % 73 % 1006,4 hPa 0,0 l/m² 12,7 km/h (3 Bft) SW 217 ° 1 min 165 W/m² 13,9 °C 16,4 °C 16,1 km/h (3 Bft)
25.09.2024 15:05 22,1 °C 18,8 °C 58 % 73 % 1006,5 hPa 0,0 l/m² 16,1 km/h (3 Bft) SW 225 ° 1 min 156 W/m² 13,9 °C 15,5 °C 22,5 km/h (4 Bft)
25.09.2024 15:07 22,1 °C 18,8 °C 58 % 74 % 1006,4 hPa 0,0 l/m² 16,7 km/h (3 Bft) S-SW 202 ° 2 min 109 W/m² 14,1 °C 15,4 °C 25,7 km/h (4 Bft)
25.09.2024 15:08 22,1 °C 18,8 °C 58 % 73 % 1006,4 hPa 0,0 l/m² 18,7 km/h (3 Bft) S-SW 209 ° 1 min 102 W/m² 13,9 °C 14,9 °C 20,9 km/h (4 Bft)
25.09.2024 15:09 22,1 °C 18,7 °C 58 % 73 % 1006,4 hPa 0,0 l/m² 17,1 km/h (3 Bft) SW 221 ° 1 min 100 W/m² 13,8 °C 15,2 °C 20,9 km/h (4 Bft)
25.09.2024 15:10 22,1 °C 18,7 °C 58 % 73 % 1006,5 hPa 0,0 l/m² 16,2 km/h (3 Bft) SW 215 ° 1 min 98 W/m² 13,8 °C 15,4 °C 17,7 km/h (3 Bft)
25.09.2024 15:11 22,1 °C 18,8 °C 58 % 74 % 1006,4 hPa 0,0 l/m² 14,3 km/h (3 Bft) W-SW 257 ° 1 min 107 W/m² 14,1 °C 16,0 °C 19,3 km/h (3 Bft)
25.09.2024 15:12 22,1 °C 18,7 °C 58 % 73 % 1006,4 hPa 0,0 l/m² 20,7 km/h (4 Bft) SW 219 ° 1 min 125 W/m² 13,8 °C 14,4 °C 25,7 km/h (4 Bft)
25.09.2024 15:13 22,1 °C 18,7 °C 58 % 73 % 1006,4 hPa 0,0 l/m² 20,1 km/h (4 Bft) S-SW 209 ° 1 min 158 W/m² 13,8 °C 14,5 °C 22,5 km/h (4 Bft)
25.09.2024 15:14 22,1 °C 18,7 °C 58 % 72 % 1006,5 hPa 0,0 l/m² 20,3 km/h (4 Bft) SW 223 ° 1 min 167 W/m² 13,5 °C 14,5 °C 25,7 km/h (4 Bft)
25.09.2024 15:15 22,1 °C 18,7 °C 58 % 72 % 1006,4 hPa 0,0 l/m² 18,8 km/h (3 Bft) SW 234 ° 1 min 178 W/m² 13,5 °C 14,8 °C 24,1 km/h (4 Bft)
25.09.2024 15:16 22,1 °C 18,7 °C 58 % 72 % 1006,4 hPa 0,0 l/m² 16,4 km/h (3 Bft) S-SW 213 ° 1 min 185 W/m² 13,5 °C 15,3 °C 20,9 km/h (4 Bft)
25.09.2024 15:17 22,1 °C 18,7 °C 58 % 72 % 1006,4 hPa 0,0 l/m² 17,6 km/h (3 Bft) S-SW 212 ° 1 min 186 W/m² 13,5 °C 15,0 °C 22,5 km/h (4 Bft)
25.09.2024 15:18 22,1 °C 18,7 °C 58 % 72 % 1006,4 hPa 0,0 l/m² 23,2 km/h (4 Bft) SW 217 ° 1 min 188 W/m² 13,5 °C 13,9 °C 30,6 km/h (5 Bft)
25.09.2024 15:19 22,1 °C 18,7 °C 58 % 72 % 1006,4 hPa 0,0 l/m² 23,9 km/h (4 Bft) SW 218 ° 1 min 183 W/m² 13,5 °C 13,8 °C 27,4 km/h (5 Bft)
25.09.2024 15:20 22,1 °C 18,7 °C 58 % 72 % 1006,4 hPa 0,0 l/m² 21,6 km/h (4 Bft) S-SW 208 ° 1 min 179 W/m² 13,5 °C 14,2 °C 25,7 km/h (4 Bft)
25.09.2024 15:21 22,1 °C 18,7 °C 58 % 71 % 1006,4 hPa 0,0 l/m² 15,7 km/h (3 Bft) W-SW 247 ° 1 min 185 W/m² 13,3 °C 15,5 °C 24,1 km/h (4 Bft)
25.09.2024 15:22 22,1 °C 18,7 °C 58 % 72 % 1006,3 hPa 0,0 l/m² 14,2 km/h (3 Bft) S-SW 204 ° 1 min 188 W/m² 13,5 °C 15,9 °C 20,9 km/h (4 Bft)
25.09.2024 15:23 22,1 °C 18,8 °C 58 % 73 % 1006,3 hPa 0,0 l/m² 17,0 km/h (3 Bft) S 185 ° 1 min 188 W/m² 13,9 °C 15,3 °C 20,9 km/h (4 Bft)
25.09.2024 15:24 22,1 °C 18,7 °C 58 % 73 % 1006,4 hPa 0,0 l/m² 17,2 km/h (3 Bft) SW 215 ° 1 min 197 W/m² 13,8 °C 15,1 °C 20,9 km/h (4 Bft)
25.09.2024 15:25 22,1 °C 18,8 °C 58 % 72 % 1006,3 hPa 0,0 l/m² 14,9 km/h (3 Bft) S-SW 198 ° 1 min 197 W/m² 13,6 °C 15,8 °C 17,7 km/h (3 Bft)
25.09.2024 15:26 22,1 °C 18,7 °C 58 % 73 % 1006,4 hPa 0,0 l/m² 15,4 km/h (3 Bft) S-SW 198 ° 1 min 195 W/m² 13,8 °C 15,6 °C 20,9 km/h (4 Bft)
25.09.2024 15:27 22,1 °C 18,8 °C 58 % 73 % 1006,3 hPa 0,0 l/m² 13,0 km/h (3 Bft) S-SW 208 ° 1 min 193 W/m² 13,9 °C 16,3 °C 17,7 km/h (3 Bft)
25.09.2024 15:28 22,1 °C 18,8 °C 58 % 72 % 1006,4 hPa 0,0 l/m² 17,5 km/h (3 Bft) S-SW 192 ° 1 min 192 W/m² 13,6 °C 15,2 °C 22,5 km/h (4 Bft)
25.09.2024 15:29 22,1 °C 18,8 °C 58 % 72 % 1006,3 hPa 0,0 l/m² 19,4 km/h (3 Bft) S-SW 197 ° 1 min 188 W/m² 13,6 °C 14,8 °C 25,7 km/h (4 Bft)
25.09.2024 15:30 22,1 °C 18,8 °C 58 % 73 % 1006,4 hPa 0,0 l/m² 18,6 km/h (3 Bft) S-SW 201 ° 1 min 174 W/m² 13,9 °C 14,9 °C 22,5 km/h (4 Bft)
25.09.2024 15:31 22,1 °C 18,8 °C 58 % 72 % 1006,4 hPa 0,0 l/m² 21,5 km/h (4 Bft) SW 216 ° 1 min 162 W/m² 13,6 °C 14,4 °C 25,7 km/h (4 Bft)
25.09.2024 15:32 22,1 °C 18,8 °C 58 % 72 % 1006,4 hPa 0,0 l/m² 18,7 km/h (3 Bft) S-SW 195 ° 1 min 144 W/m² 13,6 °C 14,9 °C 24,1 km/h (4 Bft)
25.09.2024 15:33 22,1 °C 18,8 °C 58 % 72 % 1006,5 hPa 0,0 l/m² 16,2 km/h (3 Bft) S-SW 196 ° 1 min 125 W/m² 13,6 °C 15,5 °C 20,9 km/h (4 Bft)
25.09.2024 15:34 22,1 °C 18,8 °C 58 % 73 % 1006,5 hPa 0,0 l/m² 16,4 km/h (3 Bft) SW 214 ° 1 min 116 W/m² 13,9 °C 15,4 °C 19,3 km/h (3 Bft)
25.09.2024 15:35 22,1 °C 18,7 °C 58 % 73 % 1006,5 hPa 0,0 l/m² 14,1 km/h (3 Bft) S-SW 205 ° 1 min 123 W/m² 13,8 °C 15,9 °C 19,3 km/h (3 Bft)
25.09.2024 15:36 22,1 °C 18,8 °C 58 % 73 % 1006,5 hPa 0,0 l/m² 22,4 km/h (4 Bft) S-SW 213 ° 1 min 132 W/m² 13,9 °C 14,2 °C 29,0 km/h (5 Bft)
25.09.2024 15:37 22,1 °C 18,7 °C 58 % 72 % 1006,4 hPa 0,0 l/m² 21,7 km/h (4 Bft) SW 217 ° 1 min 139 W/m² 13,5 °C 14,2 °C 24,1 km/h (4 Bft)
25.09.2024 15:38 22,1 °C 18,7 °C 58 % 73 % 1006,4 hPa 0,0 l/m² 19,5 km/h (3 Bft) SW 218 ° 1 min 146 W/m² 13,8 °C 14,6 °C 24,1 km/h (4 Bft)
25.09.2024 15:39 22,1 °C 18,7 °C 58 % 73 % 1006,4 hPa 0,0 l/m² 14,8 km/h (3 Bft) S-SW 213 ° 1 min 149 W/m² 13,8 °C 15,7 °C 19,3 km/h (3 Bft)
25.09.2024 15:40 22,1 °C 18,7 °C 58 % 72 % 1006,3 hPa 0,0 l/m² 16,0 km/h (3 Bft) S-SW 206 ° 1 min 155 W/m² 13,5 °C 15,4 °C 19,3 km/h (3 Bft)
25.09.2024 15:41 22,1 °C 18,7 °C 58 % 73 % 1006,3 hPa 0,0 l/m² 11,5 km/h (2 Bft) S-SW 207 ° 1 min 162 W/m² 13,8 °C 16,7 °C 14,5 km/h (3 Bft)
25.09.2024 15:42 22,1 °C 18,7 °C 58 % 73 % 1006,4 hPa 0,0 l/m² 14,5 km/h (3 Bft) S-SW 201 ° 1 min 167 W/m² 13,8 °C 15,8 °C 17,7 km/h (3 Bft)
25.09.2024 15:43 22,1 °C 18,7 °C 58 % 73 % 1006,3 hPa 0,0 l/m² 15,0 km/h (3 Bft) S-SW 200 ° 1 min 167 W/m² 13,8 °C 15,7 °C 17,7 km/h (3 Bft)
25.09.2024 15:44 22,1 °C 18,7 °C 58 % 73 % 1006,4 hPa 0,0 l/m² 12,9 km/h (3 Bft) S-SW 213 ° 1 min 169 W/m² 13,8 °C 16,3 °C 17,7 km/h (3 Bft)
25.09.2024 15:46 22,1 °C 18,7 °C 58 % 73 % 1006,4 hPa 0,0 l/m² 12,9 km/h (3 Bft) S-SW 202 ° 2 min 176 W/m² 13,8 °C 16,3 °C 17,7 km/h (3 Bft)
25.09.2024 15:47 22,1 °C 18,8 °C 58 % 73 % 1006,4 hPa 0,0 l/m² 11,0 km/h (2 Bft) S-SW 200 ° 1 min 179 W/m² 13,9 °C 17,0 °C 14,5 km/h (3 Bft)
25.09.2024 15:48 22,1 °C 18,8 °C 58 % 73 % 1006,4 hPa 0,0 l/m² 11,9 km/h (2 Bft) S-SW 196 ° 1 min 181 W/m² 13,9 °C 16,7 °C 14,5 km/h (3 Bft)
25.09.2024 15:49 22,1 °C 18,8 °C 58 % 73 % 1006,4 hPa 0,0 l/m² 13,3 km/h (3 Bft) S-SW 209 ° 1 min 190 W/m² 13,9 °C 16,3 °C 16,1 km/h (3 Bft)
25.09.2024 15:50 22,1 °C 18,8 °C 58 % 72 % 1006,3 hPa 0,0 l/m² 12,2 km/h (2 Bft) S 184 ° 1 min 179 W/m² 13,6 °C 16,6 °C 14,5 km/h (3 Bft)
25.09.2024 15:51 22,1 °C 18,8 °C 58 % 74 % 1006,4 hPa 0,0 l/m² 11,5 km/h (2 Bft) SW 215 ° 1 min 178 W/m² 14,1 °C 16,8 °C 14,5 km/h (3 Bft)
25.09.2024 15:52 22,1 °C 18,8 °C 58 % 74 % 1006,3 hPa 0,0 l/m² 9,5 km/h (2 Bft) S-SW 202 ° 1 min 176 W/m² 14,1 °C 17,5 °C 11,3 km/h (2 Bft)
25.09.2024 15:53 22,1 °C 18,8 °C 58 % 75 % 1006,3 hPa 0,0 l/m² 9,9 km/h (2 Bft) S 188 ° 1 min 169 W/m² 14,3 °C 17,4 °C 11,3 km/h (2 Bft)
25.09.2024 15:54 22,1 °C 18,8 °C 58 % 75 % 1006,3 hPa 0,0 l/m² 10,7 km/h (2 Bft) S 175 ° 1 min 155 W/m² 14,3 °C 17,1 °C 14,5 km/h (3 Bft)
25.09.2024 15:55 22,1 °C 18,8 °C 58 % 74 % 1006,3 hPa 0,0 l/m² 8,9 km/h (2 Bft) S 191 ° 1 min 149 W/m² 14,1 °C 17,7 °C 14,5 km/h (3 Bft)
25.09.2024 15:56 22,1 °C 18,8 °C 58 % 75 % 1006,3 hPa 0,0 l/m² 9,1 km/h (2 Bft) S-SW 200 ° 1 min 148 W/m² 14,3 °C 17,6 °C 14,5 km/h (3 Bft)
25.09.2024 15:57 22,1 °C 18,8 °C 58 % 73 % 1006,3 hPa 0,0 l/m² 14,6 km/h (3 Bft) S 189 ° 1 min 148 W/m² 13,9 °C 15,9 °C 17,7 km/h (3 Bft)
25.09.2024 15:58 22,1 °C 18,9 °C 58 % 74 % 1006,4 hPa 0,0 l/m² 11,9 km/h (2 Bft) S-SW 200 ° 1 min 146 W/m² 14,2 °C 16,8 °C 16,1 km/h (3 Bft)
25.09.2024 15:59 22,1 °C 18,8 °C 58 % 74 % 1006,4 hPa 0,0 l/m² 11,5 km/h (2 Bft) S-SW 213 ° 1 min 144 W/m² 14,1 °C 16,8 °C 12,9 km/h (3 Bft)
25.09.2024 16:00 22,1 °C 18,8 °C 58 % 74 % 1006,3 hPa 0,0 l/m² 13,1 km/h (3 Bft) S-SW 196 ° 1 min 148 W/m² 14,1 °C 16,3 °C 16,1 km/h (3 Bft)
25.09.2024 16:01 22,1 °C 18,9 °C 58 % 74 % 1006,3 hPa 0,0 l/m² 10,7 km/h (2 Bft) S 178 ° 1 min 146 W/m² 14,2 °C 17,2 °C 11,3 km/h (2 Bft)
25.09.2024 16:02 22,1 °C 18,8 °C 58 % 74 % 1006,3 hPa 0,0 l/m² 9,0 km/h (2 Bft) S-SW 192 ° 1 min 142 W/m² 14,1 °C 17,7 °C 12,9 km/h (3 Bft)
25.09.2024 16:03 22,1 °C 18,8 °C 58 % 74 % 1006,4 hPa 0,0 l/m² 11,1 km/h (2 Bft) S 182 ° 1 min 132 W/m² 14,1 °C 16,9 °C 14,5 km/h (3 Bft)
25.09.2024 16:04 22,1 °C 18,9 °C 58 % 74 % 1006,2 hPa 0,0 l/m² 10,0 km/h (2 Bft) S-SW 193 ° 1 min 120 W/m² 14,2 °C 17,4 °C 14,5 km/h (3 Bft)
25.09.2024 16:05 22,1 °C 18,9 °C 58 % 74 % 1006,3 hPa 0,0 l/m² 9,4 km/h (2 Bft) S 187 ° 1 min 107 W/m² 14,2 °C 17,6 °C 12,9 km/h (3 Bft)
25.09.2024 16:06 22,1 °C 18,8 °C 58 % 74 % 1006,2 hPa 0,0 l/m² 9,5 km/h (2 Bft) S 190 ° 1 min 90 W/m² 14,1 °C 17,5 °C 12,9 km/h (3 Bft)
25.09.2024 16:07 22,1 °C 18,8 °C 58 % 74 % 1006,2 hPa 0,0 l/m² 10,6 km/h (2 Bft) S 178 ° 1 min 86 W/m² 14,1 °C 17,1 °C 12,9 km/h (3 Bft)
25.09.2024 16:08 22,1 °C 18,8 °C 58 % 74 % 1006,2 hPa 0,0 l/m² 8,2 km/h (2 Bft) S 174 ° 1 min 91 W/m² 14,1 °C 18,0 °C 11,3 km/h (2 Bft)
25.09.2024 16:09 22,1 °C 18,8 °C 58 % 74 % 1006,2 hPa 0,0 l/m² 6,5 km/h (2 Bft) S 186 ° 1 min 98 W/m² 14,1 °C 18,8 °C 9,7 km/h (2 Bft)
25.09.2024 16:10 22,1 °C 18,8 °C 58 % 74 % 1006,2 hPa 0,0 l/m² 7,1 km/h (2 Bft) S-SW 195 ° 1 min 105 W/m² 14,1 °C 18,5 °C 8,0 km/h (2 Bft)
25.09.2024 16:11 22,1 °C 18,8 °C 58 % 74 % 1006,2 hPa 0,0 l/m² 9,1 km/h (2 Bft) S 180 ° 1 min 109 W/m² 14,1 °C 17,6 °C 11,3 km/h (2 Bft)
25.09.2024 16:12 22,1 °C 18,8 °C 58 % 74 % 1006,2 hPa 0,0 l/m² 10,5 km/h (2 Bft) S-SW 196 ° 1 min 105 W/m² 14,1 °C 17,1 °C 14,5 km/h (3 Bft)
25.09.2024 16:13 22,1 °C 18,8 °C 58 % 75 % 1006,2 hPa 0,0 l/m² 11,2 km/h (2 Bft) S 186 ° 1 min 105 W/m² 14,3 °C 16,9 °C 16,1 km/h (3 Bft)
25.09.2024 16:14 22,1 °C 18,8 °C 58 % 74 % 1006,2 hPa 0,0 l/m² 12,0 km/h (2 Bft) S 175 ° 1 min 104 W/m² 14,1 °C 16,6 °C 14,5 km/h (3 Bft)
25.09.2024 16:15 22,1 °C 18,8 °C 58 % 75 % 1006,2 hPa 0,0 l/m² 10,5 km/h (2 Bft) S 189 ° 1 min 102 W/m² 14,3 °C 17,1 °C 12,9 km/h (3 Bft)
25.09.2024 16:16 22,1 °C 18,8 °C 58 % 74 % 1006,1 hPa 0,0 l/m² 12,2 km/h (2 Bft) S 178 ° 1 min 97 W/m² 14,1 °C 16,6 °C 14,5 km/h (3 Bft)
25.09.2024 16:17 22,1 °C 18,8 °C 58 % 73 % 1006,1 hPa 0,0 l/m² 12,1 km/h (2 Bft) S 182 ° 1 min 90 W/m² 13,9 °C 16,6 °C 14,5 km/h (3 Bft)
25.09.2024 16:18 22,1 °C 18,8 °C 58 % 73 % 1006,2 hPa 0,0 l/m² 12,6 km/h (3 Bft) S-SW 194 ° 1 min 88 W/m² 13,9 °C 16,5 °C 14,5 km/h (3 Bft)
25.09.2024 16:19 22,1 °C 18,8 °C 58 % 73 % 1006,1 hPa 0,0 l/m² 12,7 km/h (3 Bft) S 184 ° 1 min 91 W/m² 13,9 °C 16,4 °C 14,5 km/h (3 Bft)
25.09.2024 16:20 22,1 °C 18,8 °C 58 % 73 % 1006,1 hPa 0,0 l/m² 11,9 km/h (2 Bft) S 176 ° 1 min 100 W/m² 13,9 °C 16,7 °C 14,5 km/h (3 Bft)
25.09.2024 16:21 22,1 °C 18,8 °C 58 % 74 % 1006,1 hPa 0,0 l/m² 13,3 km/h (3 Bft) S-SW 200 ° 1 min 113 W/m² 14,1 °C 16,3 °C 16,1 km/h (3 Bft)
25.09.2024 16:22 22,1 °C 18,8 °C 58 % 74 % 1006,1 hPa 0,0 l/m² 10,3 km/h (2 Bft) S 190 ° 1 min 121 W/m² 14,1 °C 17,2 °C 12,9 km/h (3 Bft)
25.09.2024 16:23 22,1 °C 18,8 °C 58 % 73 % 1006,0 hPa 0,0 l/m² 9,1 km/h (2 Bft) S 191 ° 1 min 121 W/m² 13,9 °C 17,6 °C 11,3 km/h (2 Bft)
25.09.2024 16:24 22,1 °C 18,8 °C 58 % 73 % 1006,0 hPa 0,0 l/m² 13,5 km/h (3 Bft) S 177 ° 1 min 120 W/m² 13,9 °C 16,2 °C 16,1 km/h (3 Bft)
25.09.2024 16:25 22,1 °C 18,8 °C 58 % 73 % 1006,0 hPa 0,0 l/m² 12,5 km/h (2 Bft) S 182 ° 1 min 118 W/m² 13,9 °C 16,5 °C 16,1 km/h (3 Bft)
25.09.2024 16:26 22,1 °C 18,8 °C 58 % 73 % 1006,0 hPa 0,0 l/m² 10,9 km/h (2 Bft) S 186 ° 1 min 114 W/m² 13,9 °C 17,0 °C 12,9 km/h (3 Bft)
25.09.2024 16:27 22,1 °C 18,8 °C 58 % 73 % 1006,0 hPa 0,0 l/m² 11,7 km/h (2 Bft) S-SO 167 ° 1 min 109 W/m² 13,9 °C 16,7 °C 16,1 km/h (3 Bft)
25.09.2024 16:28 22,1 °C 18,9 °C 58 % 74 % 1006,0 hPa 0,0 l/m² 11,7 km/h (2 Bft) S 190 ° 1 min 100 W/m² 14,2 °C 16,9 °C 14,5 km/h (3 Bft)
25.09.2024 16:29 22,0 °C 18,8 °C 58 % 73 % 1006,0 hPa 0,0 l/m² 11,4 km/h (2 Bft) S 188 ° 1 min 81 W/m² 13,9 °C 16,8 °C 14,5 km/h (3 Bft)
25.09.2024 16:30 22,1 °C 18,8 °C 58 % 73 % 1006,0 hPa 0,0 l/m² 10,9 km/h (2 Bft) S-SW 203 ° 1 min 76 W/m² 13,9 °C 17,0 °C 14,5 km/h (3 Bft)
25.09.2024 16:31 22,0 °C 18,8 °C 58 % 73 % 1006,0 hPa 0,0 l/m² 10,2 km/h (2 Bft) S 183 ° 1 min 70 W/m² 13,9 °C 17,2 °C 12,9 km/h (3 Bft)
25.09.2024 16:32 22,1 °C 18,8 °C 58 % 74 % 1006,0 hPa 0,0 l/m² 10,9 km/h (2 Bft) S-SW 196 ° 1 min 69 W/m² 14,1 °C 17,0 °C 12,9 km/h (3 Bft)
25.09.2024 16:33 22,1 °C 18,8 °C 58 % 73 % 1006,1 hPa 0,0 l/m² 11,2 km/h (2 Bft) S 185 ° 1 min 67 W/m² 13,9 °C 16,9 °C 14,5 km/h (3 Bft)
25.09.2024 16:34 22,0 °C 18,8 °C 58 % 74 % 1006,0 hPa 0,0 l/m² 8,8 km/h (2 Bft) S 190 ° 1 min 63 W/m² 14,1 °C 17,8 °C 9,7 km/h (2 Bft)
25.09.2024 16:35 22,0 °C 18,8 °C 58 % 74 % 1006,0 hPa 0,0 l/m² 7,4 km/h (2 Bft) S-SW 192 ° 1 min 62 W/m² 14,1 °C 18,4 °C 9,7 km/h (2 Bft)
25.09.2024 16:36 22,0 °C 18,8 °C 58 % 74 % 1005,9 hPa 0,0 l/m² 10,6 km/h (2 Bft) S-SW 213 ° 1 min 62 W/m² 14,1 °C 17,1 °C 14,5 km/h (3 Bft)
25.09.2024 16:37 22,0 °C 18,8 °C 58 % 73 % 1006,1 hPa 0,0 l/m² 10,7 km/h (2 Bft) S-SW 198 ° 1 min 63 W/m² 13,9 °C 17,1 °C 14,5 km/h (3 Bft)
25.09.2024 16:38 22,0 °C 18,8 °C 58 % 74 % 1006,0 hPa 0,0 l/m² 10,3 km/h (2 Bft) S 190 ° 1 min 60 W/m² 14,1 °C 17,2 °C 14,5 km/h (3 Bft)
25.09.2024 16:39 22,0 °C 18,8 °C 58 % 74 % 1006,0 hPa 0,0 l/m² 9,3 km/h (2 Bft) S 180 ° 1 min 54 W/m² 14,1 °C 17,6 °C 12,9 km/h (3 Bft)
25.09.2024 16:40 22,1 °C 18,8 °C 58 % 75 % 1006,0 hPa 0,0 l/m² 7,1 km/h (2 Bft) S-SO 168 ° 0 min 51 W/m² 14,3 °C 18,5 °C 11,3 km/h (2 Bft)
25.09.2024 16:41 22,1 °C 18,8 °C 58 % 74 % 1006,0 hPa 0,0 l/m² 10,7 km/h (2 Bft) S 171 ° 0 min 51 W/m² 14,1 °C 17,1 °C 14,5 km/h (3 Bft)
25.09.2024 16:42 22,0 °C 18,8 °C 58 % 74 % 1006,0 hPa 0,0 l/m² 9,7 km/h (2 Bft) S 188 ° 0 min 47 W/m² 14,1 °C 17,4 °C 12,9 km/h (3 Bft)
25.09.2024 16:43 22,0 °C 18,7 °C 58 % 74 % 1006,0 hPa 0,0 l/m² 11,4 km/h (2 Bft) S-SW 194 ° 0 min 42 W/m² 14,0 °C 16,7 °C 14,5 km/h (3 Bft)
25.09.2024 16:44 22,0 °C 18,7 °C 58 % 74 % 1006,0 hPa 0,0 l/m² 11,4 km/h (2 Bft) S 175 ° 0 min 39 W/m² 14,0 °C 16,7 °C 14,5 km/h (3 Bft)
25.09.2024 16:45 22,0 °C 18,7 °C 58 % 74 % 1006,0 hPa 0,0 l/m² 8,7 km/h (2 Bft) S 173 ° 0 min 35 W/m² 14,0 °C 17,7 °C 11,3 km/h (2 Bft)
25.09.2024 16:46 22,0 °C 18,7 °C 58 % 75 % 1006,0 hPa 0,0 l/m² 9,4 km/h (2 Bft) S-SO 163 ° 0 min 33 W/m² 14,2 °C 17,4 °C 11,3 km/h (2 Bft)
25.09.2024 16:47 22,0 °C 18,7 °C 58 % 74 % 1006,0 hPa 0,0 l/m² 9,5 km/h (2 Bft) S 191 ° 0 min 33 W/m² 14,0 °C 17,4 °C 12,9 km/h (3 Bft)
25.09.2024 16:48 22,0 °C 18,7 °C 58 % 75 % 1006,0 hPa 0,0 l/m² 7,2 km/h (2 Bft) S-SW 198 ° 0 min 37 W/m² 14,2 °C 18,3 °C 9,7 km/h (2 Bft)
25.09.2024 16:49 22,0 °C 18,7 °C 58 % 75 % 1006,0 hPa 0,0 l/m² 10,1 km/h (2 Bft) S 177 ° 0 min 42 W/m² 14,2 °C 17,2 °C 12,9 km/h (3 Bft)
25.09.2024 16:50 22,0 °C 18,7 °C 58 % 75 % 1006,0 hPa 0,0 l/m² 9,2 km/h (2 Bft) S-SW 205 ° 0 min 46 W/m² 14,2 °C 17,5 °C 12,9 km/h (3 Bft)
25.09.2024 16:51 22,0 °C 18,7 °C 58 % 75 % 1006,0 hPa 0,0 l/m² 9,5 km/h (2 Bft) S 183 ° 0 min 49 W/m² 14,2 °C 17,4 °C 12,9 km/h (3 Bft)
25.09.2024 16:52 22,0 °C 18,6 °C 58 % 75 % 1005,9 hPa 0,0 l/m² 9,0 km/h (2 Bft) S 179 ° 1 min 58 W/m² 14,1 °C 17,5 °C 12,9 km/h (3 Bft)
25.09.2024 16:53 22,0 °C 18,6 °C 58 % 75 % 1005,9 hPa 0,0 l/m² 8,3 km/h (2 Bft) S 173 ° 1 min 65 W/m² 14,1 °C 17,8 °C 9,7 km/h (2 Bft)
25.09.2024 16:54 22,0 °C 18,6 °C 58 % 75 % 1005,9 hPa 0,0 l/m² 6,7 km/h (2 Bft) S 173 ° 1 min 70 W/m² 14,1 °C 18,5 °C 9,7 km/h (2 Bft)
25.09.2024 16:55 22,0 °C 18,6 °C 58 % 76 % 1005,9 hPa 0,0 l/m² 8,9 km/h (2 Bft) S 171 ° 1 min 77 W/m² 14,3 °C 17,5 °C 16,1 km/h (3 Bft)
25.09.2024 16:56 22,0 °C 18,6 °C 58 % 75 % 1005,8 hPa 0,0 l/m² 8,4 km/h (2 Bft) S 173 ° 1 min 83 W/m² 14,1 °C 17,7 °C 11,3 km/h (2 Bft)
25.09.2024 16:57 22,0 °C 18,6 °C 58 % 76 % 1005,8 hPa 0,0 l/m² 7,7 km/h (2 Bft) S 171 ° 1 min 86 W/m² 14,3 °C 18,0 °C 11,3 km/h (2 Bft)
25.09.2024 16:58 22,0 °C 18,6 °C 58 % 75 % 1005,7 hPa 0,0 l/m² 7,8 km/h (2 Bft) S-SO 151 ° 1 min 83 W/m² 14,1 °C 18,0 °C 11,3 km/h (2 Bft)
25.09.2024 16:59 22,0 °C 18,6 °C 58 % 75 % 1005,7 hPa 0,0 l/m² 10,9 km/h (2 Bft) S-SO 158 ° 1 min 81 W/m² 14,1 °C 16,8 °C 16,1 km/h (3 Bft)
25.09.2024 17:00 22,0 °C 18,6 °C 58 % 75 % 1005,7 hPa 0,0 l/m² 13,9 km/h (3 Bft) S 178 ° 1 min 79 W/m² 14,1 °C 15,9 °C 19,3 km/h (3 Bft)
25.09.2024 17:01 22,0 °C 18,6 °C 58 % 73 % 1005,7 hPa 0,0 l/m² 9,3 km/h (2 Bft) S-SO 159 ° 1 min 76 W/m² 13,7 °C 17,4 °C 11,3 km/h (2 Bft)
25.09.2024 17:02 22,0 °C 18,6 °C 58 % 74 % 1005,7 hPa 0,0 l/m² 10,2 km/h (2 Bft) S 173 ° 1 min 74 W/m² 13,9 °C 17,0 °C 16,1 km/h (3 Bft)
25.09.2024 17:03 22,0 °C 18,7 °C 58 % 75 % 1005,6 hPa 0,0 l/m² 9,3 km/h (2 Bft) S-SO 157 ° 1 min 70 W/m² 14,2 °C 17,5 °C 11,3 km/h (2 Bft)
25.09.2024 17:04 22,0 °C 18,7 °C 58 % 75 % 1005,7 hPa 0,0 l/m² 8,5 km/h (2 Bft) S 172 ° 1 min 63 W/m² 14,2 °C 17,8 °C 11,3 km/h (2 Bft)
25.09.2024 17:05 22,0 °C 18,6 °C 58 % 75 % 1005,7 hPa 0,0 l/m² 7,0 km/h (2 Bft) S-SO 163 ° 1 min 60 W/m² 14,1 °C 18,3 °C 9,7 km/h (2 Bft)
25.09.2024 17:06 22,0 °C 18,7 °C 58 % 75 % 1005,7 hPa 0,0 l/m² 6,9 km/h (2 Bft) S 174 ° 1 min 56 W/m² 14,2 °C 18,5 °C 9,7 km/h (2 Bft)
25.09.2024 17:07 22,0 °C 18,6 °C 58 % 75 % 1005,6 hPa 0,0 l/m² 6,7 km/h (2 Bft) S 169 ° 1 min 56 W/m² 14,1 °C 18,5 °C 11,3 km/h (2 Bft)
25.09.2024 17:08 22,0 °C 18,6 °C 58 % 75 % 1005,6 hPa 0,0 l/m² 7,6 km/h (2 Bft) S-SO 150 ° 1 min 54 W/m² 14,1 °C 18,1 °C 11,3 km/h (2 Bft)
25.09.2024 17:09 22,0 °C 18,6 °C 58 % 74 % 1005,7 hPa 0,0 l/m² 7,2 km/h (2 Bft) S 179 ° 1 min 54 W/m² 13,9 °C 18,2 °C 9,7 km/h (2 Bft)
25.09.2024 17:10 22,0 °C 18,6 °C 58 % 75 % 1005,7 hPa 0,0 l/m² 11,3 km/h (2 Bft) S-SO 167 ° 1 min 54 W/m² 14,1 °C 16,6 °C 14,5 km/h (3 Bft)
25.09.2024 17:11 22,0 °C 18,6 °C 58 % 75 % 1005,7 hPa 0,0 l/m² 8,8 km/h (2 Bft) S 169 ° 1 min 54 W/m² 14,1 °C 17,6 °C 12,9 km/h (3 Bft)
25.09.2024 17:12 22,0 °C 18,6 °C 58 % 75 % 1005,7 hPa 0,0 l/m² 8,6 km/h (2 Bft) S-SO 168 ° 1 min 54 W/m² 14,1 °C 17,6 °C 12,9 km/h (3 Bft)
25.09.2024 17:13 22,0 °C 18,7 °C 58 % 75 % 1005,7 hPa 0,0 l/m² 8,9 km/h (2 Bft) S 171 ° 1 min 56 W/m² 14,2 °C 17,6 °C 12,9 km/h (3 Bft)
25.09.2024 17:14 22,0 °C 18,6 °C 58 % 76 % 1005,7 hPa 0,0 l/m² 7,6 km/h (2 Bft) S-SO 166 ° 1 min 58 W/m² 14,3 °C 18,1 °C 9,7 km/h (2 Bft)
25.09.2024 17:15 22,0 °C 18,6 °C 58 % 75 % 1005,7 hPa 0,0 l/m² 9,0 km/h (2 Bft) S-SO 165 ° 1 min 60 W/m² 14,1 °C 17,5 °C 14,5 km/h (3 Bft)
25.09.2024 17:16 22,0 °C 18,6 °C 58 % 75 % 1005,7 hPa 0,0 l/m² 10,8 km/h (2 Bft) S-SO 161 ° 1 min 62 W/m² 14,1 °C 16,8 °C 14,5 km/h (3 Bft)
25.09.2024 17:17 22,0 °C 18,6 °C 58 % 75 % 1005,7 hPa 0,0 l/m² 9,4 km/h (2 Bft) S 188 ° 1 min 62 W/m² 14,1 °C 17,3 °C 14,5 km/h (3 Bft)
25.09.2024 17:18 21,9 °C 18,6 °C 58 % 75 % 1005,7 hPa 0,0 l/m² 8,5 km/h (2 Bft) S-SO 159 ° 1 min 62 W/m² 14,1 °C 17,7 °C 12,9 km/h (3 Bft)
25.09.2024 17:19 22,0 °C 18,6 °C 58 % 76 % 1005,7 hPa 0,0 l/m² 8,0 km/h (2 Bft) S 174 ° 1 min 60 W/m² 14,3 °C 17,9 °C 9,7 km/h (2 Bft)
25.09.2024 17:20 22,0 °C 18,6 °C 58 % 76 % 1005,7 hPa 0,0 l/m² 7,7 km/h (2 Bft) S-SO 167 ° 1 min 58 W/m² 14,3 °C 18,0 °C 9,7 km/h (2 Bft)
25.09.2024 17:21 22,0 °C 18,6 °C 58 % 77 % 1005,8 hPa 0,0 l/m² 5,3 km/h (1 Bft) S 169 ° 1 min 54 W/m² 14,5 °C 18,6 °C 6,4 km/h (2 Bft)
25.09.2024 17:22 21,9 °C 18,5 °C 58 % 76 % 1005,7 hPa 0,0 l/m² 4,1 km/h (1 Bft) S-SO 159 ° 0 min 49 W/m² 14,2 °C 18,5 °C 6,4 km/h (2 Bft)
25.09.2024 17:23 22,0 °C 18,5 °C 58 % 77 % 1005,7 hPa 0,0 l/m² 7,5 km/h (2 Bft) S 176 ° 0 min 47 W/m² 14,4 °C 18,0 °C 9,7 km/h (2 Bft)
25.09.2024 17:24 21,9 °C 18,4 °C 58 % 76 % 1005,8 hPa 0,0 l/m² 8,0 km/h (2 Bft) S 172 ° 0 min 46 W/m² 14,1 °C 17,7 °C 9,7 km/h (2 Bft)
25.09.2024 17:25 22,0 °C 18,4 °C 58 % 76 % 1005,7 hPa 0,0 l/m² 7,6 km/h (2 Bft) S 177 ° 0 min 47 W/m² 14,1 °C 17,8 °C 9,7 km/h (2 Bft)
25.09.2024 17:26 22,0 °C 18,4 °C 58 % 77 % 1005,7 hPa 0,0 l/m² 5,4 km/h (2 Bft) S-SO 168 ° 0 min 51 W/m² 14,3 °C 18,4 °C 8,0 km/h (2 Bft)
25.09.2024 17:27 21,9 °C 18,4 °C 58 % 77 % 1005,7 hPa 0,0 l/m² 9,7 km/h (2 Bft) S-SO 160 ° 1 min 58 W/m² 14,3 °C 17,0 °C 16,1 km/h (3 Bft)
25.09.2024 17:28 21,9 °C 18,4 °C 58 % 76 % 1005,7 hPa 0,0 l/m² 11,3 km/h (2 Bft) S 171 ° 1 min 79 W/m² 14,1 °C 16,4 °C 16,1 km/h (3 Bft)
25.09.2024 17:29 21,9 °C 18,4 °C 58 % 76 % 1005,6 hPa 0,0 l/m² 11,1 km/h (2 Bft) S 178 ° 1 min 91 W/m² 14,1 °C 16,5 °C 14,5 km/h (3 Bft)
25.09.2024 17:30 21,9 °C 18,4 °C 58 % 76 % 1005,7 hPa 0,0 l/m² 11,3 km/h (2 Bft) S-SO 158 ° 1 min 105 W/m² 14,1 °C 16,4 °C 17,7 km/h (3 Bft)
25.09.2024 17:31 22,0 °C 18,4 °C 58 % 75 % 1005,6 hPa 0,0 l/m² 10,1 km/h (2 Bft) S-SO 167 ° 1 min 93 W/m² 13,9 °C 16,8 °C 16,1 km/h (3 Bft)
25.09.2024 17:32 22,0 °C 18,6 °C 58 % 75 % 1005,7 hPa 0,0 l/m² 9,7 km/h (2 Bft) S 172 ° 1 min 113 W/m² 14,1 °C 17,2 °C 11,3 km/h (2 Bft)
25.09.2024 17:33 22,0 °C 18,6 °C 58 % 76 % 1005,6 hPa 0,0 l/m² 10,0 km/h (2 Bft) S 170 ° 1 min 114 W/m² 14,3 °C 17,1 °C 12,9 km/h (3 Bft)
25.09.2024 17:34 22,0 °C 18,5 °C 58 % 75 % 1005,6 hPa 0,0 l/m² 8,4 km/h (2 Bft) S 173 ° 1 min 67 W/m² 14,0 °C 17,6 °C 11,3 km/h (2 Bft)
25.09.2024 17:35 22,0 °C 18,6 °C 58 % 76 % 1005,6 hPa 0,0 l/m² 7,1 km/h (2 Bft) S-SW 192 ° 1 min 62 W/m² 14,3 °C 18,3 °C 11,3 km/h (2 Bft)
25.09.2024 17:36 22,0 °C 18,5 °C 58 % 76 % 1005,6 hPa 0,0 l/m² 6,8 km/h (2 Bft) S-SO 167 ° 1 min 56 W/m² 14,2 °C 18,3 °C 8,0 km/h (2 Bft)
25.09.2024 17:37 22,0 °C 18,5 °C 58 % 76 % 1005,6 hPa 0,0 l/m² 7,4 km/h (2 Bft) S-SO 156 ° 1 min 54 W/m² 14,2 °C 18,0 °C 9,7 km/h (2 Bft)
25.09.2024 17:38 22,0 °C 18,4 °C 58 % 77 % 1005,7 hPa 0,0 l/m² 6,4 km/h (2 Bft) S 175 ° 1 min 53 W/m² 14,3 °C 18,4 °C 9,7 km/h (2 Bft)
25.09.2024 17:39 21,9 °C 18,5 °C 58 % 76 % 1005,6 hPa 0,0 l/m² 6,6 km/h (2 Bft) S 172 ° 0 min 49 W/m² 14,2 °C 18,4 °C 9,7 km/h (2 Bft)
25.09.2024 17:40 22,0 °C 18,4 °C 58 % 77 % 1005,6 hPa 0,0 l/m² 3,8 km/h (1 Bft) S-SO 167 ° 0 min 44 W/m² 14,3 °C 18,4 °C 6,4 km/h (2 Bft)
25.09.2024 17:41 21,9 °C 18,4 °C 58 % 77 % 1005,6 hPa 0,0 l/m² 5,1 km/h (1 Bft) S-SO 154 ° 0 min 42 W/m² 14,3 °C 18,4 °C 6,4 km/h (2 Bft)
25.09.2024 17:42 21,9 °C 18,4 °C 58 % 77 % 1005,6 hPa 0,0 l/m² 4,6 km/h (1 Bft) S-SO 157 ° 0 min 42 W/m² 14,3 °C 18,4 °C 6,4 km/h (2 Bft)
25.09.2024 17:43 22,0 °C 18,4 °C 58 % 77 % 1005,6 hPa 0,0 l/m² 4,5 km/h (1 Bft) S-SO 157 ° 0 min 44 W/m² 14,3 °C 18,4 °C 4,8 km/h (1 Bft)
25.09.2024 17:44 21,9 °C 18,3 °C 58 % 78 % 1005,6 hPa 0,0 l/m² 4,8 km/h (1 Bft) S-SO 152 ° 0 min 47 W/m² 14,4 °C 18,3 °C 6,4 km/h (2 Bft)
25.09.2024 17:45 22,0 °C 18,3 °C 58 % 77 % 1005,6 hPa 0,0 l/m² 5,2 km/h (1 Bft) S-SO 163 ° 1 min 54 W/m² 14,2 °C 18,3 °C 8,0 km/h (2 Bft)
25.09.2024 17:46 22,0 °C 18,3 °C 58 % 77 % 1005,6 hPa 0,0 l/m² 8,2 km/h (2 Bft) S-SO 165 ° 1 min 60 W/m² 14,2 °C 17,5 °C 11,3 km/h (2 Bft)
25.09.2024 17:47 21,9 °C 18,3 °C 58 % 76 % 1005,5 hPa 0,0 l/m² 5,5 km/h (2 Bft) S-SO 155 ° 1 min 65 W/m² 14,0 °C 18,3 °C 6,4 km/h (2 Bft)
25.09.2024 17:48 21,9 °C 18,3 °C 58 % 77 % 1005,5 hPa 0,0 l/m² 6,0 km/h (2 Bft) S-SO 157 ° 1 min 69 W/m² 14,2 °C 18,3 °C 8,0 km/h (2 Bft)
25.09.2024 17:49 22,0 °C 18,3 °C 58 % 77 % 1005,5 hPa 0,0 l/m² 6,6 km/h (2 Bft) S-SO 163 ° 1 min 72 W/m² 14,2 °C 18,2 °C 8,0 km/h (2 Bft)
25.09.2024 17:50 22,0 °C 18,3 °C 58 % 77 % 1005,5 hPa 0,0 l/m² 3,0 km/h (1 Bft) S-SO 148 ° 1 min 72 W/m² 14,2 °C 18,3 °C 8,0 km/h (2 Bft)
25.09.2024 17:51 21,9 °C 18,3 °C 58 % 77 % 1005,5 hPa 0,0 l/m² 6,6 km/h (2 Bft) S 169 ° 1 min 77 W/m² 14,2 °C 18,2 °C 9,7 km/h (2 Bft)
25.09.2024 17:52 21,9 °C 18,3 °C 58 % 77 % 1005,5 hPa 0,0 l/m² 4,4 km/h (1 Bft) S-SO 155 ° 1 min 83 W/m² 14,2 °C 18,3 °C 8,0 km/h (2 Bft)
25.09.2024 17:53 21,9 °C 18,3 °C 58 % 77 % 1005,4 hPa 0,0 l/m² 4,9 km/h (1 Bft) S-SO 161 ° 1 min 88 W/m² 14,2 °C 18,3 °C 6,4 km/h (2 Bft)
25.09.2024 17:54 22,0 °C 18,3 °C 58 % 77 % 1005,4 hPa 0,0 l/m² 5,7 km/h (2 Bft) S-SO 168 ° 1 min 95 W/m² 14,2 °C 18,3 °C 8,0 km/h (2 Bft)
25.09.2024 17:55 21,9 °C 18,3 °C 58 % 77 % 1005,4 hPa 0,0 l/m² 4,9 km/h (1 Bft) S-SO 159 ° 1 min 100 W/m² 14,2 °C 18,3 °C 8,0 km/h (2 Bft)
25.09.2024 17:56 22,0 °C 18,3 °C 58 % 77 % 1005,4 hPa 0,0 l/m² 5,2 km/h (1 Bft) SO 146 ° 1 min 100 W/m² 14,2 °C 18,3 °C 8,0 km/h (2 Bft)
25.09.2024 17:57 21,9 °C 18,3 °C 58 % 77 % 1005,4 hPa 0,0 l/m² 5,5 km/h (2 Bft) S-SO 161 ° 1 min 98 W/m² 14,2 °C 18,3 °C 8,0 km/h (2 Bft)
25.09.2024 17:58 21,9 °C 18,3 °C 58 % 77 % 1005,4 hPa 0,0 l/m² 4,5 km/h (1 Bft) S-SO 159 ° 1 min 95 W/m² 14,2 °C 18,3 °C 6,4 km/h (2 Bft)
25.09.2024 17:59 21,9 °C 18,4 °C 58 % 77 % 1005,4 hPa 0,0 l/m² 4,6 km/h (1 Bft) S-SO 159 ° 1 min 86 W/m² 14,3 °C 18,4 °C 8,0 km/h (2 Bft)
25.09.2024 18:00 21,9 °C 18,4 °C 58 % 76 % 1005,3 hPa 0,0 l/m² 6,2 km/h (2 Bft) S-SO 161 ° 1 min 86 W/m² 14,1 °C 18,4 °C 8,0 km/h (2 Bft)
25.09.2024 18:01 22,0 °C 18,4 °C 58 % 77 % 1005,4 hPa 0,0 l/m² 3,9 km/h (1 Bft) S-SO 156 ° 1 min 76 W/m² 14,3 °C 18,4 °C 8,0 km/h (2 Bft)
25.09.2024 18:02 21,9 °C 18,4 °C 58 % 77 % 1005,2 hPa 0,0 l/m² 4,1 km/h (1 Bft) SO 146 ° 1 min 70 W/m² 14,3 °C 18,4 °C 6,4 km/h (2 Bft)
25.09.2024 18:03 21,9 °C 18,4 °C 58 % 78 % 1005,2 hPa 0,0 l/m² 3,9 km/h (1 Bft) S-SO 153 ° 1 min 67 W/m² 14,5 °C 18,4 °C 8,0 km/h (2 Bft)
25.09.2024 18:04 21,9 °C 18,4 °C 58 % 77 % 1005,3 hPa 0,0 l/m² 6,4 km/h (2 Bft) S-SO 158 ° 1 min 60 W/m² 14,3 °C 18,4 °C 8,0 km/h (2 Bft)
25.09.2024 18:05 21,9 °C 18,4 °C 58 % 77 % 1005,2 hPa 0,0 l/m² 4,2 km/h (1 Bft) SO 146 ° 1 min 58 W/m² 14,3 °C 18,4 °C 6,4 km/h (2 Bft)
25.09.2024 18:06 22,0 °C 18,4 °C 58 % 76 % 1005,3 hPa 0,0 l/m² 5,0 km/h (1 Bft) S-SO 158 ° 1 min 60 W/m² 14,1 °C 18,4 °C 8,0 km/h (2 Bft)
25.09.2024 18:07 21,9 °C 18,4 °C 58 % 76 % 1005,3 hPa 0,0 l/m² 6,9 km/h (2 Bft) SO 141 ° 1 min 67 W/m² 14,1 °C 18,2 °C 11,3 km/h (2 Bft)
25.09.2024 18:08 22,0 °C 18,4 °C 58 % 75 % 1005,2 hPa 0,0 l/m² 8,0 km/h (2 Bft) SO 140 ° 1 min 74 W/m² 13,9 °C 17,7 °C 9,7 km/h (2 Bft)
25.09.2024 18:09 21,9 °C 18,4 °C 58 % 75 % 1005,3 hPa 0,0 l/m² 6,6 km/h (2 Bft) SO 134 ° 1 min 69 W/m² 13,9 °C 18,3 °C 9,7 km/h (2 Bft)
25.09.2024 18:10 21,9 °C 18,5 °C 58 % 75 % 1005,3 hPa 0,0 l/m² 6,1 km/h (2 Bft) S-SO 150 ° 1 min 67 W/m² 14,0 °C 18,5 °C 8,0 km/h (2 Bft)
25.09.2024 18:11 22,0 °C 18,5 °C 58 % 75 % 1005,2 hPa 0,0 l/m² 5,4 km/h (2 Bft) S-SO 156 ° 1 min 63 W/m² 14,0 °C 18,5 °C 8,0 km/h (2 Bft)
25.09.2024 18:12 21,9 °C 18,6 °C 58 % 75 % 1005,3 hPa 0,0 l/m² 7,0 km/h (2 Bft) S-SO 161 ° 1 min 62 W/m² 14,1 °C 18,3 °C 9,7 km/h (2 Bft)
25.09.2024 18:13 22,0 °C 18,5 °C 58 % 75 % 1005,2 hPa 0,0 l/m² 7,2 km/h (2 Bft) S-SO 160 ° 1 min 58 W/m² 14,0 °C 18,1 °C 9,7 km/h (2 Bft)
25.09.2024 18:14 21,9 °C 18,5 °C 58 % 75 % 1005,2 hPa 0,0 l/m² 8,2 km/h (2 Bft) SO 146 ° 0 min 49 W/m² 14,0 °C 17,7 °C 9,7 km/h (2 Bft)
25.09.2024 18:15 22,0 °C 18,5 °C 58 % 76 % 1005,4 hPa 0,0 l/m² 7,4 km/h (2 Bft) S-SO 167 ° 0 min 46 W/m² 14,2 °C 18,0 °C 9,7 km/h (2 Bft)
25.09.2024 18:16 22,0 °C 18,5 °C 58 % 76 % 1005,3 hPa 0,0 l/m² 5,6 km/h (2 Bft) S-SO 155 ° 0 min 42 W/m² 14,2 °C 18,5 °C 8,0 km/h (2 Bft)
25.09.2024 18:17 21,9 °C 18,4 °C 58 % 76 % 1005,4 hPa 0,0 l/m² 5,3 km/h (1 Bft) S-SO 155 ° 0 min 39 W/m² 14,1 °C 18,4 °C 8,0 km/h (2 Bft)
25.09.2024 18:18 22,0 °C 18,4 °C 58 % 76 % 1005,3 hPa 0,0 l/m² 4,9 km/h (1 Bft) S-SO 156 ° 0 min 37 W/m² 14,1 °C 18,4 °C 6,4 km/h (2 Bft)
25.09.2024 18:19 22,0 °C 18,4 °C 58 % 76 % 1005,2 hPa 0,0 l/m² 4,2 km/h (1 Bft) S-SO 153 ° 0 min 35 W/m² 14,1 °C 18,4 °C 6,4 km/h (2 Bft)
25.09.2024 18:20 22,0 °C 18,3 °C 58 % 76 % 1005,2 hPa 0,0 l/m² 4,8 km/h (1 Bft) S-SO 159 ° 0 min 32 W/m² 14,0 °C 18,3 °C 8,0 km/h (2 Bft)
25.09.2024 18:21 22,0 °C 18,3 °C 58 % 77 % 1005,2 hPa 0,0 l/m² 4,9 km/h (1 Bft) S-SO 156 ° 0 min 30 W/m² 14,2 °C 18,3 °C 6,4 km/h (2 Bft)
25.09.2024 18:22 22,0 °C 18,3 °C 58 % 77 % 1005,2 hPa 0,0 l/m² 3,2 km/h (1 Bft) S-SO 160 ° 0 min 30 W/m² 14,2 °C 18,3 °C 6,4 km/h (2 Bft)
25.09.2024 18:23 22,0 °C 18,2 °C 58 % 78 % 1005,2 hPa 0,0 l/m² 7,4 km/h (2 Bft) S-SO 161 ° 0 min 26 W/m² 14,3 °C 17,7 °C 9,7 km/h (2 Bft)
25.09.2024 18:24 22,0 °C 18,2 °C 58 % 77 % 1005,1 hPa 0,0 l/m² 7,2 km/h (2 Bft) S-SO 161 ° 0 min 25 W/m² 14,1 °C 17,8 °C 9,7 km/h (2 Bft)
25.09.2024 18:25 22,0 °C 18,2 °C 58 % 77 % 1005,1 hPa 0,0 l/m² 8,4 km/h (2 Bft) S-SO 157 ° 0 min 25 W/m² 14,1 °C 17,3 °C 9,7 km/h (2 Bft)
25.09.2024 18:26 22,0 °C 18,2 °C 58 % 77 % 1005,1 hPa 0,0 l/m² 5,8 km/h (2 Bft) S-SO 148 ° 0 min 25 W/m² 14,1 °C 18,2 °C 9,7 km/h (2 Bft)
25.09.2024 18:27 22,0 °C 18,2 °C 58 % 77 % 1005,1 hPa 0,0 l/m² 3,7 km/h (1 Bft) S 169 ° 0 min 25 W/m² 14,1 °C 18,2 °C 6,4 km/h (2 Bft)
25.09.2024 18:28 22,0 °C 18,1 °C 58 % 77 % 1005,1 hPa 0,0 l/m² 6,7 km/h (2 Bft) S 178 ° 0 min 25 W/m² 14,0 °C 18,0 °C 8,0 km/h (2 Bft)
25.09.2024 18:29 22,0 °C 18,1 °C 58 % 77 % 1005,1 hPa 0,0 l/m² 8,3 km/h (2 Bft) S 171 ° 0 min 25 W/m² 14,0 °C 17,2 °C 12,9 km/h (3 Bft)
25.09.2024 18:30 22,0 °C 18,1 °C 58 % 77 % 1005,2 hPa 0,0 l/m² 7,4 km/h (2 Bft) S 176 ° 0 min 25 W/m² 14,0 °C 17,6 °C 11,3 km/h (2 Bft)
25.09.2024 18:31 22,1 °C 18,1 °C 58 % 77 % 1005,1 hPa 0,0 l/m² 7,7 km/h (2 Bft) S-SO 160 ° 0 min 25 W/m² 14,0 °C 17,5 °C 9,7 km/h (2 Bft)
25.09.2024 18:32 22,0 °C 18,1 °C 58 % 78 % 1005,2 hPa 0,0 l/m² 5,5 km/h (2 Bft) S 182 ° 0 min 23 W/m² 14,2 °C 18,1 °C 8,0 km/h (2 Bft)
25.09.2024 18:33 22,0 °C 18,1 °C 58 % 78 % 1005,1 hPa 0,0 l/m² 8,5 km/h (2 Bft) S 172 ° 0 min 23 W/m² 14,2 °C 17,1 °C 12,9 km/h (3 Bft)
25.09.2024 18:34 22,0 °C 18,0 °C 58 % 78 % 1005,1 hPa 0,0 l/m² 7,8 km/h (2 Bft) S 170 ° 0 min 21 W/m² 14,1 °C 17,3 °C 9,7 km/h (2 Bft)
25.09.2024 18:35 22,1 °C 18,1 °C 58 % 77 % 1005,0 hPa 0,0 l/m² 9,7 km/h (2 Bft) S 181 ° 0 min 21 W/m² 14,0 °C 16,7 °C 12,9 km/h (3 Bft)
25.09.2024 18:36 22,0 °C 18,0 °C 58 % 77 % 1005,1 hPa 0,0 l/m² 9,5 km/h (2 Bft) S-SO 165 ° 0 min 19 W/m² 13,9 °C 16,6 °C 12,9 km/h (3 Bft)
25.09.2024 18:37 22,0 °C 18,0 °C 58 % 77 % 1005,0 hPa 0,0 l/m² 7,7 km/h (2 Bft) S 175 ° 0 min 18 W/m² 13,9 °C 17,4 °C 11,3 km/h (2 Bft)
25.09.2024 18:38 22,0 °C 18,0 °C 58 % 78 % 1005,0 hPa 0,0 l/m² 8,6 km/h (2 Bft) S 171 ° 0 min 16 W/m² 14,1 °C 17,0 °C 12,9 km/h (3 Bft)
25.09.2024 18:39 22,0 °C 17,9 °C 59 % 78 % 1005,1 hPa 0,0 l/m² 10,3 km/h (2 Bft) S 183 ° 0 min 14 W/m² 14,0 °C 16,2 °C 14,5 km/h (3 Bft)
25.09.2024 18:40 22,1 °C 17,9 °C 58 % 77 % 1005,2 hPa 0,0 l/m² 8,6 km/h (2 Bft) S 175 ° 0 min 14 W/m² 13,8 °C 16,9 °C 11,3 km/h (2 Bft)
25.09.2024 18:41 22,0 °C 17,9 °C 58 % 78 % 1005,2 hPa 0,0 l/m² 10,2 km/h (2 Bft) S 183 ° 0 min 12 W/m² 14,0 °C 16,2 °C 14,5 km/h (3 Bft)
25.09.2024 18:42 22,0 °C 17,9 °C 58 % 78 % 1005,2 hPa 0,0 l/m² 10,3 km/h (2 Bft) S-SW 192 ° 0 min 12 W/m² 14,0 °C 16,2 °C 12,9 km/h (3 Bft)
25.09.2024 18:43 22,1 °C 17,9 °C 58 % 78 % 1005,2 hPa 0,0 l/m² 9,7 km/h (2 Bft) S 185 ° 0 min 11 W/m² 14,0 °C 16,4 °C 11,3 km/h (2 Bft)
25.09.2024 18:44 22,0 °C 17,8 °C 58 % 78 % 1005,1 hPa 0,0 l/m² 8,2 km/h (2 Bft) S 176 ° 0 min 11 W/m² 13,9 °C 17,0 °C 11,3 km/h (2 Bft)
25.09.2024 18:46 22,1 °C 17,8 °C 58 % 78 % 1005,2 hPa 0,0 l/m² 8,5 km/h (2 Bft) S 184 ° 0 min 9 W/m² 13,9 °C 16,8 °C 12,9 km/h (3 Bft)
25.09.2024 18:47 22,0 °C 17,7 °C 58 % 78 % 1005,2 hPa 0,0 l/m² 9,4 km/h (2 Bft) S 179 ° 0 min 9 W/m² 13,8 °C 16,3 °C 12,9 km/h (3 Bft)
25.09.2024 18:48 22,0 °C 17,7 °C 58 % 79 % 1005,2 hPa 0,0 l/m² 6,6 km/h (2 Bft) S 186 ° 0 min 7 W/m² 14,0 °C 17,6 °C 9,7 km/h (2 Bft)
25.09.2024 18:49 22,0 °C 17,7 °C 58 % 79 % 1005,2 hPa 0,0 l/m² 8,9 km/h (2 Bft) S 186 ° 0 min 7 W/m² 14,0 °C 16,5 °C 12,9 km/h (3 Bft)
25.09.2024 18:50 22,0 °C 17,7 °C 58 % 79 % 1005,2 hPa 0,0 l/m² 8,1 km/h (2 Bft) S 186 ° 0 min 5 W/m² 14,0 °C 16,9 °C 11,3 km/h (2 Bft)
25.09.2024 18:51 22,1 °C 17,6 °C 58 % 79 % 1005,1 hPa 0,0 l/m² 10,1 km/h (2 Bft) S 179 ° 0 min 5 W/m² 13,9 °C 16,0 °C 12,9 km/h (3 Bft)
25.09.2024 18:52 22,0 °C 17,6 °C 58 % 79 % 1005,1 hPa 0,0 l/m² 7,6 km/h (2 Bft) S 188 ° 0 min 5 W/m² 13,9 °C 17,0 °C 9,7 km/h (2 Bft)
25.09.2024 18:53 22,0 °C 17,6 °C 58 % 79 % 1005,1 hPa 0,0 l/m² 8,0 km/h (2 Bft) S 182 ° 0 min 0 W/m² 13,9 °C 16,8 °C 9,7 km/h (2 Bft)
25.09.2024 18:54 22,0 °C 17,6 °C 58 % 79 % 1005,1 hPa 0,0 l/m² 10,2 km/h (2 Bft) S 183 ° 0 min 0 W/m² 13,9 °C 15,9 °C 14,5 km/h (3 Bft)
25.09.2024 18:55 22,0 °C 17,6 °C 58 % 79 % 1005,1 hPa 0,0 l/m² 10,1 km/h (2 Bft) S 175 ° 0 min 0 W/m² 13,9 °C 16,0 °C 12,9 km/h (3 Bft)
25.09.2024 18:56 22,0 °C 17,5 °C 58 % 79 % 1005,1 hPa 0,0 l/m² 10,5 km/h (2 Bft) S 182 ° 0 min 0 W/m² 13,8 °C 15,7 °C 16,1 km/h (3 Bft)
25.09.2024 18:57 22,0 °C 17,5 °C 58 % 79 % 1005,1 hPa 0,0 l/m² 10,5 km/h (2 Bft) S 184 ° 0 min 0 W/m² 13,8 °C 15,7 °C 14,5 km/h (3 Bft)
25.09.2024 18:58 22,0 °C 17,5 °C 58 % 79 % 1005,2 hPa 0,0 l/m² 10,7 km/h (2 Bft) S 172 ° 0 min 0 W/m² 13,8 °C 15,6 °C 14,5 km/h (3 Bft)
25.09.2024 18:59 22,0 °C 17,5 °C 58 % 79 % 1005,2 hPa 0,0 l/m² 11,4 km/h (2 Bft) S 190 ° 0 min 0 W/m² 13,8 °C 15,4 °C 17,7 km/h (3 Bft)
25.09.2024 19:00 22,0 °C 17,5 °C 58 % 79 % 1005,2 hPa 0,0 l/m² 11,5 km/h (2 Bft) S 173 ° 0 min 0 W/m² 13,8 °C 15,3 °C 17,7 km/h (3 Bft)
25.09.2024 19:01 22,0 °C 17,5 °C 58 % 79 % 1005,1 hPa 0,0 l/m² 8,9 km/h (2 Bft) S 188 ° 0 min 0 W/m² 13,8 °C 16,3 °C 11,3 km/h (2 Bft)
25.09.2024 19:02 22,0 °C 17,5 °C 59 % 79 % 1005,1 hPa 0,0 l/m² 9,9 km/h (2 Bft) S 173 ° 0 min 0 W/m² 13,8 °C 15,9 °C 11,3 km/h (2 Bft)
25.09.2024 19:03 22,0 °C 17,5 °C 59 % 79 % 1005,1 hPa 0,0 l/m² 10,8 km/h (2 Bft) S 175 ° 0 min 0 W/m² 13,8 °C 15,6 °C 14,5 km/h (3 Bft)
25.09.2024 19:04 22,0 °C 17,4 °C 58 % 79 % 1005,0 hPa 0,0 l/m² 9,1 km/h (2 Bft) S 173 ° 0 min 0 W/m² 13,7 °C 16,1 °C 12,9 km/h (3 Bft)
25.09.2024 19:05 22,0 °C 17,4 °C 58 % 79 % 1005,0 hPa 0,0 l/m² 9,9 km/h (2 Bft) S 174 ° 0 min 0 W/m² 13,7 °C 15,8 °C 17,7 km/h (3 Bft)
25.09.2024 19:06 21,9 °C 17,4 °C 58 % 79 % 1005,0 hPa 0,0 l/m² 9,4 km/h (2 Bft) S-SO 148 ° 0 min 0 W/m² 13,7 °C 16,0 °C 11,3 km/h (2 Bft)
25.09.2024 19:07 22,0 °C 17,4 °C 58 % 79 % 1005,0 hPa 0,0 l/m² 10,1 km/h (2 Bft) S 176 ° 0 min 0 W/m² 13,7 °C 15,7 °C 11,3 km/h (2 Bft)
25.09.2024 19:08 22,0 °C 17,4 °C 58 % 79 % 1005,0 hPa 0,0 l/m² 10,7 km/h (2 Bft) SO 140 ° 0 min 0 W/m² 13,7 °C 15,5 °C 16,1 km/h (3 Bft)
25.09.2024 19:09 22,0 °C 17,4 °C 58 % 79 % 1005,0 hPa 0,0 l/m² 9,6 km/h (2 Bft) S 179 ° 0 min 0 W/m² 13,7 °C 15,9 °C 12,9 km/h (3 Bft)
25.09.2024 19:10 22,0 °C 17,4 °C 58 % 79 % 1005,1 hPa 0,0 l/m² 8,2 km/h (2 Bft) S 183 ° 0 min 0 W/m² 13,7 °C 16,5 °C 9,7 km/h (2 Bft)
25.09.2024 19:11 22,0 °C 17,4 °C 58 % 79 % 1005,0 hPa 0,0 l/m² 10,7 km/h (2 Bft) S 181 ° 0 min 0 W/m² 13,7 °C 15,5 °C 12,9 km/h (3 Bft)
25.09.2024 19:12 21,9 °C 17,4 °C 58 % 79 % 1005,0 hPa 0,0 l/m² 10,5 km/h (2 Bft) S 185 ° 0 min 0 W/m² 13,7 °C 15,6 °C 16,1 km/h (3 Bft)
25.09.2024 19:13 22,0 °C 17,4 °C 58 % 79 % 1005,0 hPa 0,0 l/m² 9,8 km/h (2 Bft) S-SW 198 ° 0 min 0 W/m² 13,7 °C 15,8 °C 14,5 km/h (3 Bft)
25.09.2024 19:14 22,0 °C 17,3 °C 58 % 79 % 1005,1 hPa 0,0 l/m² 10,0 km/h (2 Bft) S 169 ° 0 min 0 W/m² 13,6 °C 15,7 °C 16,1 km/h (3 Bft)
25.09.2024 19:15 21,9 °C 17,3 °C 58 % 79 % 1005,1 hPa 0,0 l/m² 9,3 km/h (2 Bft) S 181 ° 0 min 0 W/m² 13,6 °C 15,9 °C 11,3 km/h (2 Bft)
25.09.2024 19:16 21,9 °C 17,3 °C 58 % 79 % 1005,0 hPa 0,0 l/m² 9,5 km/h (2 Bft) S-SW 192 ° 0 min 0 W/m² 13,6 °C 15,9 °C 12,9 km/h (3 Bft)
25.09.2024 19:17 22,0 °C 17,3 °C 58 % 80 % 1005,0 hPa 0,0 l/m² 9,8 km/h (2 Bft) S 186 ° 0 min 0 W/m² 13,8 °C 15,7 °C 16,1 km/h (3 Bft)
25.09.2024 19:18 21,9 °C 17,2 °C 58 % 80 % 1004,9 hPa 0,0 l/m² 9,3 km/h (2 Bft) S 171 ° 0 min 0 W/m² 13,7 °C 15,8 °C 14,5 km/h (3 Bft)
25.09.2024 19:19 22,0 °C 17,2 °C 58 % 80 % 1005,0 hPa 0,0 l/m² 8,6 km/h (2 Bft) S 171 ° 0 min 0 W/m² 13,7 °C 16,1 °C 11,3 km/h (2 Bft)
25.09.2024 19:20 22,0 °C 17,2 °C 58 % 80 % 1005,0 hPa 0,0 l/m² 8,2 km/h (2 Bft) S 179 ° 0 min 0 W/m² 13,7 °C 16,3 °C 11,3 km/h (2 Bft)
25.09.2024 19:21 22,0 °C 17,2 °C 58 % 80 % 1005,0 hPa 0,0 l/m² 7,2 km/h (2 Bft) S 184 ° 0 min 0 W/m² 13,7 °C 16,8 °C 9,7 km/h (2 Bft)
25.09.2024 19:22 22,0 °C 17,2 °C 58 % 80 % 1005,0 hPa 0,0 l/m² 11,8 km/h (2 Bft) S 184 ° 0 min 0 W/m² 13,7 °C 14,9 °C 17,7 km/h (3 Bft)
25.09.2024 19:23 22,0 °C 17,2 °C 58 % 80 % 1005,0 hPa 0,0 l/m² 9,7 km/h (2 Bft) S 170 ° 0 min 0 W/m² 13,7 °C 15,7 °C 12,9 km/h (3 Bft)
25.09.2024 19:24 22,0 °C 17,1 °C 58 % 80 % 1005,1 hPa 0,0 l/m² 11,1 km/h (2 Bft) S 184 ° 0 min 0 W/m² 13,6 °C 15,0 °C 16,1 km/h (3 Bft)
25.09.2024 19:25 22,0 °C 17,2 °C 58 % 80 % 1005,1 hPa 0,0 l/m² 11,5 km/h (2 Bft) S 173 ° 0 min 0 W/m² 13,7 °C 15,0 °C 16,1 km/h (3 Bft)
25.09.2024 19:26 22,0 °C 17,2 °C 58 % 80 % 1005,0 hPa 0,0 l/m² 9,1 km/h (2 Bft) S 188 ° 0 min 0 W/m² 13,7 °C 15,9 °C 11,3 km/h (2 Bft)
25.09.2024 19:27 22,0 °C 17,1 °C 58 % 80 % 1005,0 hPa 0,0 l/m² 9,9 km/h (2 Bft) S 186 ° 0 min 0 W/m² 13,6 °C 15,5 °C 14,5 km/h (3 Bft)
25.09.2024 19:28 21,9 °C 17,1 °C 58 % 79 % 1005,0 hPa 0,0 l/m² 12,3 km/h (2 Bft) S 188 ° 0 min 0 W/m² 13,4 °C 14,6 °C 14,5 km/h (3 Bft)
25.09.2024 19:29 22,0 °C 17,1 °C 58 % 79 % 1005,0 hPa 0,0 l/m² 9,5 km/h (2 Bft) S-SW 197 ° 0 min 0 W/m² 13,4 °C 15,6 °C 12,9 km/h (3 Bft)
25.09.2024 19:30 22,0 °C 17,1 °C 58 % 79 % 1005,0 hPa 0,0 l/m² 11,1 km/h (2 Bft) S 182 ° 0 min 0 W/m² 13,4 °C 15,0 °C 14,5 km/h (3 Bft)
25.09.2024 19:31 22,0 °C 17,2 °C 58 % 80 % 1005,1 hPa 0,0 l/m² 9,5 km/h (2 Bft) S 184 ° 0 min 0 W/m² 13,7 °C 15,8 °C 11,3 km/h (2 Bft)
25.09.2024 19:32 22,0 °C 17,1 °C 58 % 80 % 1004,9 hPa 0,0 l/m² 8,3 km/h (2 Bft) S 180 ° 0 min 0 W/m² 13,6 °C 16,2 °C 11,3 km/h (2 Bft)
25.09.2024 19:33 22,0 °C 17,1 °C 58 % 80 % 1005,0 hPa 0,0 l/m² 10,8 km/h (2 Bft) S 172 ° 0 min 0 W/m² 13,6 °C 15,1 °C 12,9 km/h (3 Bft)
25.09.2024 19:34 22,0 °C 17,1 °C 59 % 80 % 1005,0 hPa 0,0 l/m² 10,5 km/h (2 Bft) S 169 ° 0 min 0 W/m² 13,6 °C 15,2 °C 14,5 km/h (3 Bft)
25.09.2024 19:35 22,0 °C 17,1 °C 59 % 80 % 1005,1 hPa 0,0 l/m² 10,2 km/h (2 Bft) S 190 ° 0 min 0 W/m² 13,6 °C 15,4 °C 14,5 km/h (3 Bft)
25.09.2024 19:36 22,0 °C 17,1 °C 59 % 80 % 1005,1 hPa 0,0 l/m² 11,9 km/h (2 Bft) S 182 ° 0 min 0 W/m² 13,6 °C 14,7 °C 17,7 km/h (3 Bft)
25.09.2024 19:37 22,0 °C 17,1 °C 59 % 80 % 1005,1 hPa 0,0 l/m² 10,5 km/h (2 Bft) S-SW 198 ° 0 min 0 W/m² 13,6 °C 15,2 °C 16,1 km/h (3 Bft)
25.09.2024 19:38 22,0 °C 17,0 °C 59 % 80 % 1005,0 hPa 0,0 l/m² 10,9 km/h (2 Bft) S 184 ° 0 min 0 W/m² 13,5 °C 15,0 °C 12,9 km/h (3 Bft)
25.09.2024 19:39 22,0 °C 17,0 °C 59 % 80 % 1005,0 hPa 0,0 l/m² 11,3 km/h (2 Bft) S 185 ° 0 min 0 W/m² 13,5 °C 14,8 °C 14,5 km/h (3 Bft)
25.09.2024 19:40 22,0 °C 17,1 °C 59 % 80 % 1005,1 hPa 0,0 l/m² 12,0 km/h (2 Bft) S 173 ° 0 min 0 W/m² 13,6 °C 14,7 °C 16,1 km/h (3 Bft)
25.09.2024 19:41 22,0 °C 17,1 °C 59 % 80 % 1005,0 hPa 0,0 l/m² 10,1 km/h (2 Bft) S 177 ° 0 min 0 W/m² 13,6 °C 15,4 °C 12,9 km/h (3 Bft)
25.09.2024 19:42 22,0 °C 17,1 °C 59 % 80 % 1005,0 hPa 0,0 l/m² 11,4 km/h (2 Bft) S 182 ° 0 min 0 W/m² 13,6 °C 14,9 °C 14,5 km/h (3 Bft)
25.09.2024 19:43 22,0 °C 17,1 °C 59 % 80 % 1004,9 hPa 0,0 l/m² 9,5 km/h (2 Bft) S 182 ° 0 min 0 W/m² 13,6 °C 15,6 °C 11,3 km/h (2 Bft)
25.09.2024 19:44 22,0 °C 17,1 °C 59 % 80 % 1005,0 hPa 0,0 l/m² 10,7 km/h (2 Bft) S 171 ° 0 min 0 W/m² 13,6 °C 15,2 °C 14,5 km/h (3 Bft)
25.09.2024 19:45 22,0 °C 17,1 °C 59 % 79 % 1005,0 hPa 0,0 l/m² 10,0 km/h (2 Bft) S 184 ° 0 min 0 W/m² 13,4 °C 15,4 °C 14,5 km/h (3 Bft)
25.09.2024 19:46 22,0 °C 17,1 °C 59 % 80 % 1005,1 hPa 0,0 l/m² 7,4 km/h (2 Bft) S 178 ° 0 min 0 W/m² 13,6 °C 16,6 °C 11,3 km/h (2 Bft)
25.09.2024 19:47 22,0 °C 17,1 °C 59 % 80 % 1005,0 hPa 0,0 l/m² 9,9 km/h (2 Bft) S 171 ° 0 min 0 W/m² 13,6 °C 15,5 °C 16,1 km/h (3 Bft)
25.09.2024 19:48 22,0 °C 17,1 °C 59 % 80 % 1005,1 hPa 0,0 l/m² 9,1 km/h (2 Bft) S 170 ° 0 min 0 W/m² 13,6 °C 15,8 °C 14,5 km/h (3 Bft)
25.09.2024 19:49 22,0 °C 17,0 °C 59 % 80 % 1005,0 hPa 0,0 l/m² 8,5 km/h (2 Bft) S 175 ° 0 min 0 W/m² 13,5 °C 16,0 °C 11,3 km/h (2 Bft)
25.09.2024 19:50 21,9 °C 17,0 °C 59 % 80 % 1005,0 hPa 0,0 l/m² 8,6 km/h (2 Bft) S 169 ° 0 min 0 W/m² 13,5 °C 15,9 °C 11,3 km/h (2 Bft)
25.09.2024 19:51 22,0 °C 17,0 °C 59 % 80 % 1005,1 hPa 0,0 l/m² 8,1 km/h (2 Bft) S 179 ° 0 min 0 W/m² 13,5 °C 16,2 °C 9,7 km/h (2 Bft)
25.09.2024 19:52 22,0 °C 17,0 °C 59 % 80 % 1005,1 hPa 0,0 l/m² 9,2 km/h (2 Bft) SO 132 ° 0 min 0 W/m² 13,5 °C 15,7 °C 11,3 km/h (2 Bft)
25.09.2024 19:53 22,0 °C 16,9 °C 59 % 80 % 1005,1 hPa 0,0 l/m² 9,4 km/h (2 Bft) S 185 ° 0 min 0 W/m² 13,4 °C 15,5 °C 12,9 km/h (3 Bft)
25.09.2024 19:54 22,0 °C 16,9 °C 59 % 80 % 1005,0 hPa 0,0 l/m² 9,6 km/h (2 Bft) S 183 ° 0 min 0 W/m² 13,4 °C 15,4 °C 12,9 km/h (3 Bft)
25.09.2024 19:55 22,0 °C 16,9 °C 59 % 80 % 1005,1 hPa 0,0 l/m² 10,4 km/h (2 Bft) S-SO 166 ° 0 min 0 W/m² 13,4 °C 15,1 °C 12,9 km/h (3 Bft)
25.09.2024 19:56 22,0 °C 16,9 °C 59 % 80 % 1005,1 hPa 0,0 l/m² 10,4 km/h (2 Bft) S 171 ° 0 min 0 W/m² 13,4 °C 15,1 °C 14,5 km/h (3 Bft)
25.09.2024 19:57 22,0 °C 16,9 °C 59 % 80 % 1005,1 hPa 0,0 l/m² 9,8 km/h (2 Bft) S-SO 157 ° 0 min 0 W/m² 13,4 °C 15,3 °C 12,9 km/h (3 Bft)
25.09.2024 19:58 22,0 °C 16,9 °C 59 % 80 % 1005,1 hPa 0,0 l/m² 9,9 km/h (2 Bft) S 173 ° 0 min 0 W/m² 13,4 °C 15,3 °C 14,5 km/h (3 Bft)
25.09.2024 19:59 22,0 °C 16,9 °C 59 % 80 % 1005,1 hPa 0,0 l/m² 9,7 km/h (2 Bft) S 182 ° 0 min 0 W/m² 13,4 °C 15,3 °C 14,5 km/h (3 Bft)
25.09.2024 20:00 22,0 °C 16,9 °C 59 % 80 % 1005,1 hPa 0,0 l/m² 9,2 km/h (2 Bft) S-SO 155 ° 0 min 0 W/m² 13,4 °C 15,6 °C 14,5 km/h (3 Bft)
25.09.2024 20:01 22,0 °C 16,9 °C 59 % 81 % 1005,2 hPa 0,0 l/m² 10,0 km/h (2 Bft) S-SO 148 ° 0 min 0 W/m² 13,6 °C 15,2 °C 12,9 km/h (3 Bft)
25.09.2024 20:02 22,0 °C 16,9 °C 59 % 81 % 1005,1 hPa 0,0 l/m² 8,7 km/h (2 Bft) S 185 ° 0 min 0 W/m² 13,6 °C 15,8 °C 12,9 km/h (3 Bft)
25.09.2024 20:03 22,0 °C 16,9 °C 59 % 81 % 1005,2 hPa 0,0 l/m² 11,5 km/h (2 Bft) S 170 ° 0 min 0 W/m² 13,6 °C 14,6 °C 16,1 km/h (3 Bft)
25.09.2024 20:04 22,1 °C 16,9 °C 59 % 81 % 1005,1 hPa 0,0 l/m² 9,7 km/h (2 Bft) S-SW 194 ° 0 min 0 W/m² 13,6 °C 15,3 °C 12,9 km/h (3 Bft)
25.09.2024 20:05 22,0 °C 16,8 °C 59 % 81 % 1005,1 hPa 0,0 l/m² 9,3 km/h (2 Bft) S 184 ° 0 min 0 W/m² 13,5 °C 15,4 °C 12,9 km/h (3 Bft)
25.09.2024 20:06 22,1 °C 16,9 °C 59 % 80 % 1005,1 hPa 0,0 l/m² 8,9 km/h (2 Bft) S 186 ° 0 min 0 W/m² 13,4 °C 15,7 °C 11,3 km/h (2 Bft)
25.09.2024 20:07 22,0 °C 16,9 °C 59 % 80 % 1005,1 hPa 0,0 l/m² 10,3 km/h (2 Bft) S 182 ° 0 min 0 W/m² 13,4 °C 15,1 °C 12,9 km/h (3 Bft)
25.09.2024 20:08 22,0 °C 16,9 °C 59 % 80 % 1005,2 hPa 0,0 l/m² 10,8 km/h (2 Bft) S 188 ° 0 min 0 W/m² 13,4 °C 14,9 °C 14,5 km/h (3 Bft)
25.09.2024 20:09 22,0 °C 16,9 °C 59 % 80 % 1005,1 hPa 0,0 l/m² 11,5 km/h (2 Bft) S-SW 198 ° 0 min 0 W/m² 13,4 °C 14,6 °C 14,5 km/h (3 Bft)
25.09.2024 20:10 22,1 °C 16,9 °C 59 % 80 % 1005,1 hPa 0,0 l/m² 11,2 km/h (2 Bft) S 186 ° 0 min 0 W/m² 13,4 °C 14,8 °C 14,5 km/h (3 Bft)
25.09.2024 20:11 22,1 °C 16,9 °C 59 % 80 % 1005,1 hPa 0,0 l/m² 12,9 km/h (3 Bft) S-SW 194 ° 0 min 0 W/m² 13,4 °C 14,2 °C 16,1 km/h (3 Bft)
25.09.2024 20:12 22,0 °C 16,9 °C 59 % 80 % 1005,1 hPa 0,0 l/m² 11,0 km/h (2 Bft) S 184 ° 0 min 0 W/m² 13,4 °C 14,8 °C 12,9 km/h (3 Bft)
25.09.2024 20:13 22,1 °C 16,9 °C 59 % 80 % 1005,1 hPa 0,0 l/m² 13,3 km/h (3 Bft) S-SO 166 ° 0 min 0 W/m² 13,4 °C 14,0 °C 20,9 km/h (4 Bft)
25.09.2024 20:14 22,0 °C 16,9 °C 59 % 80 % 1005,0 hPa 0,0 l/m² 11,7 km/h (2 Bft) S-SO 168 ° 0 min 0 W/m² 13,4 °C 14,6 °C 14,5 km/h (3 Bft)
25.09.2024 20:15 22,1 °C 16,9 °C 59 % 80 % 1005,0 hPa 0,0 l/m² 10,3 km/h (2 Bft) S 188 ° 0 min 0 W/m² 13,4 °C 15,1 °C 12,9 km/h (3 Bft)
25.09.2024 20:16 22,1 °C 16,9 °C 59 % 80 % 1005,1 hPa 0,0 l/m² 10,1 km/h (2 Bft) S 184 ° 0 min 0 W/m² 13,4 °C 15,2 °C 12,9 km/h (3 Bft)
25.09.2024 20:17 22,1 °C 16,9 °C 59 % 80 % 1005,1 hPa 0,0 l/m² 10,9 km/h (2 Bft) S 170 ° 0 min 0 W/m² 13,4 °C 14,9 °C 14,5 km/h (3 Bft)
25.09.2024 20:18 22,1 °C 16,9 °C 59 % 80 % 1005,1 hPa 0,0 l/m² 9,5 km/h (2 Bft) S-SW 195 ° 0 min 0 W/m² 13,4 °C 15,4 °C 12,9 km/h (3 Bft)
25.09.2024 20:19 22,1 °C 16,9 °C 59 % 80 % 1005,1 hPa 0,0 l/m² 10,1 km/h (2 Bft) S 182 ° 0 min 0 W/m² 13,4 °C 15,2 °C 12,9 km/h (3 Bft)
25.09.2024 20:20 22,1 °C 16,9 °C 59 % 80 % 1005,1 hPa 0,0 l/m² 8,6 km/h (2 Bft) S 184 ° 0 min 0 W/m² 13,4 °C 15,8 °C 11,3 km/h (2 Bft)
25.09.2024 20:21 22,1 °C 16,8 °C 59 % 81 % 1005,1 hPa 0,0 l/m² 9,9 km/h (2 Bft) S-SO 168 ° 0 min 0 W/m² 13,5 °C 15,1 °C 14,5 km/h (3 Bft)
25.09.2024 20:22 22,1 °C 16,8 °C 59 % 81 % 1005,2 hPa 0,0 l/m² 10,8 km/h (2 Bft) S 180 ° 0 min 0 W/m² 13,5 °C 14,8 °C 14,5 km/h (3 Bft)
25.09.2024 20:23 22,1 °C 16,8 °C 59 % 81 % 1005,0 hPa 0,0 l/m² 10,0 km/h (2 Bft) S-SO 165 ° 0 min 0 W/m² 13,5 °C 15,1 °C 16,1 km/h (3 Bft)
25.09.2024 20:24 22,1 °C 16,8 °C 59 % 81 % 1005,1 hPa 0,0 l/m² 10,3 km/h (2 Bft) S 178 ° 0 min 0 W/m² 13,5 °C 15,0 °C 11,3 km/h (2 Bft)
25.09.2024 20:25 22,1 °C 16,7 °C 59 % 81 % 1005,1 hPa 0,0 l/m² 9,3 km/h (2 Bft) S-SO 168 ° 0 min 0 W/m² 13,4 °C 15,3 °C 12,9 km/h (3 Bft)
25.09.2024 20:26 22,1 °C 16,7 °C 59 % 81 % 1005,0 hPa 0,0 l/m² 8,9 km/h (2 Bft) S 188 ° 0 min 0 W/m² 13,4 °C 15,5 °C 11,3 km/h (2 Bft)
25.09.2024 20:27 22,0 °C 16,7 °C 59 % 81 % 1005,0 hPa 0,0 l/m² 8,4 km/h (2 Bft) S-SW 199 ° 0 min 0 W/m² 13,4 °C 15,7 °C 11,3 km/h (2 Bft)
25.09.2024 20:28 22,1 °C 16,7 °C 59 % 81 % 1005,0 hPa 0,0 l/m² 8,7 km/h (2 Bft) S-SW 200 ° 0 min 0 W/m² 13,4 °C 15,6 °C 9,7 km/h (2 Bft)
25.09.2024 20:29 22,1 °C 16,7 °C 59 % 81 % 1004,9 hPa 0,0 l/m² 7,9 km/h (2 Bft) S 185 ° 0 min 0 W/m² 13,4 °C 15,9 °C 11,3 km/h (2 Bft)
25.09.2024 20:30 22,1 °C 16,7 °C 59 % 81 % 1005,0 hPa 0,0 l/m² 7,6 km/h (2 Bft) S 179 ° 0 min 0 W/m² 13,4 °C 16,1 °C 9,7 km/h (2 Bft)
25.09.2024 20:31 22,1 °C 16,7 °C 59 % 81 % 1005,0 hPa 0,0 l/m² 9,0 km/h (2 Bft) S 182 ° 0 min 0 W/m² 13,4 °C 15,4 °C 12,9 km/h (3 Bft)
25.09.2024 20:32 22,1 °C 16,7 °C 59 % 82 % 1005,0 hPa 0,0 l/m² 8,9 km/h (2 Bft) S 171 ° 0 min 0 W/m² 13,6 °C 15,5 °C 11,3 km/h (2 Bft)
25.09.2024 20:33 22,1 °C 16,6 °C 59 % 82 % 1005,1 hPa 0,0 l/m² 9,2 km/h (2 Bft) S 183 ° 0 min 0 W/m² 13,5 °C 15,2 °C 11,3 km/h (2 Bft)
25.09.2024 20:34 22,1 °C 16,6 °C 59 % 82 % 1005,1 hPa 0,0 l/m² 9,6 km/h (2 Bft) S 184 ° 0 min 0 W/m² 13,5 °C 15,1 °C 12,9 km/h (3 Bft)
25.09.2024 20:35 22,1 °C 16,6 °C 59 % 82 % 1005,1 hPa 0,0 l/m² 10,7 km/h (2 Bft) S 178 ° 0 min 0 W/m² 13,5 °C 14,6 °C 12,9 km/h (3 Bft)
25.09.2024 20:36 22,1 °C 16,6 °C 59 % 82 % 1005,1 hPa 0,0 l/m² 11,3 km/h (2 Bft) S-SW 192 ° 0 min 0 W/m² 13,5 °C 14,4 °C 12,9 km/h (3 Bft)
25.09.2024 20:37 22,1 °C 16,5 °C 59 % 82 % 1005,1 hPa 0,0 l/m² 11,3 km/h (2 Bft) S-SW 195 ° 0 min 0 W/m² 13,4 °C 14,3 °C 14,5 km/h (3 Bft)
25.09.2024 20:38 22,1 °C 16,6 °C 59 % 82 % 1005,0 hPa 0,0 l/m² 8,9 km/h (2 Bft) S 179 ° 0 min 0 W/m² 13,5 °C 15,4 °C 11,3 km/h (2 Bft)
25.09.2024 20:39 22,1 °C 16,5 °C 59 % 82 % 1005,0 hPa 0,0 l/m² 9,2 km/h (2 Bft) S 188 ° 0 min 0 W/m² 13,4 °C 15,1 °C 9,7 km/h (2 Bft)
25.09.2024 20:40 22,1 °C 16,5 °C 59 % 82 % 1005,0 hPa 0,0 l/m² 10,9 km/h (2 Bft) S 180 ° 0 min 0 W/m² 13,4 °C 14,4 °C 14,5 km/h (3 Bft)
25.09.2024 20:41 22,1 °C 16,5 °C 59 % 82 % 1005,0 hPa 0,0 l/m² 10,8 km/h (2 Bft) S 179 ° 0 min 0 W/m² 13,4 °C 14,5 °C 17,7 km/h (3 Bft)
25.09.2024 20:42 22,1 °C 16,5 °C 59 % 82 % 1005,1 hPa 0,0 l/m² 11,4 km/h (2 Bft) S-SW 192 ° 0 min 0 W/m² 13,4 °C 14,2 °C 14,5 km/h (3 Bft)
25.09.2024 20:43 22,1 °C 16,5 °C 59 % 82 % 1004,9 hPa 0,0 l/m² 12,1 km/h (2 Bft) S-SW 194 ° 0 min 0 W/m² 13,4 °C 14,0 °C 14,5 km/h (3 Bft)
25.09.2024 20:44 22,1 °C 16,5 °C 59 % 82 % 1005,1 hPa 0,0 l/m² 11,6 km/h (2 Bft) S-SW 192 ° 0 min 0 W/m² 13,4 °C 14,1 °C 12,9 km/h (3 Bft)
25.09.2024 20:45 22,1 °C 16,5 °C 59 % 82 % 1005,0 hPa 0,0 l/m² 10,7 km/h (2 Bft) S-SW 198 ° 0 min 0 W/m² 13,4 °C 14,5 °C 12,9 km/h (3 Bft)
25.09.2024 20:46 22,1 °C 16,5 °C 59 % 82 % 1005,0 hPa 0,0 l/m² 11,0 km/h (2 Bft) S-SW 198 ° 0 min 0 W/m² 13,4 °C 14,4 °C 19,3 km/h (3 Bft)
25.09.2024 20:47 22,1 °C 16,5 °C 59 % 82 % 1005,0 hPa 0,0 l/m² 12,7 km/h (3 Bft) S 184 ° 0 min 0 W/m² 13,4 °C 13,8 °C 16,1 km/h (3 Bft)
25.09.2024 20:48 22,1 °C 16,4 °C 59 % 82 % 1004,9 hPa 0,0 l/m² 10,7 km/h (2 Bft) S-SW 192 ° 0 min 0 W/m² 13,3 °C 14,4 °C 14,5 km/h (3 Bft)
25.09.2024 20:49 22,1 °C 16,4 °C 59 % 82 % 1004,9 hPa 0,0 l/m² 11,7 km/h (2 Bft) S 189 ° 0 min 0 W/m² 13,3 °C 14,0 °C 12,9 km/h (3 Bft)
25.09.2024 20:50 22,1 °C 16,5 °C 59 % 82 % 1005,0 hPa 0,0 l/m² 8,2 km/h (2 Bft) S-SW 198 ° 0 min 0 W/m² 13,4 °C 15,6 °C 9,7 km/h (2 Bft)
25.09.2024 20:51 22,1 °C 16,5 °C 59 % 82 % 1005,0 hPa 0,0 l/m² 9,5 km/h (2 Bft) S-SW 192 ° 0 min 0 W/m² 13,4 °C 15,0 °C 11,3 km/h (2 Bft)
25.09.2024 20:52 22,1 °C 16,5 °C 59 % 82 % 1005,0 hPa 0,0 l/m² 11,7 km/h (2 Bft) S-SW 194 ° 0 min 0 W/m² 13,4 °C 14,1 °C 17,7 km/h (3 Bft)
25.09.2024 20:53 22,1 °C 16,6 °C 59 % 82 % 1004,9 hPa 0,0 l/m² 12,6 km/h (3 Bft) S-SW 202 ° 0 min 0 W/m² 13,5 °C 13,9 °C 14,5 km/h (3 Bft)
25.09.2024 20:54 22,1 °C 16,6 °C 59 % 82 % 1005,0 hPa 0,0 l/m² 10,6 km/h (2 Bft) S 185 ° 0 min 0 W/m² 13,5 °C 14,6 °C 12,9 km/h (3 Bft)
25.09.2024 20:55 22,1 °C 16,6 °C 59 % 82 % 1004,9 hPa 0,0 l/m² 9,1 km/h (2 Bft) S-SW 205 ° 0 min 0 W/m² 13,5 °C 15,3 °C 12,9 km/h (3 Bft)
25.09.2024 20:56 22,1 °C 16,6 °C 59 % 81 % 1004,9 hPa 0,0 l/m² 10,0 km/h (2 Bft) S 188 ° 0 min 0 W/m² 13,3 °C 14,9 °C 12,9 km/h (3 Bft)
25.09.2024 20:57 22,1 °C 16,6 °C 59 % 82 % 1004,8 hPa 0,0 l/m² 8,6 km/h (2 Bft) S-SW 200 ° 0 min 0 W/m² 13,5 °C 15,5 °C 9,7 km/h (2 Bft)
25.09.2024 20:58 22,1 °C 16,6 °C 59 % 81 % 1004,9 hPa 0,0 l/m² 9,3 km/h (2 Bft) S 183 ° 0 min 0 W/m² 13,3 °C 15,2 °C 11,3 km/h (2 Bft)
25.09.2024 20:59 22,1 °C 16,6 °C 59 % 82 % 1004,8 hPa 0,0 l/m² 9,0 km/h (2 Bft) S 191 ° 0 min 0 W/m² 13,5 °C 15,3 °C 11,3 km/h (2 Bft)
25.09.2024 21:00 22,1 °C 16,6 °C 59 % 82 % 1004,8 hPa 0,0 l/m² 9,5 km/h (2 Bft) S-SW 198 ° 0 min 0 W/m² 13,5 °C 15,1 °C 11,3 km/h (2 Bft)
25.09.2024 21:01 22,1 °C 16,6 °C 59 % 81 % 1004,8 hPa 0,0 l/m² 9,2 km/h (2 Bft) S 182 ° 0 min 0 W/m² 13,3 °C 15,2 °C 11,3 km/h (2 Bft)
25.09.2024 21:02 22,1 °C 16,5 °C 59 % 82 % 1004,9 hPa 0,0 l/m² 8,8 km/h (2 Bft) S-SW 193 ° 0 min 0 W/m² 13,4 °C 15,3 °C 11,3 km/h (2 Bft)
25.09.2024 21:03 22,1 °C 16,5 °C 59 % 82 % 1004,9 hPa 0,0 l/m² 8,0 km/h (2 Bft) S 190 ° 0 min 0 W/m² 13,4 °C 15,7 °C 11,3 km/h (2 Bft)
25.09.2024 21:04 22,1 °C 16,5 °C 59 % 82 % 1004,8 hPa 0,0 l/m² 8,4 km/h (2 Bft) S-SW 198 ° 0 min 0 W/m² 13,4 °C 15,5 °C 12,9 km/h (3 Bft)
25.09.2024 21:05 22,1 °C 16,5 °C 59 % 82 % 1004,9 hPa 0,0 l/m² 9,9 km/h (2 Bft) S 186 ° 0 min 0 W/m² 13,4 °C 14,8 °C 12,9 km/h (3 Bft)
25.09.2024 21:06 22,1 °C 16,4 °C 59 % 82 % 1004,9 hPa 0,0 l/m² 10,5 km/h (2 Bft) S-SW 197 ° 0 min 0 W/m² 13,3 °C 14,5 °C 12,9 km/h (3 Bft)
25.09.2024 21:07 22,1 °C 16,4 °C 59 % 82 % 1004,9 hPa 0,0 l/m² 10,7 km/h (2 Bft) S 190 ° 0 min 0 W/m² 13,3 °C 14,4 °C 12,9 km/h (3 Bft)
25.09.2024 21:08 22,1 °C 16,4 °C 59 % 82 % 1004,9 hPa 0,0 l/m² 10,7 km/h (2 Bft) S-SW 200 ° 0 min 0 W/m² 13,3 °C 14,4 °C 12,9 km/h (3 Bft)
25.09.2024 21:09 22,1 °C 16,4 °C 59 % 82 % 1004,8 hPa 0,0 l/m² 11,0 km/h (2 Bft) S 190 ° 0 min 0 W/m² 13,3 °C 14,3 °C 12,9 km/h (3 Bft)
25.09.2024 21:10 22,1 °C 16,4 °C 59 % 82 % 1004,9 hPa 0,0 l/m² 8,1 km/h (2 Bft) S-SW 211 ° 0 min 0 W/m² 13,3 °C 15,5 °C 9,7 km/h (2 Bft)
25.09.2024 21:11 22,1 °C 16,4 °C 59 % 82 % 1004,9 hPa 0,0 l/m² 8,6 km/h (2 Bft) S-SW 206 ° 0 min 0 W/m² 13,3 °C 15,3 °C 11,3 km/h (2 Bft)
25.09.2024 21:12 22,1 °C 16,4 °C 59 % 82 % 1004,9 hPa 0,0 l/m² 10,0 km/h (2 Bft) S-SW 200 ° 0 min 0 W/m² 13,3 °C 14,7 °C 14,5 km/h (3 Bft)
25.09.2024 21:13 22,1 °C 16,4 °C 59 % 82 % 1004,9 hPa 0,0 l/m² 10,5 km/h (2 Bft) SW 216 ° 0 min 0 W/m² 13,3 °C 14,5 °C 12,9 km/h (3 Bft)
25.09.2024 21:14 22,1 °C 16,3 °C 59 % 82 % 1004,9 hPa 0,0 l/m² 10,3 km/h (2 Bft) SW 214 ° 0 min 0 W/m² 13,2 °C 14,4 °C 12,9 km/h (3 Bft)
25.09.2024 21:15 22,1 °C 16,3 °C 59 % 82 % 1004,9 hPa 0,0 l/m² 9,9 km/h (2 Bft) S-SW 199 ° 0 min 0 W/m² 13,2 °C 14,6 °C 11,3 km/h (2 Bft)
25.09.2024 21:16 22,1 °C 16,3 °C 59 % 82 % 1004,9 hPa 0,0 l/m² 9,4 km/h (2 Bft) S-SW 206 ° 0 min 0 W/m² 13,2 °C 14,8 °C 11,3 km/h (2 Bft)
25.09.2024 21:17 22,1 °C 16,3 °C 59 % 82 % 1004,9 hPa 0,0 l/m² 9,5 km/h (2 Bft) S 189 ° 0 min 0 W/m² 13,2 °C 14,8 °C 12,9 km/h (3 Bft)
25.09.2024 21:18 22,1 °C 16,3 °C 59 % 82 % 1004,8 hPa 0,0 l/m² 9,4 km/h (2 Bft) S-SW 198 ° 0 min 0 W/m² 13,2 °C 14,8 °C 11,3 km/h (2 Bft)
25.09.2024 21:19 22,1 °C 16,3 °C 59 % 82 % 1004,8 hPa 0,0 l/m² 8,7 km/h (2 Bft) S-SW 205 ° 0 min 0 W/m² 13,2 °C 15,1 °C 12,9 km/h (3 Bft)
25.09.2024 21:20 22,1 °C 16,3 °C 59 % 82 % 1004,8 hPa 0,0 l/m² 9,8 km/h (2 Bft) S-SW 195 ° 0 min 0 W/m² 13,2 °C 14,6 °C 12,9 km/h (3 Bft)
25.09.2024 21:21 22,1 °C 16,3 °C 59 % 82 % 1004,8 hPa 0,0 l/m² 9,2 km/h (2 Bft) S-SW 205 ° 0 min 0 W/m² 13,2 °C 14,9 °C 12,9 km/h (3 Bft)
25.09.2024 21:22 22,1 °C 16,3 °C 59 % 82 % 1004,8 hPa 0,0 l/m² 7,8 km/h (2 Bft) S-SW 194 ° 0 min 0 W/m² 13,2 °C 15,6 °C 9,7 km/h (2 Bft)
25.09.2024 21:23 22,1 °C 16,3 °C 59 % 82 % 1004,9 hPa 0,0 l/m² 7,1 km/h (2 Bft) S-SW 197 ° 0 min 0 W/m² 13,2 °C 15,9 °C 8,0 km/h (2 Bft)
25.09.2024 21:24 22,1 °C 16,3 °C 59 % 82 % 1004,9 hPa 0,0 l/m² 7,7 km/h (2 Bft) S-SW 194 ° 0 min 0 W/m² 13,2 °C 15,6 °C 9,7 km/h (2 Bft)
25.09.2024 21:25 22,1 °C 16,3 °C 59 % 82 % 1004,8 hPa 0,0 l/m² 9,3 km/h (2 Bft) S 187 ° 0 min 0 W/m² 13,2 °C 14,9 °C 11,3 km/h (2 Bft)
25.09.2024 21:26 22,1 °C 16,3 °C 59 % 82 % 1004,8 hPa 0,0 l/m² 9,3 km/h (2 Bft) S 175 ° 0 min 0 W/m² 13,2 °C 14,9 °C 11,3 km/h (2 Bft)
25.09.2024 21:27 22,1 °C 16,2 °C 59 % 82 % 1004,7 hPa 0,0 l/m² 9,0 km/h (2 Bft) S 191 ° 0 min 0 W/m² 13,1 °C 14,9 °C 14,5 km/h (3 Bft)
25.09.2024 21:28 22,1 °C 16,2 °C 59 % 82 % 1004,7 hPa 0,0 l/m² 6,8 km/h (2 Bft) S 182 ° 0 min 0 W/m² 13,1 °C 16,0 °C 8,0 km/h (2 Bft)
25.09.2024 21:29 22,1 °C 16,2 °C 59 % 82 % 1004,7 hPa 0,0 l/m² 5,3 km/h (1 Bft) S 183 ° 0 min 0 W/m² 13,1 °C 16,2 °C 6,4 km/h (2 Bft)
25.09.2024 21:30 22,1 °C 16,2 °C 59 % 82 % 1004,6 hPa 0,0 l/m² 5,8 km/h (2 Bft) S 186 ° 0 min 0 W/m² 13,1 °C 16,2 °C 6,4 km/h (2 Bft)
25.09.2024 21:31 22,1 °C 16,2 °C 59 % 82 % 1004,6 hPa 0,0 l/m² 8,6 km/h (2 Bft) S 187 ° 0 min 0 W/m² 13,1 °C 15,1 °C 14,5 km/h (3 Bft)
25.09.2024 21:32 22,1 °C 16,2 °C 59 % 82 % 1004,6 hPa 0,0 l/m² 6,0 km/h (2 Bft) S 183 ° 0 min 0 W/m² 13,1 °C 16,2 °C 8,0 km/h (2 Bft)
25.09.2024 21:33 22,1 °C 16,2 °C 59 % 82 % 1004,6 hPa 0,0 l/m² 6,8 km/h (2 Bft) S 188 ° 0 min 0 W/m² 13,1 °C 16,0 °C 9,7 km/h (2 Bft)
25.09.2024 21:34 22,1 °C 16,2 °C 59 % 82 % 1004,7 hPa 0,0 l/m² 6,1 km/h (2 Bft) S 186 ° 0 min 0 W/m² 13,1 °C 16,2 °C 8,0 km/h (2 Bft)
25.09.2024 21:35 22,1 °C 16,2 °C 59 % 82 % 1004,6 hPa 0,0 l/m² 6,7 km/h (2 Bft) S 181 ° 0 min 0 W/m² 13,1 °C 16,1 °C 9,7 km/h (2 Bft)
25.09.2024 21:36 22,1 °C 16,1 °C 59 % 82 % 1004,6 hPa 0,0 l/m² 7,2 km/h (2 Bft) S 188 ° 0 min 0 W/m² 13,0 °C 15,7 °C 12,9 km/h (3 Bft)
25.09.2024 21:37 22,1 °C 16,1 °C 59 % 82 % 1004,7 hPa 0,0 l/m² 8,4 km/h (2 Bft) S 179 ° 0 min 0 W/m² 13,0 °C 15,1 °C 11,3 km/h (2 Bft)
25.09.2024 21:38 22,1 °C 16,1 °C 59 % 82 % 1004,6 hPa 0,0 l/m² 8,8 km/h (2 Bft) S-SW 196 ° 0 min 0 W/m² 13,0 °C 14,9 °C 11,3 km/h (2 Bft)
25.09.2024 21:39 22,1 °C 16,1 °C 59 % 82 % 1004,5 hPa 0,0 l/m² 8,0 km/h (2 Bft) S-SW 200 ° 0 min 0 W/m² 13,0 °C 15,3 °C 9,7 km/h (2 Bft)
25.09.2024 21:40 22,1 °C 16,1 °C 59 % 82 % 1004,6 hPa 0,0 l/m² 8,7 km/h (2 Bft) S 170 ° 0 min 0 W/m² 13,0 °C 14,9 °C 11,3 km/h (2 Bft)
25.09.2024 21:41 22,1 °C 16,1 °C 59 % 82 % 1004,6 hPa 0,0 l/m² 7,5 km/h (2 Bft) S 187 ° 0 min 0 W/m² 13,0 °C 15,5 °C 9,7 km/h (2 Bft)
25.09.2024 21:42 22,1 °C 16,1 °C 59 % 82 % 1004,5 hPa 0,0 l/m² 6,4 km/h (2 Bft) S-SW 193 ° 0 min 0 W/m² 13,0 °C 16,1 °C 8,0 km/h (2 Bft)
25.09.2024 21:43 22,1 °C 16,1 °C 59 % 82 % 1004,5 hPa 0,0 l/m² 7,2 km/h (2 Bft) S 185 ° 0 min 0 W/m² 13,0 °C 15,7 °C 9,7 km/h (2 Bft)
25.09.2024 21:44 22,1 °C 16,0 °C 59 % 83 % 1004,5 hPa 0,0 l/m² 7,7 km/h (2 Bft) S 189 ° 0 min 0 W/m² 13,1 °C 15,3 °C 9,7 km/h (2 Bft)
25.09.2024 21:46 22,1 °C 16,0 °C 59 % 83 % 1004,4 hPa 0,0 l/m² 6,6 km/h (2 Bft) S 184 ° 0 min 0 W/m² 13,1 °C 15,9 °C 11,3 km/h (2 Bft)
25.09.2024 21:47 22,1 °C 16,0 °C 59 % 83 % 1004,4 hPa 0,0 l/m² 5,7 km/h (2 Bft) S 184 ° 0 min 0 W/m² 13,1 °C 16,0 °C 8,0 km/h (2 Bft)
25.09.2024 21:48 22,1 °C 15,9 °C 59 % 83 % 1004,4 hPa 0,0 l/m² 5,5 km/h (2 Bft) S 182 ° 0 min 0 W/m² 13,0 °C 15,9 °C 6,4 km/h (2 Bft)
25.09.2024 21:49 22,1 °C 15,9 °C 59 % 83 % 1004,4 hPa 0,0 l/m² 6,4 km/h (2 Bft) S-SW 192 ° 0 min 0 W/m² 13,0 °C 15,9 °C 9,7 km/h (2 Bft)
25.09.2024 21:50 22,1 °C 15,9 °C 59 % 83 % 1004,3 hPa 0,0 l/m² 6,4 km/h (2 Bft) S 182 ° 0 min 0 W/m² 13,0 °C 15,9 °C 9,7 km/h (2 Bft)
25.09.2024 21:51 22,1 °C 15,9 °C 59 % 83 % 1004,3 hPa 0,0 l/m² 5,2 km/h (1 Bft) S 181 ° 0 min 0 W/m² 13,0 °C 15,9 °C 6,4 km/h (2 Bft)
25.09.2024 21:52 22,1 °C 15,9 °C 59 % 83 % 1004,3 hPa 0,0 l/m² 5,2 km/h (1 Bft) S 173 ° 0 min 0 W/m² 13,0 °C 15,9 °C 8,0 km/h (2 Bft)
25.09.2024 21:53 22,0 °C 15,9 °C 59 % 83 % 1004,4 hPa 0,0 l/m² 5,7 km/h (2 Bft) S 183 ° 0 min 0 W/m² 13,0 °C 15,9 °C 8,0 km/h (2 Bft)
25.09.2024 21:54 22,1 °C 15,9 °C 59 % 83 % 1004,3 hPa 0,0 l/m² 4,1 km/h (1 Bft) S 180 ° 0 min 0 W/m² 13,0 °C 15,9 °C 6,4 km/h (2 Bft)
25.09.2024 21:55 22,1 °C 15,8 °C 59 % 83 % 1004,3 hPa 0,0 l/m² 4,3 km/h (1 Bft) S 175 ° 0 min 0 W/m² 12,9 °C 15,8 °C 4,8 km/h (1 Bft)
25.09.2024 21:56 22,1 °C 15,8 °C 59 % 83 % 1004,3 hPa 0,0 l/m² 2,9 km/h (1 Bft) S 177 ° 0 min 0 W/m² 12,9 °C 15,8 °C 4,8 km/h (1 Bft)
25.09.2024 21:57 22,1 °C 15,8 °C 59 % 84 % 1004,4 hPa 0,0 l/m² 2,6 km/h (1 Bft) S 178 ° 0 min 0 W/m² 13,1 °C 15,8 °C 4,8 km/h (1 Bft)
25.09.2024 21:58 22,1 °C 15,8 °C 59 % 83 % 1004,4 hPa 0,0 l/m² 3,8 km/h (1 Bft) S 173 ° 0 min 0 W/m² 12,9 °C 15,8 °C 4,8 km/h (1 Bft)
25.09.2024 21:59 22,1 °C 15,8 °C 59 % 84 % 1004,4 hPa 0,0 l/m² 3,1 km/h (1 Bft) S 171 ° 0 min 0 W/m² 13,1 °C 15,8 °C 4,8 km/h (1 Bft)
25.09.2024 22:00 22,1 °C 15,7 °C 59 % 84 % 1004,4 hPa 0,0 l/m² 4,4 km/h (1 Bft) S 171 ° 0 min 0 W/m² 13,0 °C 15,7 °C 6,4 km/h (2 Bft)
25.09.2024 22:01 22,1 °C 15,7 °C 59 % 84 % 1004,4 hPa 0,0 l/m² 6,2 km/h (2 Bft) S-SO 163 ° 0 min 0 W/m² 13,0 °C 15,7 °C 8,0 km/h (2 Bft)
25.09.2024 22:02 22,1 °C 15,7 °C 59 % 84 % 1004,4 hPa 0,0 l/m² 4,7 km/h (1 Bft) S 175 ° 0 min 0 W/m² 13,0 °C 15,7 °C 8,0 km/h (2 Bft)
25.09.2024 22:04 22,1 °C 15,7 °C 59 % 84 % 1004,4 hPa 0,0 l/m² 5,8 km/h (2 Bft) S 173 ° 0 min 0 W/m² 13,0 °C 15,7 °C 9,7 km/h (2 Bft)
25.09.2024 22:05 22,1 °C 15,7 °C 59 % 84 % 1004,4 hPa 0,0 l/m² 6,4 km/h (2 Bft) S 175 ° 0 min 0 W/m² 13,0 °C 15,7 °C 11,3 km/h (2 Bft)
25.09.2024 22:06 22,1 °C 15,6 °C 59 % 84 % 1004,3 hPa 0,0 l/m² 6,9 km/h (2 Bft) S-SO 167 ° 0 min 0 W/m² 12,9 °C 15,3 °C 8,0 km/h (2 Bft)
25.09.2024 22:07 22,1 °C 15,6 °C 59 % 84 % 1004,4 hPa 0,0 l/m² 6,5 km/h (2 Bft) S 181 ° 0 min 0 W/m² 12,9 °C 15,6 °C 8,0 km/h (2 Bft)
25.09.2024 22:08 22,1 °C 15,6 °C 59 % 84 % 1004,4 hPa 0,0 l/m² 4,6 km/h (1 Bft) S 181 ° 0 min 0 W/m² 12,9 °C 15,6 °C 6,4 km/h (2 Bft)
25.09.2024 22:09 22,1 °C 15,6 °C 59 % 84 % 1004,4 hPa 0,0 l/m² 4,4 km/h (1 Bft) S 171 ° 0 min 0 W/m² 12,9 °C 15,6 °C 6,4 km/h (2 Bft)
25.09.2024 22:10 22,1 °C 15,6 °C 59 % 84 % 1004,3 hPa 0,0 l/m² 3,7 km/h (1 Bft) S 172 ° 0 min 0 W/m² 12,9 °C 15,6 °C 4,8 km/h (1 Bft)
25.09.2024 22:11 22,1 °C 15,6 °C 60 % 84 % 1004,3 hPa 0,0 l/m² 4,4 km/h (1 Bft) S-SO 162 ° 0 min 0 W/m² 12,9 °C 15,6 °C 6,4 km/h (2 Bft)
25.09.2024 22:12 22,1 °C 15,6 °C 60 % 84 % 1004,3 hPa 0,0 l/m² 4,1 km/h (1 Bft) S-SO 164 ° 0 min 0 W/m² 12,9 °C 15,6 °C 8,0 km/h (2 Bft)
25.09.2024 22:13 22,1 °C 15,6 °C 60 % 84 % 1004,3 hPa 0,0 l/m² 3,7 km/h (1 Bft) S-SO 163 ° 0 min 0 W/m² 12,9 °C 15,6 °C 6,4 km/h (2 Bft)
25.09.2024 22:14 22,1 °C 15,6 °C 60 % 85 % 1004,3 hPa 0,0 l/m² 1,5 km/h (1 Bft) S-SO 163 ° 0 min 0 W/m² 13,1 °C 15,6 °C 6,4 km/h (2 Bft)
25.09.2024 22:15 22,1 °C 15,5 °C 60 % 85 % 1004,3 hPa 0,0 l/m² 2,4 km/h (1 Bft) S-SO 162 ° 0 min 0 W/m² 13,0 °C 15,5 °C 3,2 km/h (1 Bft)
25.09.2024 22:16 22,0 °C 15,5 °C 60 % 85 % 1004,3 hPa 0,0 l/m² 1,7 km/h (1 Bft) S-SO 162 ° 0 min 0 W/m² 13,0 °C 15,5 °C 3,2 km/h (1 Bft)
25.09.2024 22:17 22,1 °C 15,5 °C 60 % 85 % 1004,3 hPa 0,0 l/m² 2,4 km/h (1 Bft) S-SO 162 ° 0 min 0 W/m² 13,0 °C 15,5 °C 3,2 km/h (1 Bft)
25.09.2024 22:18 22,0 °C 15,5 °C 60 % 85 % 1004,3 hPa 0,0 l/m² 1,7 km/h (1 Bft) S-SO 162 ° 0 min 0 W/m² 13,0 °C 15,5 °C 3,2 km/h (1 Bft)
25.09.2024 22:19 22,1 °C 15,4 °C 60 % 85 % 1004,3 hPa 0,0 l/m² 1,2 km/h (1 Bft) S-SO 162 ° 0 min 0 W/m² 12,9 °C 15,4 °C 3,2 km/h (1 Bft)
25.09.2024 22:20 22,1 °C 15,4 °C 60 % 85 % 1004,3 hPa 0,0 l/m² 1,8 km/h (1 Bft) S-SO 162 ° 0 min 0 W/m² 12,9 °C 15,4 °C 3,2 km/h (1 Bft)
25.09.2024 22:21 22,1 °C 15,4 °C 60 % 85 % 1004,3 hPa 0,0 l/m² 2,2 km/h (1 Bft) S-SO 162 ° 0 min 0 W/m² 12,9 °C 15,4 °C 3,2 km/h (1 Bft)
25.09.2024 22:22 22,1 °C 15,4 °C 60 % 85 % 1004,3 hPa 0,0 l/m² 3,0 km/h (1 Bft) S-SO 159 ° 0 min 0 W/m² 12,9 °C 15,4 °C 6,4 km/h (2 Bft)
25.09.2024 22:23 22,1 °C 15,3 °C 60 % 85 % 1004,3 hPa 0,0 l/m² 2,7 km/h (1 Bft) S-SO 160 ° 0 min 0 W/m² 12,8 °C 15,3 °C 6,4 km/h (2 Bft)
25.09.2024 22:24 22,1 °C 15,3 °C 60 % 85 % 1004,4 hPa 0,0 l/m² 1,9 km/h (1 Bft) S-SO 160 ° 0 min 0 W/m² 12,8 °C 15,3 °C 3,2 km/h (1 Bft)
25.09.2024 22:25 22,1 °C 15,3 °C 60 % 85 % 1004,3 hPa 0,0 l/m² 1,3 km/h (1 Bft) S-SO 160 ° 0 min 0 W/m² 12,8 °C 15,3 °C 6,4 km/h (2 Bft)
25.09.2024 22:26 22,0 °C 15,3 °C 60 % 85 % 1004,3 hPa 0,0 l/m² 0,4 km/h (0 Bft) S-SO 160 ° 0 min 0 W/m² 12,8 °C 15,3 °C 1,6 km/h (1 Bft)
25.09.2024 22:27 22,1 °C 15,3 °C 60 % 85 % 1004,2 hPa 0,0 l/m² 1,1 km/h (1 Bft) S-SO 160 ° 0 min 0 W/m² 12,8 °C 15,3 °C 1,6 km/h (1 Bft)
25.09.2024 22:28 22,0 °C 15,3 °C 60 % 85 % 1004,3 hPa 0,0 l/m² 1,6 km/h (1 Bft) S-SO 160 ° 0 min 0 W/m² 12,8 °C 15,3 °C 3,2 km/h (1 Bft)
25.09.2024 22:29 22,0 °C 15,3 °C 60 % 85 % 1004,3 hPa 0,0 l/m² 0,8 km/h (0 Bft) S-SO 160 ° 0 min 0 W/m² 12,8 °C 15,3 °C 1,6 km/h (1 Bft)
25.09.2024 22:30 22,0 °C 15,3 °C 60 % 85 % 1004,3 hPa 0,0 l/m² 1,5 km/h (1 Bft) S-SO 160 ° 0 min 0 W/m² 12,8 °C 15,3 °C 3,2 km/h (1 Bft)
25.09.2024 22:31 22,0 °C 15,4 °C 60 % 85 % 1004,4 hPa 0,0 l/m² 1,7 km/h (1 Bft) S-SO 160 ° 0 min 0 W/m² 12,9 °C 15,4 °C 3,2 km/h (1 Bft)
25.09.2024 22:32 22,0 °C 15,4 °C 60 % 85 % 1004,3 hPa 0,0 l/m² 1,0 km/h (0 Bft) S-SO 160 ° 0 min 0 W/m² 12,9 °C 15,4 °C 3,2 km/h (1 Bft)
25.09.2024 22:33 21,9 °C 15,4 °C 60 % 85 % 1004,4 hPa 0,0 l/m² 0,0 km/h (0 Bft) S-SO 160 ° 0 min 0 W/m² 12,9 °C 15,4 °C 0,0 km/h (0 Bft)
25.09.2024 22:34 21,9 °C 15,4 °C 60 % 85 % 1004,3 hPa 0,0 l/m² 0,0 km/h (0 Bft) S-SO 160 ° 0 min 0 W/m² 12,9 °C 15,4 °C 0,0 km/h (0 Bft)
25.09.2024 22:35 22,0 °C 15,4 °C 60 % 85 % 1004,3 hPa 0,0 l/m² 0,0 km/h (0 Bft) S-SO 160 ° 0 min 0 W/m² 12,9 °C 15,4 °C 0,0 km/h (0 Bft)
25.09.2024 22:36 22,0 °C 15,4 °C 60 % 85 % 1004,3 hPa 0,0 l/m² 0,0 km/h (0 Bft) S-SO 160 ° 0 min 0 W/m² 12,9 °C 15,4 °C 0,0 km/h (0 Bft)
25.09.2024 22:37 21,9 °C 15,4 °C 60 % 85 % 1004,2 hPa 0,0 l/m² 0,0 km/h (0 Bft) S-SO 160 ° 0 min 0 W/m² 12,9 °C 15,4 °C 0,0 km/h (0 Bft)
25.09.2024 22:38 21,9 °C 15,4 °C 60 % 85 % 1004,3 hPa 0,0 l/m² 0,0 km/h (0 Bft) S-SO 160 ° 0 min 0 W/m² 12,9 °C 15,4 °C 0,0 km/h (0 Bft)
25.09.2024 22:39 21,9 °C 15,4 °C 60 % 85 % 1004,2 hPa 0,0 l/m² 0,0 km/h (0 Bft) S-SO 160 ° 0 min 0 W/m² 12,9 °C 15,4 °C 0,0 km/h (0 Bft)
25.09.2024 22:40 21,9 °C 15,3 °C 60 % 85 % 1004,3 hPa 0,0 l/m² 0,0 km/h (0 Bft) S-SO 160 ° 0 min 0 W/m² 12,8 °C 15,3 °C 0,0 km/h (0 Bft)
25.09.2024 22:42 21,9 °C 15,3 °C 60 % 86 % 1004,2 hPa 0,0 l/m² 0,0 km/h (0 Bft) S-SO 160 ° 0 min 0 W/m² 13,0 °C 15,3 °C 0,0 km/h (0 Bft)
25.09.2024 22:43 21,9 °C 15,3 °C 60 % 86 % 1004,2 hPa 0,0 l/m² 0,0 km/h (0 Bft) S-SO 160 ° 0 min 0 W/m² 13,0 °C 15,3 °C 0,0 km/h (0 Bft)
25.09.2024 22:44 21,9 °C 15,3 °C 60 % 86 % 1004,2 hPa 0,0 l/m² 0,0 km/h (0 Bft) S-SO 160 ° 0 min 0 W/m² 13,0 °C 15,3 °C 0,0 km/h (0 Bft)
25.09.2024 22:45 21,9 °C 15,2 °C 60 % 86 % 1004,2 hPa 0,0 l/m² 0,0 km/h (0 Bft) S-SO 160 ° 0 min 0 W/m² 12,9 °C 15,2 °C 0,0 km/h (0 Bft)
25.09.2024 22:46 21,9 °C 15,2 °C 60 % 86 % 1004,2 hPa 0,0 l/m² 0,0 km/h (0 Bft) S-SO 160 ° 0 min 0 W/m² 12,9 °C 15,2 °C 0,0 km/h (0 Bft)
25.09.2024 22:47 21,9 °C 15,2 °C 60 % 86 % 1004,2 hPa 0,0 l/m² 0,0 km/h (0 Bft) S-SO 160 ° 0 min 0 W/m² 12,9 °C 15,2 °C 0,0 km/h (0 Bft)
25.09.2024 22:48 21,9 °C 15,2 °C 60 % 86 % 1004,3 hPa 0,0 l/m² 0,0 km/h (0 Bft) S-SO 160 ° 0 min 0 W/m² 12,9 °C 15,2 °C 0,0 km/h (0 Bft)
25.09.2024 22:49 21,9 °C 15,2 °C 60 % 86 % 1004,2 hPa 0,0 l/m² 0,1 km/h (0 Bft) S-SO 160 ° 0 min 0 W/m² 12,9 °C 15,2 °C 1,6 km/h (1 Bft)
25.09.2024 22:50 21,9 °C 15,1 °C 60 % 86 % 1004,1 hPa 0,0 l/m² 1,0 km/h (0 Bft) S-SO 154 ° 0 min 0 W/m² 12,8 °C 15,1 °C 3,2 km/h (1 Bft)
25.09.2024 22:52 21,9 °C 15,0 °C 60 % 86 % 1004,0 hPa 0,0 l/m² 2,7 km/h (1 Bft) SO 144 ° 0 min 0 W/m² 12,7 °C 15,0 °C 4,8 km/h (1 Bft)
25.09.2024 22:53 21,9 °C 15,0 °C 60 % 86 % 1004,0 hPa 0,0 l/m² 3,3 km/h (1 Bft) SO 144 ° 0 min 0 W/m² 12,7 °C 15,0 °C 4,8 km/h (1 Bft)
25.09.2024 22:54 21,9 °C 15,0 °C 60 % 86 % 1004,0 hPa 0,0 l/m² 3,2 km/h (1 Bft) SO 144 ° 0 min 0 W/m² 12,7 °C 15,0 °C 4,8 km/h (1 Bft)
25.09.2024 22:55 21,9 °C 14,9 °C 60 % 86 % 1004,0 hPa 0,0 l/m² 3,6 km/h (1 Bft) SO 143 ° 0 min 0 W/m² 12,6 °C 14,9 °C 4,8 km/h (1 Bft)
25.09.2024 22:56 21,9 °C 14,9 °C 60 % 86 % 1003,9 hPa 0,0 l/m² 4,3 km/h (1 Bft) O-SO 117 ° 0 min 0 W/m² 12,6 °C 14,9 °C 6,4 km/h (2 Bft)
25.09.2024 22:57 21,9 °C 14,9 °C 60 % 86 % 1003,9 hPa 0,0 l/m² 4,7 km/h (1 Bft) O-SO 116 ° 0 min 0 W/m² 12,6 °C 14,9 °C 4,8 km/h (1 Bft)
25.09.2024 22:58 21,9 °C 14,9 °C 60 % 86 % 1003,9 hPa 0,0 l/m² 5,3 km/h (1 Bft) O-SO 110 ° 0 min 0 W/m² 12,6 °C 14,9 °C 6,4 km/h (2 Bft)
25.09.2024 22:59 21,9 °C 14,9 °C 60 % 86 % 1004,0 hPa 0,0 l/m² 5,3 km/h (1 Bft) O-SO 107 ° 0 min 0 W/m² 12,6 °C 14,9 °C 6,4 km/h (2 Bft)
25.09.2024 23:00 21,9 °C 14,9 °C 60 % 86 % 1003,9 hPa 0,0 l/m² 5,7 km/h (2 Bft) O-SO 107 ° 0 min 0 W/m² 12,6 °C 14,9 °C 6,4 km/h (2 Bft)
25.09.2024 23:01 21,9 °C 14,8 °C 60 % 87 % 1003,9 hPa 0,0 l/m² 4,5 km/h (1 Bft) O-SO 107 ° 0 min 0 W/m² 12,7 °C 14,8 °C 6,4 km/h (2 Bft)
25.09.2024 23:02 21,8 °C 14,9 °C 60 % 87 % 1003,8 hPa 0,0 l/m² 4,3 km/h (1 Bft) O-SO 107 ° 0 min 0 W/m² 12,8 °C 14,9 °C 6,4 km/h (2 Bft)
25.09.2024 23:03 21,9 °C 14,8 °C 60 % 87 % 1003,9 hPa 0,0 l/m² 4,6 km/h (1 Bft) O-SO 105 ° 0 min 0 W/m² 12,7 °C 14,8 °C 6,4 km/h (2 Bft)
25.09.2024 23:04 21,8 °C 14,8 °C 60 % 87 % 1003,8 hPa 0,0 l/m² 5,6 km/h (2 Bft) O-SO 105 ° 0 min 0 W/m² 12,7 °C 14,8 °C 9,7 km/h (2 Bft)
25.09.2024 23:05 21,9 °C 14,8 °C 60 % 87 % 1003,8 hPa 0,0 l/m² 5,4 km/h (2 Bft) O-SO 103 ° 0 min 0 W/m² 12,7 °C 14,8 °C 6,4 km/h (2 Bft)
25.09.2024 23:07 21,8 °C 14,8 °C 60 % 87 % 1003,7 hPa 0,0 l/m² 5,7 km/h (2 Bft) O-SO 103 ° 0 min 0 W/m² 12,7 °C 14,8 °C 9,7 km/h (2 Bft)
25.09.2024 23:08 21,8 °C 14,8 °C 60 % 87 % 1003,7 hPa 0,0 l/m² 7,3 km/h (2 Bft) O-SO 103 ° 0 min 0 W/m² 12,7 °C 14,3 °C 9,7 km/h (2 Bft)
25.09.2024 23:09 21,8 °C 14,9 °C 60 % 87 % 1003,6 hPa 0,0 l/m² 5,9 km/h (2 Bft) O-SO 105 ° 0 min 0 W/m² 12,8 °C 14,9 °C 9,7 km/h (2 Bft)
25.09.2024 23:10 21,9 °C 14,9 °C 60 % 87 % 1003,7 hPa 0,0 l/m² 5,8 km/h (2 Bft) O-SO 107 ° 0 min 0 W/m² 12,8 °C 14,9 °C 6,4 km/h (2 Bft)
25.09.2024 23:11 21,8 °C 14,9 °C 60 % 87 % 1003,7 hPa 0,0 l/m² 6,6 km/h (2 Bft) O-SO 111 ° 0 min 0 W/m² 12,8 °C 14,8 °C 9,7 km/h (2 Bft)
25.09.2024 23:12 21,8 °C 14,9 °C 60 % 86 % 1003,7 hPa 0,0 l/m² 6,0 km/h (2 Bft) O-SO 109 ° 0 min 0 W/m² 12,6 °C 14,9 °C 9,7 km/h (2 Bft)
25.09.2024 23:13 21,8 °C 15,0 °C 60 % 87 % 1003,6 hPa 0,0 l/m² 4,5 km/h (1 Bft) O-SO 112 ° 0 min 0 W/m² 12,9 °C 15,0 °C 6,4 km/h (2 Bft)
25.09.2024 23:14 21,8 °C 15,0 °C 60 % 86 % 1003,6 hPa 0,0 l/m² 2,3 km/h (1 Bft) O-SO 112 ° 0 min 0 W/m² 12,7 °C 15,0 °C 3,2 km/h (1 Bft)
25.09.2024 23:15 21,8 °C 15,1 °C 60 % 86 % 1003,6 hPa 0,0 l/m² 4,4 km/h (1 Bft) O-SO 111 ° 0 min 0 W/m² 12,8 °C 15,1 °C 6,4 km/h (2 Bft)
25.09.2024 23:16 21,8 °C 15,1 °C 60 % 86 % 1003,6 hPa 0,0 l/m² 6,4 km/h (2 Bft) O-SO 112 ° 0 min 0 W/m² 12,8 °C 15,1 °C 11,3 km/h (2 Bft)
25.09.2024 23:17 21,8 °C 15,1 °C 60 % 86 % 1003,5 hPa 0,0 l/m² 4,8 km/h (1 Bft) O-SO 112 ° 0 min 0 W/m² 12,8 °C 15,1 °C 6,4 km/h (2 Bft)
25.09.2024 23:18 21,8 °C 15,1 °C 60 % 86 % 1003,5 hPa 0,0 l/m² 3,2 km/h (1 Bft) O-SO 112 ° 0 min 0 W/m² 12,8 °C 15,1 °C 6,4 km/h (2 Bft)
25.09.2024 23:19 21,8 °C 15,1 °C 60 % 86 % 1003,5 hPa 0,0 l/m² 6,4 km/h (2 Bft) O-SO 112 ° 0 min 0 W/m² 12,8 °C 15,1 °C 11,3 km/h (2 Bft)
25.09.2024 23:20 21,8 °C 15,1 °C 60 % 86 % 1003,5 hPa 0,0 l/m² 4,8 km/h (1 Bft) O-SO 112 ° 0 min 0 W/m² 12,8 °C 15,1 °C 6,4 km/h (2 Bft)
25.09.2024 23:21 21,8 °C 15,2 °C 60 % 86 % 1003,5 hPa 0,0 l/m² 4,8 km/h (1 Bft) O-SO 112 ° 0 min 0 W/m² 12,9 °C 15,2 °C 9,7 km/h (2 Bft)
25.09.2024 23:27 21,8 °C 15,2 °C 60 % 85 % 1003,3 hPa 0,0 l/m² 7,8 km/h (2 Bft) O-SO 103 ° 0 min 0 W/m² 12,7 °C 14,4 °C 11,3 km/h (2 Bft)
25.09.2024 23:29 21,8 °C 15,2 °C 60 % 85 % 1003,1 hPa 0,0 l/m² 7,4 km/h (2 Bft) O 100 ° 0 min 0 W/m² 12,7 °C 14,6 °C 12,9 km/h (3 Bft)
25.09.2024 23:31 21,8 °C 15,2 °C 60 % 85 % 1003,2 hPa 0,0 l/m² 7,7 km/h (2 Bft) O 94 ° 0 min 0 W/m² 12,7 °C 14,5 °C 12,9 km/h (3 Bft)
25.09.2024 23:32 21,7 °C 15,2 °C 60 % 85 % 1003,1 hPa 0,0 l/m² 9,4 km/h (2 Bft) O 89 ° 0 min 0 W/m² 12,7 °C 13,6 °C 14,5 km/h (3 Bft)
25.09.2024 23:33 21,7 °C 15,2 °C 60 % 85 % 1003,1 hPa 0,0 l/m² 6,8 km/h (2 Bft) O 89 ° 0 min 0 W/m² 12,7 °C 15,0 °C 11,3 km/h (2 Bft)
25.09.2024 23:35 21,8 °C 15,2 °C 60 % 85 % 1003,2 hPa 0,0 l/m² 8,8 km/h (2 Bft) O 97 ° 0 min 0 W/m² 12,7 °C 13,9 °C 12,9 km/h (3 Bft)
25.09.2024 23:36 21,8 °C 15,3 °C 60 % 85 % 1003,1 hPa 0,0 l/m² 7,4 km/h (2 Bft) O 96 ° 0 min 0 W/m² 12,8 °C 14,7 °C 11,3 km/h (2 Bft)
25.09.2024 23:38 21,8 °C 15,2 °C 60 % 85 % 1003,2 hPa 0,0 l/m² 8,1 km/h (2 Bft) O 94 ° 0 min 0 W/m² 12,7 °C 14,3 °C 11,3 km/h (2 Bft)
25.09.2024 23:40 21,8 °C 15,3 °C 60 % 85 % 1003,1 hPa 0,0 l/m² 8,4 km/h (2 Bft) O 92 ° 0 min 0 W/m² 12,8 °C 14,2 °C 11,3 km/h (2 Bft)
25.09.2024 23:41 21,8 °C 15,3 °C 60 % 85 % 1003,0 hPa 0,0 l/m² 7,2 km/h (2 Bft) O 93 ° 0 min 0 W/m² 12,8 °C 14,9 °C 9,7 km/h (2 Bft)
25.09.2024 23:42 21,8 °C 15,3 °C 60 % 85 % 1003,0 hPa 0,0 l/m² 8,6 km/h (2 Bft) O-NO 78 ° 0 min 0 W/m² 12,8 °C 14,1 °C 12,9 km/h (3 Bft)
25.09.2024 23:45 21,7 °C 15,3 °C 60 % 85 % 1003,1 hPa 0,0 l/m² 8,5 km/h (2 Bft) O 87 ° 0 min 0 W/m² 12,8 °C 14,2 °C 12,9 km/h (3 Bft)
25.09.2024 23:47 21,8 °C 15,3 °C 60 % 85 % 1003,2 hPa 0,0 l/m² 7,7 km/h (2 Bft) O 91 ° 0 min 0 W/m² 12,8 °C 14,6 °C 12,9 km/h (3 Bft)
25.09.2024 23:49 21,8 °C 15,3 °C 60 % 85 % 1003,1 hPa 0,0 l/m² 7,5 km/h (2 Bft) O 92 ° 0 min 0 W/m² 12,8 °C 14,7 °C 12,9 km/h (3 Bft)
25.09.2024 23:50 21,8 °C 15,3 °C 60 % 85 % 1003,1 hPa 0,0 l/m² 9,1 km/h (2 Bft) O-SO 105 ° 0 min 0 W/m² 12,8 °C 13,9 °C 12,9 km/h (3 Bft)
25.09.2024 23:51 21,8 °C 15,3 °C 60 % 85 % 1003,1 hPa 0,0 l/m² 7,0 km/h (2 Bft) O-SO 110 ° 0 min 0 W/m² 12,8 °C 15,0 °C 12,9 km/h (3 Bft)
25.09.2024 23:52 21,8 °C 15,2 °C 60 % 85 % 1003,1 hPa 0,0 l/m² 6,7 km/h (2 Bft) O-SO 113 ° 0 min 0 W/m² 12,7 °C 15,0 °C 11,3 km/h (2 Bft)
25.09.2024 23:55 21,8 °C 15,3 °C 60 % 85 % 1003,1 hPa 0,0 l/m² 9,5 km/h (2 Bft) SO 136 ° 0 min 0 W/m² 12,8 °C 13,7 °C 17,7 km/h (3 Bft)
25.09.2024 23:57 21,8 °C 15,3 °C 60 % 85 % 1003,1 hPa 0,0 l/m² 11,0 km/h (2 Bft) O-SO 111 ° 0 min 0 W/m² 12,8 °C 13,0 °C 17,7 km/h (3 Bft)
25.09.2024 23:59 21,8 °C 15,4 °C 60 % 85 % 1003,0 hPa 0,0 l/m² 12,3 km/h (2 Bft) SO 139 ° 0 min 0 W/m² 12,9 °C 12,6 °C 19,3 km/h (3 Bft)
_ Min-Zeit 23:45 23:08 14:53 15:21 23:59 - 22:48 - - - - 00:42 03:01 22:48
Minimum _ 21,7 °C 14,8 °C 57 % 71 % 1003,0 hPa - 0,0 km/h (0 Bft) - - - - 12,2 °C 10,4 °C 0,0 km/h (0 Bft)
_ Max-Zeit 14:28 16:28 23:59 08:19 11:15 23:59 14:33 - - 15:46 10:30 13:47 16:09 14:33
Maximum _ 22,2 °C 18,9 °C 60 % 90 % 1007,1 hPa 0,0 l/m² 30,7 km/h
S-SW (5 Bft)
- - 2 min 441 W/m² 15,3 °C 18,8 °C 41,8 km/h
SW (6 Bft)
Durchschnitt _ 22,0 °C 16,4 °C 59 % 83 % 1005,5 hPa #0,0 l/m² 10,5 km/h (2 Bft) S - #9:20 h 62 W/m² 13,5 °C 14,6 °C 14,1 km/h (3 Bft)
© 2009 Mathias Hoßbach